     2.11           OBSERVATION DATA    G (GPS)             RINEX VERSION / TYPE
teqc 2010Oct21 OPUS Account 20111028 21:20:48UTC            PGM / RUN BY / DATE
H 1528                                                      MARKER NAME
3092                                                        MARKER NUMBER
CSMIDDLETON NGS                                             OBSERVER / AGENCY
0220320152 TRIMBLE 5700 2.01                                REC # / TYPE / VERS
12214372 TRM41249.00 NONE                                   ANT # / TYPE
  -694879.0745 -5591484.1698  2978763.7765                  APPROX POSITION XYZ
        2.0000        0.0000        0.0000                  ANTENNA: DELTA H/E/N
     1     1                                                WAVELENGTH FACT L1/2
     5    L1    L2    C1    P1    P2                        # / TYPES OF OBSERV
    15                                                      LEAP SECONDS
  2011     8    29     0     0   30.0000000     GPS         TIME OF FIRST OBS
                                                            END OF HEADER
 11  8 29  0  0 30.0000000  0  8G10G12G17G09G05G04G25G02
 -29042603.34458 -22619904.78556  20992444.8594                   20992443.6484
 -24729677.72358 -19258331.52756  21209607.2814                   21209605.2034
 -29047874.84857 -22622784.30154  23561384.0394                   23561384.5904
 -11327825.59056  -8815035.42654  24246042.9924                   24246047.0234
 -22003896.05158 -17133998.80156  21473460.9774                   21473460.1954
 -28895060.54757 -22502726.55155  22249345.3914                   22249345.4264
  -7326602.06657  -5697424.32855  23631860.9774                   23631862.4924
 -32412613.40658 -25244509.18056  20734538.1094                   20734534.4614
 11  8 29  0  1  0.0000000  0  8G10G12G17G09G05G04G25G02
 -29045943.75848 -22622507.70746  20991809.6254                   20991807.6804
 -24801713.75848 -19314463.49646  21195899.3674                   21195897.1684
 -29016930.57047 -22598671.95744  23567272.8834                   23567273.0984
 -11273388.66047  -8772617.19544  24256402.0314                   24256405.6954
 -22107915.79748 -17215053.07446  21453666.7424                   21453665.4734
 -28841935.00047 -22461330.08645  22259455.5944                   22259454.7504
  -7445399.35247  -5789993.61745  23609254.6884                   23609255.8404
 -32431034.19548 -25258863.03546  20731032.7424                   20731028.9844
 11  8 29  0  1 30.0000000  0  8G10G12G17G09G05G04G25G02
 -29048653.70748 -22624619.35246  20991293.7344                   20991292.1684
 -24873240.80148 -19370198.83646  21182288.3134                   21182286.1174
 -28985797.35947 -22574412.38344  23573197.3984                   23573198.0434
 -11218887.84046  -8730149.17643  24266772.4144                   24266777.1334
 -22211524.18748 -17295786.82446  21433950.8364                   21433949.8094
 -28788727.42247 -22419869.68445  22269580.7424                   22269580.4414
  -7563923.97747  -5882350.44545  23586699.9614                   23586701.7584
 -32449201.18748 -25273019.12547  20727575.5394                   20727571.6684
 11  8 29  0  2  0.0000000  0  8G10G12G17G09G05G04G25G02
 -29050733.49248 -22626239.95346  20990897.7584                   20990896.3984
 -24944256.96148 -19425536.08646  21168774.1484                   21168772.0904
 -28954474.60247 -22550005.10944  23579157.8284                   23579158.1644
 -11164326.00446  -8687633.62943  24277154.9064                   24277159.5784
 -22314718.37148 -17376197.80146  21414313.8524                   21414312.5044
 -28735439.34047 -22378346.55145  22279720.9924                   22279720.4304
  -7682172.79347  -5974492.34845  23564198.0234                   23564199.6684
 -32467115.10248 -25286978.01246  20724166.6724                   20724162.9734
 11  8 29  0  2 30.0000000  0  8G10G12G17G09G05G04G25G02
 -29052186.16848 -22627371.91446  20990621.7114                   20990620.2664
 -25014761.40248 -19480474.59446  21155357.8754                   21155355.8324
 -28922963.66047 -22525451.19544  23585153.8914                   23585154.3054
 -11109708.05946  -8645074.34443  24287549.3674                   24287554.0984
 -22417497.69148 -17456285.52046  21394755.1024                   21394754.2344
 -28682074.08647 -22336763.28945  22289876.6884                   22289875.9494
  -7800145.03147  -6066418.76644  23541748.8524                   23541749.8404
 -32484779.08648 -25300742.16446  20720805.4144                   20720801.4224
 11  8 29  0  3  0.0000000  0  8G10G12G17G09G05G04G25G02
 -29053011.11348 -22628014.72346  20990464.7734                   20990463.0744
 -25084751.35948 -19535012.20346  21142039.1414                   21142037.0164
 -28891262.52047 -22500749.09044  23591186.8984                   23591186.5204
 -11055035.60946  -8602472.61743  24297953.9614                   24297957.4804
 -22519858.14548 -17536046.84446  21375276.6804                   21375276.0904
 -28628631.80547 -22295119.99245  22300045.7504                   22300045.4734
  -7917836.45747  -6158126.32444  23519351.9384                   23519353.7734
 -32502192.77748 -25314311.27346  20717491.7194                   20717487.9384
 11  8 29  0  3 30.0000000  0  8G10G12G17G09G05G04G25G02
 -29053210.15648 -22628169.81246  20990426.5084                   20990425.0554
 -25154226.00048 -19589148.26246  21128818.3914                   21128816.3714
 -28859371.67647 -22475899.15244  23597255.0234                   23597256.6334
 -11000313.27046  -8559832.03144  24308367.1484                   24308370.8094
 -22621798.04348 -17615480.46546  21355878.1724                   21355877.2624
 -28575115.11347 -22253418.72345  22310230.0554                   22310229.2114
  -8035245.42646  -6249613.82444  23497010.2974                   23497011.1644
 -32519358.51648 -25327687.16846  20714225.1174                   20714221.3754
 11  8 29  0  4  0.0000000  0  8G10G12G17G09G05G04G25G02
 -29052784.90648 -22627838.44946  20990507.5234                   20990505.9694
 -25223184.12148 -19642881.84446  21115696.4774                   21115694.0274
 -28827291.32846 -22450901.57044  23603359.7584                   23603359.9144
 -10945544.96946  -8517155.54743  24318789.1484                   24318793.4064
 -22723315.86348 -17694585.19546  21336559.6564                   21336558.9964
 -28521526.26647 -22211661.23045  22320427.8284                   22320426.4884
  -8152370.11346  -6340879.76244  23474721.5944                   23474723.1454
 -32536278.27748 -25340871.39547  20711005.6804                   20711001.5434
 11  8 29  0  4 30.0000000  0  8G10G12G17G09G05G04G25G02
 -29051735.46148 -22627020.70746  20990707.4774                   20990705.9574
 -25291622.85948 -19696210.70746  21102672.9064                   21102670.3054
 -28795020.53146 -22425755.59044  23609501.0864                   23609501.6254
 -10890732.63347  -8474444.77343  24329220.1254                   24329223.3954
 -22824407.84048 -17773358.09446  21317322.6334                   21317322.0824
 -28467866.06647 -22169848.12545  22330638.9694                   22330638.4454
  -8269206.60947  -6431921.18444  23452488.9924                   23452489.9734
 -32552952.05548 -25353863.94946  20707832.3444                   20707828.6414
 11  8 29  0  5  0.0000000  0  8G10G12G17G09G05G04G25G02
 -29050063.69548 -22625718.02746  20991025.1564                   20991023.6214
 -25359541.38348 -19749134.21546  21089748.0554                   21089746.0124
 -28762559.60546 -22400461.44144  23615677.8594                   23615679.1134
 -10835880.17647  -8431702.72744  24339658.6094                   24339661.7624
 -22925072.40248 -17851797.95346  21298166.7664                   21298165.7704
 -28414136.63347 -22127981.09445  22340863.5004                   22340862.5514
  -8385753.21147  -6522736.70745  23430311.1804                   23430311.7814
 -32569382.07848 -25366666.57446  20704705.8674                   20704702.0984
 11  8 29  0  5 30.0000000  0  8G10G12G17G09G05G04G25G02
 -29047768.94547 -22623929.91046  20991462.1484                   20991460.6994
 -25426935.95748 -19801649.44546  21076923.5234                   21076921.3134
 -28729906.19946 -22375017.30944  23621892.2734                   23621892.9734
 -10780989.52347  -8388930.92643  24350103.5554                   24350107.3674
 -23025305.78948 -17929901.81646  21279092.6954                   21279091.7464
 -28360338.05547 -22086060.15645  22351100.9924                   22351100.2344
  -8502005.53147  -6613322.92245  23408188.9144                   23408189.9344
 -32585567.82448 -25379278.84046  20701626.1804                   20701622.1454
 11  8 29  0  6  0.0000000  0  8G10G12G17G09G05G04G25G02
 -29044853.62147 -22621658.23046  20992016.9064                   20992015.0434
 -25493806.67648 -19853756.49246  21064198.2814                   21064196.1334
 -28697061.33246 -22349423.96544  23628141.8364                   23628142.4574
 -10726065.24246  -8346132.86344  24360555.6954                   24360558.1254
 -23125106.80148 -18007668.77046  21260101.4064                   21260100.3094
 -28306473.23047 -22044087.60945  22361351.1414                   22361350.4884
  -8617962.44147  -6703678.92245  23386123.2664                   23386124.5084
 -32601511.79348 -25391702.70746  20698591.7424                   20698588.0824
 11  8 29  0  6 30.0000000  0  8G10G12G17G09G05G04G25G02
 -29041320.43747 -22618905.10246  20992689.0474                   20992687.6024
 -25560153.40648 -19905455.23046  21051572.8984                   21051570.9774
 -28664026.59446 -22323682.70344  23634428.1724                   23634428.9184
 -10671111.82846  -8303312.13343  24371012.9924                   24371015.8484
 -23224474.53548 -18085098.11746  21241192.2734                   21241191.5904
 -28252545.55547 -22002066.08245  22371613.4064                   22371612.2234
  -8733622.76247  -6793803.79745  23364113.6564                   23364114.7894
 -32617216.93448 -25403940.47347  20695603.2034                   20695599.5004
 11  8 29  0  7  0.0000000  0  8G10G12G17G09G05G04G25G02
 -29037168.58248 -22615669.89146  20993479.3524                   20993477.6844
 -25625972.32048 -19956742.68746  21039048.0314                   21039045.8324
 -28630799.49646 -22297791.53144  23640751.2344                   23640752.7304
 -10616130.82046  -8260469.88743  24381475.6884                   24381478.4694
 -23323404.50448 -18162186.34446  21222366.4614                   21222365.4614
 -28198554.60247 -21959995.25445  22381887.3444                   22381886.7544
  -8848982.00447  -6883694.03945  23342161.4454                   23342163.0904
 -32632682.59848 -25415991.62947  20692660.2814                   20692656.7034
 11  8 29  0  7 30.0000000  0  8G10G12G17G09G05G04G25G02
 -29032399.30148 -22611953.57846  20994386.7424                   20994384.9574
 -25691261.84448 -20007617.63746  21026624.1334                   21026621.6294
 -28597379.62146 -22271750.14544  23647112.0944                   23647111.6414
 -10561125.62147  -8217608.80543  24391942.9384                   24391946.9774
 -23421894.57848 -18238931.79346  21203624.5164                   21203623.8204
 -28144501.57847 -21917876.05145  22392173.4534                   22392172.4774
  -8964037.60546  -6973347.67245  23320267.2114                   23320268.2194
 -32647910.09048 -25427857.20346  20689762.3054                   20689758.1724
 11  8 29  0  8  0.0000000  0  8G10G12G17G09G05G04G25G02
 -29027013.18748 -22607756.60246  20995411.7504                   20995409.9694
 -25756019.45348 -20058078.10546  21014301.0004                   21014298.8054
 -28563765.98446 -22245557.77043  23653507.4614                   23653508.3714
 -10506098.60246  -8174730.73043  24402413.5554                   24402417.9574
 -23519941.63748 -18315332.04746  21184966.6804                   21184965.6884
 -28090387.68047 -21875709.41045  22402470.6884                   22402470.1174
  -9078786.03946  -7062761.94145  23298430.0784                   23298432.5744
 -32662899.65248 -25439537.37147  20686910.0704                   20686906.5084
 11  8 29  0  8 30.0000000  0  8G10G12G17G09G05G04G25G02
 -29021012.52048 -22603080.75846  20996553.7344                   20996552.0434
 -25820244.57448 -20108123.66046  21002079.3524                   21002077.0474
 -28529959.56646 -22219215.16844  23659940.2734                   23659941.9574
 -10451053.77746  -8131838.84443  24412888.0164                   24412892.9064
 -23617544.27048 -18391385.97746  21166393.1954                   21166392.4104
 -28036215.17647 -21833497.13345  22412779.6724                   22412779.1174
  -9193225.85246  -7151935.72745  23276653.1094                   23276655.2734
 -32677653.47348 -25451033.84846  20684102.9304                   20684098.5514
 11  8 29  0  9  0.0000000  0  8G10G12G17G09G05G04G25G02
 -29014399.86748 -22597928.04346  20997812.1334                   20997810.5784
 -25883937.15648 -20157754.24246  20989959.0634                   20989956.6764
 -28495961.05546 -22192722.90644  23666410.3134                   23666411.6914
 -10395995.63746  -8088936.55943  24423365.5084                   24423370.2274
 -23714701.64548 -18467092.96946  21147905.0234                   21147904.2034
 -27981987.30947 -21791241.66445  22423099.2894                   22423098.1724
  -9307355.67247  -7240867.94945  23254935.3524                   23254937.1254
 -32692174.59448 -25462349.00046  20681339.1724                   20681335.2234
 11  8 29  0  9 30.0000000  0  8G10G12G17G09G05G04G25G02
 -29007176.01648 -22592299.06646  20999186.7424                   20999184.9414
 -25947095.12148 -20206968.24646  20977940.3444                   20977938.3874
 -28461769.62146 -22166080.28144  23672916.7424                   23672917.4924
 -10340927.07446  -8046026.19143  24433844.6564                   24433849.8554
 -23811411.02748 -18542450.87146  21129501.7114                   21129500.5664
 -27927705.10247 -21748943.90245  22433428.5474                   22433428.3834
  -9421172.59047  -7329556.38745  23233276.6254                   23233278.1294
 -32706463.71548 -25473483.37946  20678620.1414                   20678616.0634
 11  8 29  0 10  0.0000000  0  8G10G12G17G09G05G04G25G02
 -28999341.34448 -22586194.12946  21000677.8204                   21000675.7934
 -26009715.58648 -20255763.42646  20966024.0634                   20966022.1094
 -28427383.87946 -22139286.25444  23679459.8134                   23679461.4184
 -10285849.94945  -8003109.18743  24444325.5394                   24444330.7624
 -23907668.83248 -18617456.88746  21111184.0164                   21111183.4774
 -27873368.56647 -21706603.77745  22443768.4454                   22443767.7974
  -9534672.67247  -7417997.94545  23211678.7664                   23211679.6254
 -32720520.53148 -25484436.71546  20675944.8914                   20675941.0944
 11  8 29  0 10 30.0000000  0  8G10G12G17G09G05G04G25G02
 -28990898.66848 -22579615.41446  21002283.8524                   21002282.3204
 -26071798.55148 -20304139.77346  20954210.1334                   20954207.8914
 -28392805.56646 -22112342.21944  23686040.7114                   23686041.3324
 -10230769.43445  -7960189.53943  24454807.8444                   24454812.4264
 -24003474.50048 -18692110.60546  21092953.1644                   21092952.0314
 -27818981.33247 -21664224.16845  22454117.9384                   22454117.7664
  -9647855.00047  -7506191.94545  23190140.6724                   23190141.2974
 -32734348.23048 -25495211.53146  20673313.6564                   20673309.8634
 11  8 29  0 11  0.0000000  0  8G10G12G17G09G05G04G25G02
 -28981849.04348 -22572563.77746  21004006.5234                   21004004.9884
 -26133342.58248 -20352096.17246  20942498.6174                   20942496.6954
 -28358033.84046 -22085247.46144  23692657.7664                   23692658.7274
 -10175688.30945  -7917269.38743  24465289.0554                   24465294.6844
 -24098825.38348 -18766409.94146  21074808.5554                   21074807.2154
 -27764544.37947 -21621805.80145  22464476.8754                   22464476.2584
  -9760716.81647  -7594136.21144  23168663.9144                   23168663.8484
 -32747947.85248 -25505808.61746  20670726.0084                   20670721.7544
 11  8 29  0 11 30.0000000  0  8G10G12G17G09G05G04G25G02
 -28972193.44948 -22565039.93746  21005843.6884                   21005842.0904
 -26194345.41848 -20399630.85547  20930890.3284                   20930888.2464
 -28323067.98046 -22058001.41844  23699311.4064                   23699312.7704
 -10120609.36746  -7874350.93444  24475770.6334                   24475775.5204
 -24193718.82848 -18840352.82446  21056750.4534                   21056749.6914
 -27710058.65247 -21579349.44145  22474844.9924                   22474844.6414
  -9873254.98447  -7681828.27344  23147248.6724                   23147248.9614
 -32761319.90248 -25516228.39546  20668181.3754                   20668177.3324
 11  8 29  0 12  0.0000000  0  8G10G12G17G09G05G04G25G02
 -28961933.69548 -22557045.32446  21007795.8834                   21007794.4104
 -26254806.23448 -20446743.19146  20919385.4304                   20919382.9264
 -28287908.13346 -22030604.21144  23706002.2664                   23706003.1954
 -10065535.78146  -7831436.66044  24486251.5634                   24486256.6684
 -24288153.26248 -18913938.04746  21038780.3134                   21038779.1054
 -27655526.35547 -21536856.76645  22485222.3204                   22485222.2774
  -9985467.40647  -7769266.48045  23125894.0704                   23125895.7854
 -32774466.43748 -25526472.43746  20665679.4064                   20665675.5704
 11  8 29  0 12 30.0000000  0  8G10G12G17G09G05G04G25G02
 -28951071.33248 -22548581.14846  21009863.1484                   21009861.6604
 -26314723.16448 -20493431.71546  20907983.1484                   20907981.0204
 -28252553.85246 -22003055.50044  23712729.8444                   23712731.5004
 -10010470.94547  -7788529.20344  24496729.6334                   24496734.8014
 -24382125.94548 -18987163.46146  21020898.1484                   21020896.6954
 -27600948.82447 -21494328.88345  22495608.3054                   22495607.8014
 -10097351.36347  -7856448.74645  23104603.8674                   23104605.5984
 -32787388.43448 -25536541.50846  20663220.3364                   20663216.4844
 11  8 29  0 13  0.0000000  0  8G10G12G17G09G05G04G25G02
 -28939605.64148 -22539646.84446  21012044.8674                   21012043.4264
 -26374093.16848 -20539694.06246  20896685.5554                   20896683.6564
 -28217002.94946 -21975353.59844  23719494.6564                   23719496.1564
  -9955415.63347  -7745629.15244  24507207.3444                   24507211.5234
 -24475633.21948 -19060026.21946  21003104.2194                   21003103.0044
 -27546325.05147 -21451764.92245  22506002.8054                   22506002.3324
 -10208902.11747  -7943371.35245  23083375.9224                   23083377.4454
 -32800084.75448 -25546434.72346  20660804.5944                   20660800.5704
 11  8 29  0 13 30.0000000  0  8G10G12G17G09G05G04G25G02
 -28927540.96948 -22530245.80146  21014340.7114                   21014339.2424
 -26432917.48048 -20585531.19146  20885491.4924                   20885489.4064
 -28181258.27046 -21947500.67644  23726297.3914                   23726297.9654
  -9900375.93747  -7702741.27044  24517680.8834                   24517685.9454
 -24568675.72348 -19132526.81646  20985398.7114                   20985397.5554
 -27491659.86747 -21409168.71545  22516405.2504                   22516405.0784
 -10320120.14547  -8030034.67645  23062212.0784                   23062213.8484
 -32812559.94548 -25556155.62946  20658430.7344                   20658426.4494
 11  8 29  0 14  0.0000000  0  8G10G12G17G09G05G04G25G02
 -28914876.42248 -22520377.32446  21016750.9614                   21016749.0124
 -26491192.29348 -20630940.12946  20874402.2424                   20874399.9414
 -28145316.78147 -21919494.39544  23733136.9534                   23733138.2814
  -9845352.74647  -7659866.27744  24528151.3834                   24528156.0044
 -24661248.37548 -19204661.29346  20967782.6024                   20967781.2774
 -27436952.14847 -21366539.35945  22526816.0394                   22526814.7544
 -10431000.39147  -8116434.82845  23041112.2894                   23041114.1484
 -32824812.67248 -25565703.19947  20656098.9774                   20656095.0314
 11  8 29  0 14 30.0000000  0  8G10G12G17G09G05G04G25G02
 -28901614.64148 -22510043.47746  21019274.1174                   21019272.8714
 -26548917.26648 -20675920.62546  20863417.4614                   20863415.2544
 -28109179.79347 -21891335.78544  23740013.5474                   23740014.5234
  -9790350.13747  -7617007.30544  24538618.6564                   24538623.3554
 -24753350.39148 -19276429.04346  20950256.1094                   20950254.7624
 -27382204.40647 -21323878.82845  22537234.1884                   22537233.3554
 -10541541.39147  -8202570.62145  23020077.8204                   23020078.8134
 -32836845.42248 -25575079.35946  20653809.3594                   20653805.1564
 11  8 29  0 15  0.0000000  0  8G10G12G17G09G05G04G25G02
 -28887757.75448 -22499245.91046  21021911.4454                   21021909.7424
 -26606091.60247 -20720472.04346  20852537.8754                   20852535.1454
 -28072847.27347 -21863024.82044  23746927.5474                   23746928.6524
  -9735371.78147  -7574167.25043  24549080.2114                   24549084.8364
 -24844980.10248 -19347828.75846  20932819.2814                   20932818.4344
 -27327418.69147 -21281188.69544  22547659.4144                   22547658.8054
 -10651741.01647  -8288440.42245  22999106.8984                   22999108.2504
 -32848659.94148 -25584285.47346  20651561.3834                   20651556.9144
 11  8 29  0 15 30.0000000  0  8G10G12G17G09G05G04G25G02
 -28873306.15648 -22487984.91846  21024661.2034                   21024659.7814
 -26662712.68748 -20764592.35546  20841763.1024                   20841760.4734
 -28036317.68047 -21834560.28944  23753879.2114                   23753880.0744
  -9680419.18047  -7531347.22343  24559537.5944                   24559543.2304
 -24936134.00048 -19418857.70746  20915473.2734                   20915472.7854
 -27272594.75447 -21238468.77344  22558092.0944                   22558091.1254
 -10761595.21947  -8374041.05945  22978202.3524                   22978203.0314
 -32860255.63748 -25593321.07446  20649354.3754                   20649350.5984
 11  8 29  0 16  0.0000000  0  8G10G12G17G09G05G04G25G02
 -28858260.28948 -22476260.86746  21027524.3444                   21027522.7154
 -26718777.47748 -20808279.19146  20831093.9144                   20831091.8054
 -27999589.09447 -21805940.66044  23760867.7504                   23760869.0044
  -9625494.10546  -7488548.68443  24569988.8834                   24569994.6604
 -25026809.10548 -19489513.58646  20898218.6724                   20898217.5314
 -27217732.69547 -21195719.15644  22568532.1254                   22568531.7384
 -10871100.17647  -8459369.58245  22957364.0234                   22957364.9614
 -32871632.74248 -25602186.35246  20647189.2974                   20647185.5944
 11  8 29  0 16 30.0000000  0  8G10G12G17G09G05G04G25G02
 -28842623.03548 -22464075.99646  21030500.0944                   21030498.4144
 -26774287.11348 -20851533.43446  20820531.0944                   20820528.9654
 -27962663.44946 -21777167.49644  23767894.2584                   23767895.6294
  -9570601.43046  -7445775.38743  24580436.0314                   24580440.9694
 -25117004.57448 -19559795.71146  20881054.8834                   20881053.8204
 -27162835.75847 -21152942.36344  22578978.7194                   22578977.5274
 -10980255.16447  -8544425.39545  22936592.4144                   22936593.6174
 -32882794.23448 -25610883.60546  20645065.6334                   20645061.4224
 11  8 29  0 17  0.0000000  0  8G10G12G17G09G05G04G25G02
 -28826396.98448 -22451432.31646  21033587.5784                   21033586.0124
 -26829240.51248 -20894354.25046  20810073.6484                   20810071.6644
 -27925541.25446 -21748241.20344  23774959.2664                   23774960.0394
  -9515744.98046  -7403030.23042  24590874.4144                   24590878.2344
 -25206719.03148 -19629703.02046  20863982.7734                   20863981.2734
 -27107906.09047 -21110140.07044  22589430.9534                   22589430.5904
 -11089058.29747  -8629207.02345  22915887.5704                   22915888.8754
 -32893742.03548 -25619414.35546  20642982.4064                   20642977.8674
 11  8 29  0 17 30.0000000  0  8G10G12G17G09G05G04G25G02
 -28809582.50848 -22438330.12546  21036787.3914                   21036785.9104
 -26883635.15247 -20936739.67246  20799722.8204                   20799720.5784
 -27888220.91846 -21719160.46944  23782061.2664                   23782062.0594
  -9460926.21546  -7360314.50042  24601305.9454                   24601310.3204
 -25295949.27348 -19699233.02747  20847002.9144                   20847001.5234
 -27052943.42647 -21067312.06644  22599890.2114                   22599889.9654
 -11197505.59447  -8713711.36745  22895251.0474                   22895251.8754
 -32904476.17648 -25627778.62146  20640939.6334                   20640935.5004
 11  8 29  0 18  0.0000000  0  8G10G12G17G09G05G04G25G02
 -28792180.93047 -22424770.46546  21040098.7424                   21040097.1804
 -26937469.37148 -20978688.40646  20789478.7274                   20789476.3874
 -27850702.05146 -21689925.07843  23789199.5944                   23789202.0044
  -9406148.06646  -7317630.42243  24611729.8594                   24611734.2584
 -25384693.09448 -19768384.00446  20830115.3754                   20830113.9694
 -26997948.99247 -21024459.32045  22610355.4694                   22610355.6414
 -11305594.30147  -8797936.29345  22874682.6094                   22874683.4534
 -32914997.13748 -25635976.77046  20638937.3984                   20638933.5044
 11  8 29  0 18 30.0000000  0  8G10G12G17G09G05G04G25G02
 -28774194.01248 -22410754.69946  21043521.7664                   21043520.0084
 -26990741.73048 -21020199.32846  20779340.8754                   20779339.0434
 -27812984.30546 -21660534.70743  23796378.0084                   23796379.4454
  -9351413.61346  -7274980.39143  24622145.5784                   24622150.7774
 -25472948.31648 -19837154.25446  20813321.1174                   20813319.7424
 -26942924.23047 -20981582.91844  22620826.4534                   22620826.1994
 -11413321.83247  -8881879.78545  22854182.6094                   22854184.1374
 -32925306.33248 -25644009.91846  20636975.7584                   20636971.7304
 11  8 29  0 19  0.0000000  0  8G10G12G17G09G05G04G25G02
 -28755623.85547 -22396284.45346  21047055.2814                   21047054.2034
 -27043452.31248 -21061272.49646  20769310.7974                   20769308.5234
 -27775067.86746 -21630989.48443  23803592.8984                   23803594.0514
  -9296726.23046  -7232367.09043  24632553.3524                   24632557.4924
 -25560713.35548 -19905542.55146  20796619.9224                   20796618.5004
 -26887870.59847 -20938684.03544  22631302.7584                   22631302.7664
 -11520686.08247  -8965540.20745  22833751.9534                   22833753.1134
 -32935405.44548 -25651879.35546  20635054.1804                   20635049.6724
 11  8 29  0 19 30.0000000  0  8G10G12G17G09G05G04G25G02
 -28736470.25448 -22381359.57846  21050700.1334                   21050699.0004
 -27095597.32448 -21101904.96546  20759387.4844                   20759385.5904
 -27736950.66046 -21601287.82443  23810846.4304                   23810848.5124
  -9242087.28946  -7189791.44943  24642950.1174                   24642955.3984
 -25647984.30147 -19973545.82846  20780012.9384                   20780011.3914
 -26832787.86347 -20895762.48044  22641784.8284                   22641784.5274
 -11627682.52347  -9048914.03545  22813391.1644                   22813391.7894
 -32945293.76648 -25659584.54346  20633172.2504                   20633168.2274
 11  8 29  0 20  0.0000000  0  8G10G12G17G09G05G04G25G02
 -28716736.95347 -22365982.98446  21054455.5864                   21054454.0944
 -27147177.86348 -21142097.58646  20749572.1174                   20749570.1054
 -27698634.59445 -21571431.25444  23818138.0864                   23818139.2154
  -9187501.46947  -7147257.25843  24653338.5164                   24653343.0164
 -25734760.94948 -20041163.94147  20763499.8204                   20763498.1414
 -26777678.96147 -20852820.51645  22652271.8054                   22652271.8874
 -11734310.62547  -9132000.83245  22793100.6644                   22793101.9654
 -32954974.30948 -25667127.81646  20631330.0634                   20631325.9534
 11  8 29  0 20 30.0000000  0  8G10G12G17G09G05G04G25G02
 -28696426.27348 -22350156.48846  21058320.3674                   21058319.1294
 -27198192.85948 -21181849.52747  20739864.3594                   20739862.2384
 -27660119.77346 -21541419.77743  23825467.7274                   23825469.2814
  -9132971.94546  -7104766.92243  24663715.6094                   24663720.1684
 -25821042.00848 -20108395.89146  20747080.7504                   20747079.6174
 -26722545.65247 -20809859.54744  22662763.1564                   22662763.0004
 -11840568.02047  -9214798.77045  22772880.8594                   22772881.5354
 -32964448.66848 -25674510.43746  20629527.4774                   20629523.3204
 11  8 29  0 21  0.0000000  0  8G10G12G17G09G05G04G25G02
 -28675538.90248 -22333880.61746  21062295.1174                   21062293.4574
 -27248639.97748 -21221158.96546  20730264.7974                   20730262.4734
 -27621404.82046 -21511252.32843  23832834.5634                   23832836.2664
  -9078500.58646  -7062321.91444  24674080.8834                   24674086.3714
 -25906824.02048 -20175238.96546  20730756.5554                   20730755.6684
 -26667387.94947 -20766879.57444  22673259.2274                   22673259.4144
 -11946451.15247  -9297305.09845  22752731.4534                   22752732.3914
 -32973716.66848 -25681732.27046  20627763.8594                   20627759.0204
 11  8 29  0 21 30.0000000  0  8G10G12G17G09G05G04G25G02
 -27078657.85947 -21089557.73846  21366171.5784                   21366170.3594
 -25723097.10948 -20032424.26246  21020565.8284                   21020563.6414
 -26007071.21146 -20253330.13743  24140031.6724                   24140033.1334
  -7448672.67646  -5792326.33244  24984226.8444                   24984232.1024
 -24416682.90248 -19014089.98846  21014321.0864                   21014319.7854
 -25036789.44547 -19496283.37544  22983552.2194                   22983551.9224
 -10476534.43447  -8151915.41045  23032447.4454                   23032448.3554
 -31407359.80148 -24461194.44946  20925831.3284                   20925827.1134
 11  8 29  0 22  0.0000000  0  8G10G12G17G09G05G04G25G02
 -27056621.65647 -21072386.67246  21370364.5704                   21370363.4224
 -25772405.11348 -20070846.07846  21011182.7034                   21011180.6294
 -25967954.76646 -20222849.87144  24147475.0474                   24147477.5784
  -7394326.00446  -5749978.45744  24994568.2344                   24994574.0634
 -24501460.71148 -19080150.57046  20998188.5164                   20998187.2194
 -24981586.16847 -19453267.87944  22994056.6254                   22994056.8094
 -10581660.87947  -8233832.09445  23012442.2344                   23012443.1094
 -31416218.44948 -24468097.28946  20924145.6174                   20924141.0864
 11  8 29  0 22 30.0000000  0  7G10G12G17G05G04G25G02
 -27034012.88747 -21054769.45746  21374666.8444                   21374665.9534
 -25821140.55148 -20108821.73446  21001908.4924                   21001906.4614
 -25928636.43747 -20192212.25044  24154958.4384                   24154959.2894
 -24585732.58648 -19145816.90646  20982151.9534                   20982150.8524
 -24926360.87147 -19410235.21945  23004566.2814                   23004566.1374
 -10686404.12547  -8315450.18445  22992510.2194                   22992510.9774
 -31424873.10248 -24474841.16446  20922498.2664                   20922494.5864
 11  8 29  0 23  0.0000000  0  7G10G12G17G05G04G25G02
 -27010831.03947 -21036705.68746  21379078.4064                   21379077.0904
 -25869300.46548 -20146348.93746  20992744.2194                   20992742.2584
 -25889113.44547 -20161415.15244  24162478.9614                   24162480.4884
 -24669493.87948 -19211085.40246  20966213.0084                   20966211.6414
 -24871112.19547 -19367184.35544  23015079.5864                   23015079.1334
 -10790759.09447  -8396765.71145  22972652.0474                   22972653.1914
 -31433322.43448 -24481425.05546  20920890.9774                   20920886.3404
 11  8 29  0 23 30.0000000  0  7G10G12G17G05G04G25G02
 -26987071.33248 -21018191.63346  21383599.9224                   21383598.7194
 -25916876.69548 -20183421.32046  20983690.8204                   20983688.6334
 -25849379.05147 -20130453.36744  24170040.2894                   24170041.4454
 -24752736.40248 -19275949.66046  20950372.2504                   20950371.0004
 -24815834.93447 -19324111.20344  23025599.2034                   23025598.4064
 -10894716.68447  -8477771.59845  22952869.8054                   22952870.6684
 -31441560.72748 -24487844.49246  20919323.0864                   20919319.0704
 11  8 29  0 24  0.0000000  0  7G10G12G17G05G04G25G02
 -26962730.15248 -20999224.48446  21388231.8984                   21388230.5234
 -25963862.92648 -20220033.96546  20974749.5474                   20974747.3204
 -25809427.67247 -20099322.49244  24177643.3364                   24177644.3754
 -24835452.89848 -19340404.02746  20934631.7894                   20934630.1994
 -24760524.80947 -19281012.45344  23036124.0554                   23036123.7274
 -10998268.90647  -8558461.61745  22933164.4534                   22933164.8014
 -31449583.82448 -24494096.25046  20917796.3594                   20917792.2234
 11  8 29  0 24 30.0000000  0  7G10G12G17G05G04G25G02
 -26937812.48048 -20979808.12146  21392973.3524                   21392971.9734
 -26010261.02748 -20256188.32446  20965920.1254                   20965918.1604
 -25769262.10947 -20068024.71544  24185286.5944                   24185287.3914
 -24917644.08248 -19404449.05946  20918991.6024                   20918990.0594
 -24705185.41047 -19237890.89544  23046654.3134                   23046654.5664
 -11101416.05947  -8638835.98845  22913536.1724                   22913536.7664
 -31457395.83248 -24500183.52046  20916309.7814                   20916305.7234
 11  8 29  0 25  0.0000000  0  7G10G12G17G05G04G25G02
 -26912325.37548 -20959948.04746  21397823.7344                   21397822.2344
 -26056075.73048 -20291888.09446  20957202.0084                   20957199.7274
 -25728887.58647 -20036564.12544  24192969.1954                   24192970.5984
 -24999313.64548 -19468087.62946  20903449.8754                   20903448.5124
 -24649823.69547 -19194751.93744  23057189.4064                   23057188.7664
 -11204161.21947  -8718897.12545  22893984.2814                   22893985.5124
 -31465003.16448 -24506111.31246  20914862.0864                   20914858.0984
 11  8 29  0 25 30.0000000  0  7G10G12G17G05G04G25G02
 -26886272.39148 -20939647.02746  21402781.3524                   21402779.7074
 -26101306.91448 -20327133.16846  20948595.0394                   20948592.4574
 -25688305.21146 -20004941.55944  24200691.8134                   24200692.8794
 -25080461.10548 -19531319.36746  20888007.8284                   20888006.5824
 -24594442.17647 -19151597.57044  23067727.8594                   23067728.0234
 -11306503.09847  -8798644.01645  22874509.0314                   22874510.4574
 -31472408.15248 -24511881.42646  20913452.9144                   20913449.2194
 11  8 29  0 26  0.0000000  0  7G10G12G17G05G04G25G02
 -26859657.21148 -20918907.92646  21407845.9454                   21407844.4384
 -26145955.75048 -20361924.46546  20940098.2974                   20940096.1604
 -25647516.83646 -19973158.50444  24208454.1334                   24208455.5044
 -25161086.82448 -19594144.56246  20872665.2424                   20872664.2704
 -24539043.60546 -19108429.89544  23078269.7894                   23078269.7344
 -11408440.97347  -8878076.10545  22855111.0634                   22855112.2974
 -31479614.05548 -24517496.40246  20912081.7114                   20912077.8674
 11  8 29  0 26 30.0000000  0  7G10G12G17G05G04G25G02
 -26832482.18748 -20897732.58246  21413016.7584                   21413015.6564
 -26190021.62948 -20396261.51246  20931713.1024                   20931710.9734
 -25606522.76646 -19941215.18744  24216254.9534                   24216256.1214
 -25241189.09848 -19656561.87147  20857422.5554                   20857421.3054
 -24483629.48847 -19065250.12944  23088815.2344                   23088815.0234
 -11509972.71548  -8957191.72345  22835790.7274                   22835791.3284
 -31486621.93748 -24522957.07846  20910748.1644                   20910744.2424
 11  8 29  0 27  0.0000000  0  7G10G12G17G05G04G25G02
 -26804752.27048 -20876124.86346  21418293.8914                   21418292.5744
 -26233506.34448 -20430145.70746  20923438.0394                   20923435.8444
 -25565325.47346 -19909113.50844  24224094.2664                   24224095.5084
 -25320768.94948 -19718572.09046  20842279.0634                   20842278.0434
 -24428203.82047 -19022061.35544  23099362.7344                   23099362.1174
 -11611098.58247  -9035991.07045  22816547.0314                   22816547.6844
 -31493435.88748 -24528266.64146  20909451.5474                   20909447.8324
 11  8 29  0 27 30.0000000  0  7G10G12G17G05G04G25G02
 -26776467.80548 -20854085.02746  21423676.2664                   21423674.6294
 -26276407.58648 -20463575.24646  20915274.2274                   20915271.9844
 -25523923.21546 -19876852.09044  24231972.6954                   24231974.5664
 -25399822.78548 -19780172.44947  20827235.6024                   20827234.0904
 -24372765.81247 -18978862.94544  23109912.0784                   23109911.7114
 -11711814.68747  -9114471.12545  22797381.2504                   22797381.6724
 -31500055.33248 -24533424.64546  20908191.9144                   20908187.7774
 11  8 29  0 28  0.0000000  0  7G10G12G17G05G04G25G02
 -26747634.56648 -20831617.57046  21429162.8754                   21429161.3914
 -26318728.03148 -20496552.22746  20907221.0164                   20907218.9024
 -25482319.28546 -19844433.53144  24239890.3754                   24239891.4694
 -25478352.94148 -19841364.73446  20812291.7734                   20812290.2734
 -24317320.20747 -18935658.65244  23120463.3364                   23120463.0824
 -11812122.05147  -9192632.68045  22778293.2814                   22778293.8204
 -31506485.06248 -24538434.81246  20906968.1024                   20906964.2734
 11  8 29  0 28 30.0000000  0  7G10G12G17G05G04G25G02
 -26718251.56248 -20808721.73446  21434754.8204                   21434752.6524
 -26360463.86748 -20529073.66446  20899279.1564                   20899276.8754
 -25440511.19146 -19811855.88344  24247845.5864                   24247847.7234
 -25556354.69548 -19902145.28946  20797448.3284                   20797446.9064
 -24261865.66847 -18892447.39144  23131015.4224                   23131015.6134
 -11912015.35247  -9270471.60545  22759283.9304                   22759285.2704
 -31512723.24648 -24543295.73046  20905781.1254                   20905777.2464
 11  8 29  0 29  0.0000000  0  7G10G12G17G05G04G25G02
 -26688321.66048 -20785399.74645  21440450.2504                   21440448.4264
 -26401615.75848 -20561140.07446  20891447.8754                   20891445.8984
 -25398499.69146 -19779119.73444  24255840.3054                   24255841.7194
 -25633827.20348 -19962513.43046  20782705.8594                   20782704.7704
 -24206403.61347 -18849230.24244  23141570.4694                   23141569.6334
 -12011492.96947  -9347986.60245  22740354.2034                   22740355.0394
 -31518771.84848 -24548008.93746  20904630.1484                   20904626.3364
 11  8 29  0 29 30.0000000  0  7G10G12G17G05G04G25G02
 -26657846.98448 -20761653.23845  21446249.4844                   21446248.0124
 -26442182.09848 -20592750.22346  20883728.5164                   20883726.2074
 -25356284.06246 -19746224.50044  24263873.5004                   24263875.2274
 -25710768.13348 -20022467.35946  20768064.5864                   20768063.1334
 -24150934.77047 -18806007.84844  23152125.1954                   23152125.2704
 -12110552.03947  -9425175.46945  22721503.8524                   22721504.5314
 -31524631.64848 -24552575.01246  20903515.1724                   20903511.2814
 11  8 29  0 30  0.0000000  0  7G10G12G17G05G04G25G02
 -26626826.94548 -20737481.79746  21452152.1954                   21452150.8054
 -26482159.16848 -20623901.19946  20876120.8914                   20876118.8834
 -25313861.25046 -19713167.84043  24271946.5944                   24271948.6214
 -25787173.16048 -20082003.70347  20753525.3054                   20753523.7894
 -24095457.43447 -18762778.80544  23162682.8754                   23162682.9224
 -12209187.43047  -9502034.19145  22702733.7194                   22702734.8554
 -31530300.93448 -24556992.63746  20902436.2894                   20902432.3134
 11  8 29  0 30 30.0000000  0  7G10G12G17G05G04G25G02
 -26595265.70748 -20712888.62945  21458157.9064                   21458156.1054
 -26521548.65248 -20654594.30946  20868625.5704                   20868623.3164
 -25271233.77346 -19679951.66043  24280058.0004                   24280060.1334
 -25863043.33648 -20141123.28147  20739087.4454                   20739086.1884
 -24039974.97747 -18719545.79744  23173240.4924                   23173240.6954
 -12307398.86747  -9578562.56645  22684045.0704                   22684045.7384
 -31535782.92248 -24561264.31246  20901392.9534                   20901389.0514
 11  8 29  0 31  0.0000000  0  7G10G12G17G05G04G25G02
 -26563164.77348 -20687874.92645  21464266.6564                   21464265.2034
 -26560348.93448 -20684828.30946  20861242.0004                   20861239.9964
 -25228400.66846 -19646575.25843  24288209.1254                   24288210.7664
 -25938376.35248 -20199824.28146  20724752.0314                   20724750.4454
 -23984487.51247 -18676308.87944  23183799.7734                   23183799.3324
 -12405183.28947  -9654758.22745  22665436.8284                   22665438.3834
 -31541077.65248 -24565390.07446  20900385.3364                   20900381.7974
 11  8 29  0 31 30.0000000  0  7G10G12G17G05G04G25G02
 -26530527.12547 -20662443.00846  21470477.5314                   21470475.7304
 -26598560.85248 -20714603.83646  20853970.3754                   20853968.5824
 -25185362.91846 -19613039.38343  24296399.3984                   24296401.0864
 -26013171.28148 -20258106.00447  20710518.9694                   20710517.2504
 -23928996.90647 -18633069.51644  23194359.0944                   23194358.8954
 -12502539.01247  -9730619.82845  22646911.4064                   22646912.2504
 -31546187.34048 -24569371.65246  20899413.4924                   20899409.1254
 11  8 29  0 32  0.0000000  0  7G10G12G17G05G04G25G02
 -26497354.50047 -20636594.22746  21476789.6804                   21476788.1334
 -26636182.72748 -20743919.59046  20846811.2974                   20846809.5944
 -25142119.87946 -19579343.55143  24304628.8594                   24304629.2114
 -26087425.93448 -20315966.73846  20696388.7734                   20696387.2304
 -23873503.64846 -18589828.08644  23204918.9924                   23204918.8244
 -12599463.17247  -9806145.15245  22628466.6884                   22628468.2974
 -31551112.44148 -24573209.39846  20898476.0864                   20898472.2934
 11  8 29  0 32 30.0000000  0  7G10G12G17G05G04G25G02
 -26463649.62547 -20610330.71145  21483204.0394                   21483202.3594
 -26673214.73048 -20772775.70346  20839764.5234                   20839762.2624
 -25098672.02046 -19545488.08243  24312895.3134                   24312897.3014
 -26161139.63748 -20373405.94547  20682361.4144                   20682359.8634
 -23818009.49647 -18546585.93744  23215479.4144                   23215479.3094
 -12695954.02347  -9881332.82045  22610105.6174                   22610106.7074
 -31555855.03148 -24576904.93446  20897573.4064                   20897569.6994
 11  8 29  0 33  0.0000000  0  7G10G12G17G05G04G25G02
 -26429412.70748 -20583652.60946  21489719.0394                   21489717.2624
 -26709654.14148 -20801170.06246  20832830.2894                   20832828.1484
 -25055017.20746 -19511471.39143  24321203.0944                   24321205.2424
 -26234308.41848 -20430420.53147  20668437.6954                   20668436.0704
 -23762513.04746 -18503342.02344  23226040.5234                   23226039.8134
 -12792007.05147  -9956179.32845  22591827.2114                   22591828.3444
 -31560413.50448 -24580456.99646  20896705.9064                   20896701.7704
 11  8 29  0 33 30.0000000  0  7G10G12G17G05G04G25G02
 -26394645.44147 -20556561.25045  21496334.8674                   21496333.3364
 -26745499.74248 -20829101.69946  20826008.9384                   20826007.1024
 -25011155.09846 -19477293.16043  24329549.7584                   24329551.4574
 -26306930.25448 -20487008.93447  20654618.3444                   20654616.5234
 -23707015.00446 -18460096.86744  23236601.1564                   23236600.5634
 -12887619.40247 -10030682.44545  22573632.7814                   22573633.7304
 -31564788.32047 -24583865.95746  20895873.2894                   20895869.5704
 11  8 29  0 34  0.0000000  0  7G10G12G17G05G04G25G02
 -26359353.91447 -20529061.36346  21503050.7114                   21503049.2464
 -26780754.85247 -20856573.22746  20819300.6564                   20819298.0274
 -24967089.66846 -19442956.49643  24337935.5314                   24337936.0004
 -26379007.99648 -20543173.36747  20640902.2814                   20640900.8954
 -23651520.17246 -18416854.20344  23247160.8834                   23247161.5744
 -12982792.58647 -10104843.35545  22555521.8284                   22555523.1174
 -31568984.70347 -24587135.87946  20895075.0784                   20895070.9654
 11  8 29  0 34 30.0000000  0  7G10G12G17G05G04G25G02
 -26323535.20747 -20501150.71546  21509866.5944                   21509865.5594
 -26815413.67247 -20883580.09846  20812704.9224                   20812702.9184
 -24922815.27046 -19408457.03143  24346360.6884                   24346361.6684
 -26450534.58248 -20598908.32447  20627291.2344                   20627289.9184
 -23596023.96546 -18373610.47744  23257722.0164                   23257722.5514
 -13077518.86347 -10178656.02045  22537495.8054                   22537497.0124
 -31572998.06647 -24590263.18446  20894311.0314                   20894307.1024
 11  8 29  0 35  0.0000000  0  7G10G12G17G05G04G25G02
 -26287195.32047 -20472833.93445  21516781.8984                   21516780.8324
 -26849479.75848 -20910125.10546  20806222.4224                   20806219.9454
 -24878336.17646 -19373798.00843  24354824.2734                   24354825.7344
 -26521512.88748 -20654216.05547  20613784.8834                   20613783.0164
 -23540531.36446 -18330369.57444  23268281.5864                   23268281.6374
 -13171800.03547 -10252121.84845  22519554.7194                   22519555.9454
 -31576833.79748 -24593252.07446  20893581.3524                   20893577.7464
 11  8 29  0 35 30.0000000  0  7G10G12G17G05G04G25G02
 -26250336.00048 -20444112.40645  21523796.1954                   21523794.8134
 -26882951.89548 -20936207.30146  20799852.7274                   20799850.5044
 -24833651.34446 -19338978.72343  24363327.9694                   24363328.8244
 -26591940.33648 -20709094.53946  20600382.6174                   20600380.9804
 -23485042.38346 -18287131.44144  23278840.7734                   23278841.4184
 -13265632.74647 -10325238.21945  22501699.3364                   22501699.7734
 -31580491.96148 -24596102.61346  20892885.4924                   20892881.1174
 11  8 29  0 36  0.0000000  0  7G10G12G17G05G04G25G02
 -26212958.11747 -20414986.80145  21530908.8914                   21530907.2154
 -26915827.76247 -20961824.85946  20793596.9064                   20793594.4654
 -24788759.32846 -19303997.98443  24371871.2034                   24371872.0204
 -26661814.29348 -20763541.73047  20587086.0474                   20587084.4614
 -23429556.62546 -18243895.83244  23289399.0164                   23289399.5124
 -13359013.40647 -10398002.33646  22483929.1254                   22483930.1804
 -31583972.05147 -24598814.37146  20892223.1884                   20892219.2194
 11  8 29  0 36 30.0000000  0  7G10G12G17G05G04G25G02
 -26175066.81647 -20385461.11746  21538119.3914                   21538118.3594
 -26948110.10547 -20986979.94146  20787453.7814                   20787451.4184
 -24743663.02046 -19268857.99643  24380451.6804                   24380453.5434
 -26731135.89848 -20817558.52347  20573894.4614                   20573892.8714
 -23374077.58646 -18200665.44944  23299957.3284                   23299956.9614
 -13451942.50047 -10470414.59045  22466245.5704                   22466246.2274
 -31587277.95347 -24601390.42246  20891594.2584                   20891590.2074
 11  8 29  0 37  0.0000000  0  8G10G12G17G29G05G04G25G02
 -26136663.18447 -20355536.22746  21545427.5164                   21545426.5234
 -26979797.36748 -21011671.32046  20781423.8204                   20781421.7344
 -24698361.44547 -19233558.11743  24389072.8284                   24389074.9024
   1420689.17256   1116642.73053  24634407.7584                   24634407.3404
 -26799902.84448 -20871143.11747  20560808.4144                   20560807.0634
 -23318605.03946 -18157440.16444  23310513.5004                   23310513.1254
 -13544416.40647 -10542472.13345  22448648.4064                   22448648.9844
 -31590409.32848 -24603830.46146  20890998.2194                   20890994.5744
 11  8 29  0 37 30.0000000  0  8G10G12G17G29G05G04G25G02
 -26097759.15647 -20325221.42245  21552830.5084                   21552829.2114
 -27010898.19148 -21035905.73046  20775505.5704                   20775503.3204
 -24652863.60247 -19198105.24643  24397731.2034                   24397732.9804
   1314848.92646   1034169.84444  24614266.8444                   24614266.3094
 -26868123.24248 -20924301.82447  20547826.7504                   20547825.1414
 -23263149.24647 -18114227.90244  23321066.1334                   23321066.0864
 -13636442.19147 -10614180.51245  22431135.9064                   22431136.7624
 -31593376.57848 -24606142.60946  20890433.6094                   20890429.4964
 11  8 29  0 38  0.0000000  0  8G10G12G17G29G05G04G25G02
 -26058360.54748 -20294521.22345  21560328.0394                   21560326.3484
 -27041416.03948 -21059685.87146  20769698.1564                   20769696.1454
 -24607173.37946 -19162502.48443  24406424.6804                   24406426.5984
   1208928.83247    951634.72344  24594110.8054                   24594110.7974
 -26935798.89548 -20977036.05147  20534948.6484                   20534946.6524
 -23207714.41846 -18071031.96544  23331615.4534                   23331614.7234
 -13728021.26647 -10685540.78945  22413709.3134                   22413710.0944
 -31596184.24648 -24608330.41446  20889899.1174                   20889895.3954
 11  8 29  0 38 30.0000000  0  8G10G12G17G29G05G04G25G02
 -26018464.69947 -20263433.56645  21567919.8364                   21567918.1844
 -27071345.52748 -21083007.55946  20764002.6254                   20764000.8634
 -24561285.71947 -19126745.83644  24415157.5634                   24415159.1454
   1102934.74647    869041.93844  24573940.8594                   24573940.3204
 -27002923.98048 -21029341.26647  20522175.0554                   20522172.9574
 -23152296.50047 -18027849.22344  23342160.5234                   23342160.9104
 -13819146.18447 -10756547.17645  22396368.8524                   22396369.4344
 -31598828.39548 -24610390.79346  20889395.9454                   20889391.6724
 11  8 29  0 39  0.0000000  0  8G10G12G17G29G05G04G25G02
 -25978070.34048 -20231957.45745  21575606.5084                   21575605.4734
 -27100682.60248 -21105867.62546  20758420.0634                   20758418.2384
 -24515196.95746 -19090832.50044  24423927.7114                   24423930.0044
    996870.96147    786394.82044  24553757.6024                   24553756.9734
 -27069493.44148 -21081213.52747  20509507.0084                   20509505.2114
 -23096892.63347 -17984677.43744  23352704.1564                   23352704.1724
 -13909811.04747 -10827195.08245  22379115.7814                   22379116.5474
 -31601306.31248 -24612321.63746  20888924.6954                   20888920.4694
 11  8 29  0 39 30.0000000  0  8G10G12G17G29G05G04G25G02
 -25937177.99248 -20200093.30145  21583388.0704                   21583386.3244
 -27129425.11748 -21128264.38746  20752950.5394                   20752948.3914
 -24468905.53147 -19054761.28144  24432736.9454                   24432738.5664
    890739.83647    703695.25444  24533561.7114                   24533561.2584
 -27135504.22348 -21132650.44947  20496945.7664                   20496943.9574
 -23041502.02747 -17941515.98444  23363244.5164                   23363244.5824
 -14000011.92647 -10897481.45345  22361950.8674                   22361951.6724
 -31603616.75048 -24614121.96946  20888484.6724                   20888480.8674
 11  8 29  0 40  0.0000000  0  8G10G12G17G29G05G04G25G02
 -25895788.48848 -20167841.75445  21591264.5784                   21591263.1334
 -27157571.55948 -21150196.68746  20747594.4384                   20747592.8444
 -24422409.62947 -19018530.72744  24441584.9774                   24441586.4574
    784543.51647    620944.85544  24513353.5864                   24513352.2034
 -27200953.77748 -21183650.05947  20484491.2734                   20484488.9774
 -22986123.76647 -17898364.13744  23373782.9614                   23373782.6454
 -14089745.03547 -10967403.30545  22344875.5164                   22344876.2974
 -31605759.42248 -24615791.57846  20888077.1094                   20888073.1454
 11  8 29  0 40 30.0000000  0  8G10G12G17G29G05G04G25G02
 -25853903.39548 -20135204.02745  21599234.7114                   21599233.7934
 -27185120.28148 -21171663.22346  20742352.1414                   20742349.8164
 -24375708.67646 -18982140.38344  24450471.6954                   24450473.0984
    678283.88347    538145.17243  24493132.6724                   24493132.0944
 -27265839.73048 -21234210.50047  20472143.5474                   20472141.6564
 -22930757.58647 -17855221.71944  23384318.5474                   23384318.9614
 -14179007.07847 -11036958.10946  22327889.5784                   22327890.0434
 -31607734.07048 -24617330.25446  20887701.6414                   20887697.3634
 11  8 29  0 41  0.0000000  0  8G10G12G17G29G05G04G25G02
 -25811524.27347 -20102181.35545  21607299.1954                   21607298.5124
 -27212070.77348 -21192663.60246  20737223.8914                   20737221.2704
 -24328802.06246 -18945589.79344  24459397.4454                   24459399.5514
    571962.13346    455297.07043  24472900.1254                   24472898.9574
 -27330160.14848 -21284330.26247  20459903.8284                   20459902.0944
 -22875403.60946 -17812088.78944  23394852.4144                   23394852.1174
 -14267795.28947 -11106143.69545  22310993.6644                   22310994.5864
 -31609541.37948 -24618738.53546  20887357.4844                   20887353.3054
 11  8 29  0 41 30.0000000  0  7G10G12G29G05G04G25G02
 -25768654.59848 -20068776.43045  21615457.3914                   21615456.1174
 -27238423.21148 -21213197.98047  20732208.9144                   20732206.8874
    465578.75846    372400.95343  24452656.0084                   24452655.0434
 -27393914.34448 -21334008.81647  20447771.5004                   20447769.7774
 -22820063.25046 -17768966.49644  23405383.0314                   23405383.7384
 -14356107.77347 -11174958.57045  22294188.5554                   22294189.0434
 -31611182.43448 -24620017.26646  20887045.0554                   20887040.9024
 11  8 29  0 42  0.0000000  0  7G10G12G29G05G04G25G02
 -25725294.92248 -20034989.68745  21623708.3984                   21623706.6484
 -27264175.81248 -21233264.94146  20727308.5474                   20727306.3134
    359136.05146    289458.68843  24432400.3444                   24432399.9734
 -27457099.80548 -21383244.20747  20435748.1174                   20435746.0124
 -22764735.40247 -17725853.96144  23415911.1484                   23415911.9844
 -14443940.84047 -11243399.88746  22277474.2344                   22277474.8484
 -31612656.67248 -24621166.02346  20886764.6884                   20886760.7974
 11  8 29  0 42 30.0000000  0  7G10G12G29G05G04G25G02
 -25681438.77347 -20000816.06645  21632053.9384                   21632052.5394
 -27289319.77048 -21252857.64846  20722523.8594                   20722521.3594
    252643.10946    206477.22743  24412135.0704                   24412134.6604
 -27519706.55148 -21432028.63747  20423834.1484                   20423832.2114
 -22709412.19547 -17682745.03944  23426439.0234                   23426439.6524
 -14531283.51247 -11311459.05946  22260853.0864                   22260854.3284
 -31613956.37948 -24622178.76246  20886517.4384                   20886513.3674
 11  8 29  0 43  0.0000000  0  7G10G12G29G05G04G25G02
 -25637085.50448 -19966255.09445  21640493.7974                   21640492.5234
 -27313851.16048 -21271973.02346  20717855.6024                   20717853.3244
    146104.34046    123460.05543  24391861.8914                   24391860.8284
 -27581730.19548 -21480358.69947  20412031.2974                   20412029.7304
 -22654090.98047 -17639637.66044  23436966.5704                   23436966.9494
 -14618130.29347 -11379131.84046  22244327.0314                   22244327.6214
 -31615078.73048 -24623053.29746  20886303.4454                   20886299.6054
 11  8 29  0 43 30.0000000  0  7G10G12G29G05G04G25G02
 -25592241.16848 -19931311.46945  21649027.8284                   21649026.0664
 -27337773.74648 -21290614.00446  20713303.2274                   20713301.1484
     39516.98846     40405.08243  24371578.1334                   24371578.1804
 -27643173.06248 -21528236.21947  20400339.0394                   20400337.3594
 -22598776.03547 -17596535.16444  23447492.9924                   23447493.0784
 -14704482.64547 -11446419.34445  22227894.6024                   22227895.5234
 -31616028.39548 -24623793.27746  20886122.7344                   20886118.7424
 11  8 29  0 44  0.0000000  0  7G10G12G29G05G04G25G02
 -25546911.54748 -19895989.69545  21657653.6804                   21657652.4924
 -27361090.90248 -21308783.23046  20708866.1414                   20708864.1374
    -67121.73446    -42689.91043  24351285.2424                   24351285.4184
 -27704037.53148 -21575663.02347  20388757.2274                   20388755.1954
 -22543471.08647 -17553440.49644  23458016.6414                   23458017.8954
 -14790341.57047 -11513322.36746  22211555.9454                   22211556.7894
 -31616809.55148 -24624401.94946  20885974.3984                   20885970.1054
 11  8 29  0 44 30.0000000  0  7G10G12G29G05G04G25G02
 -25501100.38748 -19860292.69145  21666371.2194                   21666369.2974
 -27383803.79348 -21326481.59446  20704543.9924                   20704541.9184
   -173812.05546   -125825.12143  24330982.7504                   24330983.1214
 -27764323.84848 -21622639.33647  20377284.6564                   20377283.2624
 -22488178.60947 -17510355.50044  23468539.0084                   23468539.1524
 -14875706.46547 -11579840.44146  22195312.3364                   22195312.6174
 -31617424.43448 -24624881.07046  20885857.3674                   20885853.4384
 11  8 29  0 45  0.0000000  0  7G10G12G29G05G04G25G02
 -25454812.64548 -19824224.32445  21675179.2734                   21675178.2584
 -27405914.76248 -21343710.94146  20700336.1954                   20700334.3984
   -280555.58247   -209001.82444  24310671.2894                   24310670.3834
 -27824033.49248 -21669166.28147  20365922.3054                   20365920.5704
 -22432901.62547 -17467282.60544  23479057.6094                   23479058.6914
 -14960577.47747 -11645973.66846  22179160.9924                   22179162.0824
 -31617876.31648 -24625233.18046  20885771.1484                   20885767.4184
 11  8 29  0 45 30.0000000  0  7G10G12G29G05G04G25G02
 -25408053.36348 -19787788.52045  21684077.3834                   21684076.1884
 -27427426.22348 -21360473.12547  20696243.0864                   20696240.8674
   -387353.96547   -292221.22744  24290347.5474                   24290347.3754
 -27883167.85948 -21715244.96547  20354669.6094                   20354667.6484
 -22377642.69947 -17424223.77044  23489572.6564                   23489573.9884
 -15044954.89847 -11711722.28945  22163105.0634                   22163105.3984
 -31618168.40248 -24625460.75846  20885715.7664                   20885711.9924
 11  8 29  0 46  0.0000000  0  7G10G12G29G05G04G25G02
 -25360825.01647 -19750987.23045  21693064.4844                   21693063.6134
 -27448338.33648 -21376768.29346  20692263.6254                   20692261.2154
   -494206.73447   -375483.03544  24270014.2894                   24270013.7194
 -27941726.03148 -21760874.67247  20343526.2274                   20343524.3364
 -22322403.01247 -17381179.95344  23500085.1094                   23500085.8094
 -15128836.84447 -11777084.83645  22147142.6484                   22147143.3634
 -31618301.71148 -24625564.63746  20885690.1644                   20885686.0164
 11  8 29  0 46 30.0000000  0  7G10G12G29G05G04G25G02
 -25313130.64848 -19713822.79345  21702140.8444                   21702139.2894
 -27468651.53948 -21392596.78146  20688398.1174                   20688396.1414
   -601113.14147   -458786.63744  24249670.4304                   24249669.6644
 -27999707.34048 -21806054.86347  20332492.4224                   20332491.1134
 -22267183.42247 -17338151.74244  23510592.4304                   23510593.5514
 -15212221.55147 -11842059.91046  22131274.7814                   22131275.8954
 -31618277.39148 -24625545.68046  20885694.8834                   20885691.2704
 11  8 29  0 47  0.0000000  0  7G10G12G29G05G04G25G02
 -25264970.41848 -19676295.34045  21711304.9304                   21711303.7544
 -27488363.27048 -21407956.58646  20684646.8674                   20684644.8444
   -708070.15246   -542129.65644  24229317.3284                   24229316.5864
 -28057108.56648 -21850783.04747  20321569.4924                   20321568.0824
 -22211982.47747 -17295138.09844  23521097.2274                   23521097.9304
 -15295104.61747 -11906644.11746  22115503.0394                   22115503.7704
 -31618094.00848 -24625402.78146  20885729.7664                   20885725.5824
 11  8 29  0 47 30.0000000  0  7G10G12G29G05G04G25G02
 -25216347.64848 -19638407.46545  21720558.0234                   21720556.4534
 -27507474.73848 -21422848.65646  20681010.1804                   20681007.8164
   -815077.79746   -625512.17644  24208954.1254                   24208953.9734
 -28113930.12948 -21895059.55147  20310756.6094                   20310755.1954
 -22156801.43047 -17252139.94544  23531598.1094                   23531598.7074
 -15377484.85947 -11970836.50446  22099826.5634                   22099827.1454
 -31617753.28948 -24625137.28946  20885794.5634                   20885790.8054
 11  8 29  0 48  0.0000000  0  7G10G12G29G05G04G25G02
 -25167266.82447 -19600162.67245  21729897.6804                   21729896.1684
 -27525987.72748 -21437274.38346  20677487.5704                   20677485.3914
   -922136.86346   -708934.71944  24188581.4064                   24188581.3954
 -28170172.41448 -21938884.66047  20300054.0234                   20300052.4224
 -22101642.56247 -17209159.07844  23542094.3914                   23542094.6684
 -15459361.96548 -12034636.85246  22084245.5634                   22084246.5004
 -31617257.62148 -24624751.04746  20885888.8054                   20885885.0354
 11  8 29  0 48 30.0000000  0  7G10G12G29G05G04G25G02
 -25117730.66447 -19561563.08645  21739323.9924                   21739322.9654
 -27543902.60248 -21451234.03546  20674078.3674                   20674076.1604
  -1029246.56246   -792396.73843  24168199.2974                   24168199.2624
 -28225834.99248 -21982258.06247  20289462.0634                   20289460.3094
 -22046506.52747 -17166196.00444  23552586.2584                   23552586.4774
 -15540734.03548 -12098043.67246  22068760.9224                   22068761.9884
 -31616607.98848 -24624244.84046  20886012.5634                   20886008.8364
 11  8 29  0 49  0.0000000  0  7G10G12G29G05G04G25G02
 -25067741.25847 -19522610.30945  21748836.6954                   21748835.6094
 -27561219.07848 -21464727.40647  20670783.0554                   20670781.0474
  -1136405.52346   -875897.14143  24147807.2424                   24147806.5944
 -28280916.35248 -22025178.55547  20278980.5314                   20278978.3284
 -21991393.57847 -17123250.91844  23563074.2584                   23563074.4774
 -15621598.55947 -12161054.98846  22053373.3594                   22053374.0554
 -31615804.73048 -24623618.92246  20886165.5944                   20886161.6454
 11  8 29  0 49 30.0000000  0  7G10G12G29G05G04G25G02
 -25017302.43047 -19483307.33645  21758434.8914                   21758433.6994
 -27577938.48848 -21477755.53146  20667601.5084                   20667599.5084
  -1243613.91046   -959436.09443  24127405.2894                   24127405.4344
 -28335416.52348 -22067646.18747  20268609.0864                   20268607.7974
 -21936305.39847 -17080325.10244  23573557.7974                   23573557.6564
 -15701954.68048 -12223670.16446  22038081.9454                   22038082.6134
 -31614849.75848 -24622874.78146  20886347.1174                   20886343.2504
 11  8 29  0 50  0.0000000  0  7G10G12G29G05G04G25G02
 -24966416.31647 -19443655.83245  21768118.0784                   21768117.0514
 -27594060.71948 -21490318.31646  20664533.4224                   20664531.6214
  -1350870.69946  -1043012.71543  24106995.9534                   24106994.7584
 -28389334.80148 -22109660.39547  20258348.7894                   20258347.1294
 -21881242.29747 -17037418.84043  23584035.4304                   23584036.1334
 -15781800.12548 -12285887.39146  22022887.8444                   22022888.5744
 -31613743.79748 -24622012.98846  20886557.4384                   20886553.5164
 11  8 29  0 50 30.0000000  0  7G10G12G29G05G04G25G02
 -24915084.59847 -19403657.09845  21777886.3444                   21777884.8834
 -27609584.82848 -21502415.04346  20661579.5004                   20661577.3874
  -1458173.93446  -1126625.58243  24086576.2034                   24086575.4774
 -28442669.59848 -22151219.93447  20248199.4144                   20248197.9494
 -21826203.80547 -16994531.75843  23594508.7894                   23594509.4694
 -15861131.97348 -12347704.43046  22007791.7584                   22007792.2974
 -31612486.42248 -24621033.21146  20886796.9064                   20886793.1414
 11  8 29  0 51  0.0000000  0  7G10G12G29G05G04G25G02
 -24863311.89147 -19363314.73445  21787738.3754                   21787736.8164
 -27624513.49248 -21514047.78146  20658738.6644                   20658736.2894
  -1565524.56246  -1210275.38744  24066148.9384                   24066147.3364
 -28495422.27748 -22192325.89147  20238161.2274                   20238159.3244
 -21771192.51647 -16951665.85543  23604976.8594                   23604977.7774
 -15939950.43048 -12409121.42246  21992792.8834                   21992793.6484
 -31611080.48848 -24619937.68046  20887064.2504                   20887060.8674
 11  8 29  0 51 30.0000000  0  7G10G12G29G05G04G25G02
 -24811100.92647 -19322630.88345  21797673.7424                   21797672.5634
 -27638846.57448 -21525216.42246  20656011.2974                   20656009.1294
  -1672921.64546  -1293961.40244  24045711.6174                   24045710.7154
 -28547591.71148 -22232977.35947  20228233.4844                   20228231.8874
 -21716208.68046 -16908821.35543  23615440.0784                   23615440.7304
 -16018253.35948 -12470136.70746  21977892.4924                   21977892.8524
 -31609526.59048 -24618726.85246  20887360.3834                   20887356.1134
 11  8 29  0 52  0.0000000  0  7G10G12G29G05G04G25G02
 -24758452.71547 -19281606.30545  21807692.5784                   21807691.1134
 -27652583.23048 -21535920.32046  20653397.1724                   20653395.0124
  -1780363.13746  -1377682.02344  24025266.0004                   24025265.9064
 -28599176.09848 -22273172.94947  20218417.2894                   20218415.5744
 -21661251.55546 -16865997.67243  23625898.6644                   23625899.0904
 -16096037.56648 -12530747.78946  21963090.4144                   21963091.0864
 -31607824.19948 -24617400.30946  20887684.0864                   20887680.1134
 11  8 29  0 52 30.0000000  0  7G10G12G29G05G04G25G02
 -23129952.66047 -18012645.24245  22117585.3754                   22117584.2074
 -26090303.88348 -20318559.79746  20950689.0474                   20950687.2544
   -312424.93446   -233834.04744  24304605.5554                   24304604.7424
 -27074753.86348 -21085311.43447  20508505.3984                   20508503.3134
 -20030904.57447 -15595597.48043  23936143.0944                   23936144.1374
 -14597879.28148 -11363351.73446  22248180.8914                   22248181.3714
 -30030555.03948 -23388359.40246  21187828.5944                   21187824.4184
 11  8 29  0 53  0.0000000  0  7G10G12G29G05G04G25G02
 -23076442.08247 -17970948.72345  22127768.2274                   22127767.2974
 -26102852.39548 -20328337.85946  20948301.2034                   20948298.9454
   -419955.66846   -317624.20344  24284142.6884                   24284141.9964
 -27125169.97348 -21124596.68447  20498911.3754                   20498909.4534
 -19976006.40247 -15552819.72343  23946589.9694                   23946590.3284
 -14674624.18048 -11423152.96946  22233576.4304                   22233577.3134
 -30028561.90648 -23386806.30946  21188207.8364                   21188203.4024
 11  8 29  0 53 30.0000000  0  7G10G12G29G05G04G25G02
 -23022502.18447 -17928917.65245  22138032.8054                   22138031.3094
 -26114805.64848 -20337652.08646  20946026.6414                   20946024.4884
   -527527.22346   -401446.14544  24263673.2034                   24263671.9734
 -27174998.78148 -21163424.29347  20489429.2974                   20489427.1804
 -19921136.31246 -15510063.84443  23957031.4534                   23957031.7154
 -14750844.47748 -11482545.42246  22219072.3444                   22219072.8984
 -30026422.38748 -23385139.14846  21188614.9064                   21188610.6884
 11  8 29  0 54  0.0000000  0  7G10G12G29G05G04G25G02
 -22968136.48447 -17886554.78545  22148378.5234                   22148376.7384
 -26126164.18748 -20346502.89546  20943865.2034                   20943862.9534
   -635139.62146   -485299.89144  24243194.6884                   24243194.0004
 -27224240.56648 -21201794.47347  20480058.9064                   20480056.8714
 -19866295.66446 -15467330.89543  23967467.1174                   23967467.5704
 -14826539.13748 -11541528.28946  22204667.8444                   22204668.6724
 -30024138.15248 -23383359.21946  21189049.3054                   21189045.5004
 11  8 29  0 54 30.0000000  0  7G10G12G29G05G04G25G02
 -22913348.59047 -17843862.94945  22158804.1484                   22158802.5824
 -26136930.22748 -20354892.02346  20941816.2034                   20941814.2114
   -742793.03146   -569185.60244  24222708.7664                   24222708.7894
 -27272895.90648 -21239707.69547  20470799.9614                   20470798.1844
 -19811485.65246 -15424621.84843  23977897.1254                   23977897.6914
 -14901707.30548 -11600100.90246  22190364.0784                   22190364.3984
 -30021710.83648 -23381467.81246  21189511.4454                   21189507.2854
 11  8 29  0 55  0.0000000  0  7G10G12G29G05G04G25G02
 -22858143.82047 -17800846.27345  22169309.4924                   22169307.4964
 -26147106.65248 -20362821.69946  20939879.9064                   20939877.8634
   -850488.83646   -653104.34444  24202214.7894                   24202214.6334
 -27320966.73448 -21277165.44947  20461652.4844                   20461650.2304
 -19756709.52046 -15381939.17644  23988320.4064                   23988321.1684
 -14976349.80948 -11658263.89546  22176159.9774                   22176161.0164
 -30019143.30148 -23379467.14546  21190000.0864                   21189996.0784
 11  8 29  0 55 30.0000000  0  7G10G12G29G05G04G25G02
 -22802521.42647 -17757504.16845  22179893.8054                   22179892.7154
 -26156689.82448 -20370289.11346  20938056.5234                   20938054.2464
   -958222.33246   -737052.40244  24181713.6804                   24181713.5204
 -27368449.01248 -21314164.59047  20452616.8444                   20452614.3674
 -19701964.16446 -15339280.51644  23998738.6564                   23998739.7584
 -15050461.35948 -11716013.15646  22162057.1254                   22162057.8954
 -30016433.09448 -23377355.29346  21190515.7424                   21190511.6414
 11  8 29  0 56  0.0000000  0  7G10G12G29G05G04G25G02
 -22746485.84448 -17713840.09845  22190557.3204                   22190555.7344
 -26165682.52748 -20377296.42246  20936345.0784                   20936342.7504
  -1065994.29346   -821030.51244  24161206.1564                   24161205.2584
 -27415344.25448 -21350706.30947  20443692.7974                   20443691.0394
 -19647251.88347 -15296647.57444  24009150.3284                   24009151.1884
 -15124042.05548 -11773348.75846  22148054.8524                   22148055.6134
 -30013582.90248 -23375134.37146  21191058.2814                   21191054.0864
 11  8 29  0 56 30.0000000  0  7G10G12G29G05G04G25G02
 -22690037.00847 -17669853.99645  22201299.0234                   22201297.5434
 -26174082.68748 -20383842.00846  20934746.3914                   20934744.2854
  -1173801.35546   -905035.96144  24140690.1094                   24140690.3054
 -27461649.30148 -21386788.12947  20434881.1024                   20434879.3204
 -19592570.62147 -15254038.80944  24019555.4924                   24019556.6134
 -15197087.59448 -11830267.35946  22134154.9144                   22134155.5864
 -30010590.79348 -23372802.85946  21191627.5234                   21191623.3834
 11  8 29  0 57  0.0000000  0  7G10G12G29G05G04G25G02
 -22633182.24247 -17625551.60245  22212118.4924                   22212117.2274
 -26181895.57848 -20389929.97746  20933260.0004                   20933257.4734
  -1281646.71547   -989071.27344  24120168.5004                   24120167.0514
 -27507368.24648 -21422413.25447  20426181.1174                   20426179.0864
 -19537925.27747 -15211458.06244  24029954.4614                   24029955.3284
 -15269600.80148 -11886771.15246  22120355.7814                   22120356.8524
 -30007461.97748 -23370364.81646  21192222.8754                   21192218.8714
 11  8 29  0 57 30.0000000  0  7G10G12G29G05G04G25G02
 -22575922.82047 -17580933.89845  22223014.5554                   22223013.0204
 -26189120.28148 -20395559.63346  20931884.9694                   20931882.7584
  -1389527.89847  -1073134.53544  24099639.2814                   24099638.6994
 -27552499.15648 -21457580.16047  20417593.1334                   20417590.8324
 -19483314.51247 -15168904.23844  24040346.1724                   24040346.9184
 -15341578.27348 -11942857.48446  22106659.4844                   22106660.1844
 -30004195.41048 -23367819.45346  21192844.5554                   21192840.3554
 11  8 29  0 58  0.0000000  0  7G10G12G29G05G04G25G02
 -22518262.03147 -17536003.42645  22233986.3204                   22233985.1724
 -26195757.62548 -20400731.60246  20930622.1094                   20930619.7034
  -1497444.05547  -1157225.02344  24079103.9064                   24079102.5904
 -27597042.41048 -21492289.15247  20409116.8754                   20409114.4534
 -19428739.46547 -15126378.24644  24050731.8524                   24050731.9414
 -15413018.95348 -11998525.53546  22093064.4694                   22093065.2814
 -30000792.43748 -23365167.77346  21193491.8284                   21193488.2304
 11  8 29  0 58 30.0000000  0  7G10G12G29G05G04G25G02
 -22460203.66847 -17490763.17645  22245034.7974                   22245033.7194
 -26201809.39848 -20405447.28146  20929470.4614                   20929468.3674
  -1605396.06647  -1241343.46144  24058560.5394                   24058560.3444
 -27640998.63748 -21526540.72347  20400752.3204                   20400749.9774
 -19374201.75046 -15083881.34844  24061109.8524                   24061110.5084
 -15483922.43748 -12053774.98446  22079572.1334                   22079572.7424
 -29997255.06647 -23362411.38746  21194164.7814                   21194161.1214
 11  8 29  0 59  0.0000000  0  7G10G12G29G05G04G25G02
 -22401749.71147 -17445214.66845  22256158.4064                   22256157.4494
 -26207275.95348 -20409706.93746  20928430.3134                   20928428.0594
  -1713381.41447  -1325487.87944  24038012.3054                   24038011.0864
 -27684366.52748 -21560333.85547  20392499.5944                   20392497.5634
 -19319700.92246 -15041413.19143  24071481.4304                   24071482.4064
 -15554286.23048 -12108603.88746  22066182.3444                   22066183.3794
 -29993583.10948 -23359550.12946  21194863.7734                   21194859.7774
 11  8 29  0 59 30.0000000  0  7G10G12G29G05G04G25G02
 -22342901.53547 -17399358.95745  22267356.7424                   22267355.5594
 -26212156.72748 -20413510.15246  20927501.3984                   20927499.3324
  -1821397.93747  -1409656.57844  24017457.1024                   24017456.2034
 -27727144.71148 -21593667.46147  20384359.2114                   20384357.2344
 -19265235.81646 -14998972.89843  24081845.5554                   24081846.1764
 -15624107.22348 -12163009.84046  22052895.5944                   22052896.7624
 -29989775.50448 -23356583.17246  21195588.5394                   21195584.3754
 11  8 29  1  0  0.0000000  0  7G10G12G29G05G04G25G02
 -22283663.79747 -17353199.70345  22278629.7584                   22278627.9574
 -26216453.87548 -20416858.59046  20926683.6804                   20926681.3874
  -1929446.29347  -1493850.10244  23996896.2584                   23996895.6294
 -27769334.78948 -21626542.81247  20376330.5634                   20376328.3134
 -19210809.05146 -14956562.43443  24092202.9454                   24092203.8404
 -15693385.95748 -12216993.24246  22039712.1484                   22039713.2854
 -29985835.28948 -23353512.87546  21196338.2734                   21196334.3794
 11  8 29  1  0 30.0000000  0  7G10G12G29G05G04G25G02
 -22224040.59447 -17306740.08245  22289975.2584                   22289974.3134
 -26220169.61348 -20419753.98446  20925976.4304                   20925974.2934
  -2037526.18047  -1578068.17244  23976329.1174                   23976328.2704
 -27810937.43448 -21658960.42247  20368413.6884                   20368411.6764
 -19156421.91446 -14914182.89143  24102552.2424                   24102552.4494
 -15762121.81648 -12270553.62946  22026632.5864                   22026633.3634
 -29981764.03148 -23350340.46946  21197113.1414                   21197109.0394
 11  8 29  1  1  0.0000000  0  7G10G12G29G05G04G25G02
 -22164035.38747 -17259982.81245  22301393.8594                   22301393.0354
 -26223305.75448 -20422197.75046  20925379.9614                   20925377.5234
  -2145637.90647  -1662311.05144  23955756.0084                   23955755.5274
 -27851953.53948 -21690920.98847  20360608.3914                   20360606.3714
 -19102075.65246 -14871835.18043  24112893.1644                   24112894.5984
 -15830314.27748 -12323690.59446  22013655.9064                   22013656.7704
 -29977563.50047 -23347067.32446  21197912.5394                   21197908.4304
 11  8 29  1  1 30.0000000  0  7G10G12G29G05G04G25G02
 -22103650.20747 -17212929.45345  22312884.8364                   22312883.5944
 -26225862.20348 -20424189.80946  20924893.3364                   20924890.9494
  -2253779.32847  -1746577.05144  23935177.6804                   23935177.2854
 -27892382.26248 -21722423.85247  20352915.0084                   20352913.2154
 -19047769.86746 -14829518.97743  24123228.0084                   24123228.8754
 -15897960.91448 -12376402.24646  22000782.9844                   22000783.8714
 -29973232.99648 -23343692.90246  21198736.3674                   21198732.5084
 11  8 29  1  2  0.0000000  0  7G10G12G29G05G04G25G02
 -22042886.97747 -17165581.50445  22324447.7664                   22324446.5634
 -26227838.76648 -20425730.00046  20924517.1484                   20924514.8404
  -2361948.40647  -1830864.62544  23914593.6724                   23914592.9104
 -27932222.28548 -21753467.99247  20345334.0234                   20345332.0124
 -18993504.12146 -14787233.99243  24133554.0394                   24133554.5124
 -15965059.51248 -12428686.84046  21988014.8754                   21988015.4184
 -29968772.87948 -23340217.49646  21199585.4694                   21199581.4774
 11  8 29  1  2 30.0000000  0  7G10G12G29G05G04G25G02
 -21981748.86347 -17117941.43045  22336082.0004                   22336080.0124
 -26229236.98048 -20426819.52346  20924250.8134                   20924248.6684
  -2470144.14547  -1915172.98844  23894004.9924                   23894003.4654
 -27971474.46148 -21784054.07447  20337864.1484                   20337862.6604
 -18939279.14846 -14744980.81643  24143872.8984                   24143873.7344
 -16031608.89148 -12480543.47346  21975350.7734                   21975351.5274
 -29964184.23848 -23336641.94546  21200458.6884                   21200454.4654
 11  8 29  1  3  0.0000000  0  7G10G12G29G05G04G25G02
 -21920242.12547 -17070014.10945  22347786.3134                   22347784.9534
 -26230060.94948 -20427461.58246  20924094.4924                   20924092.1524
  -2578369.34847  -1999504.30944  23873409.9694                   23873409.1804
 -28010141.76248 -21814184.40647  20330506.2194                   20330504.0084
 -18885098.76246 -14702762.37543  24154183.2894                   24154184.0824
 -16097611.16848 -12531973.81246  21962790.4774                   21962791.5904
 -29959470.89148 -23332969.19546  21201355.4694                   21201351.5044
 11  8 29  1  3 30.0000000  0  7G10G12G29G05G04G25G02
 -21858364.29747 -17021797.64145  22359561.1024                   22359559.8324
 -26230306.65648 -20427653.04346  20924047.6804                   20924045.4654
  -2686617.23047  -2083853.28144  23852811.2344                   23852810.4534
 -28048218.90648 -21843854.87947  20323260.2814                   20323258.3714
 -18830958.16446 -14660574.94543  24164485.4224                   24164486.0394
 -16163059.61748 -12582972.58246  21950336.6414                   21950337.4454
 -29954628.31248 -23329195.75846  21202276.9454                   21202272.7464
 11  8 29  1  4  0.0000000  0  7G10G12G29G05G04G25G02
 -21796122.78947 -16973297.76645  22371405.7584                   22371403.9694
 -26229979.50848 -20427398.14146  20924109.7114                   20924107.5514
  -2794891.07447  -2168222.49644  23832207.5394                   23832205.8954
 -28085710.02348 -21873068.70747  20316125.7974                   20316123.7774
 -18776861.91846 -14618422.07443  24174780.3754                   24174780.2274
 -16227957.25448 -12633542.15246  21937987.2194                   21937987.6644
 -29949661.53148 -23325325.53546  21203221.8754                   21203217.9694
 11  8 29  1  4 30.0000000  0  7G10G12G29G05G04G25G02
 -21733518.03547 -16924514.85245  22383318.8834                   22383317.6684
 -26229078.04348 -20426695.70746  20924281.6414                   20924279.3554
  -2903187.70347  -2252609.46144  23811598.7114                   23811598.2344
 -28122612.94148 -21901824.19547  20309103.4614                   20309101.5204
 -18722808.09046 -14576302.24643  24185065.6174                   24185067.0824
 -16292300.41048 -12683679.65646  21925742.6954                   21925743.7704
 -29944568.93448 -23321357.26646  21204191.1644                   21204187.2584
 11  8 29  1  5  0.0000000  0  8G10G12G26G29G05G04G25G02
 -21670555.13747 -16875452.89145  22395300.2274                   22395298.9494
 -26227605.45348 -20425548.23846  20924561.6804                   20924559.4654
   2979886.75856   2332497.36353  24862929.5234                   24862932.0394
  -3011507.55147  -2337014.50444  23790986.3594                   23790985.8794
 -28158930.16048 -21930123.30547  20302192.5784                   20302190.3794
 -18668799.24646 -14534217.41043  24195343.2424                   24195343.8164
 -16356089.87948 -12733385.72346  21913604.0164                   21913604.7384
 -29939353.28548 -23317293.12146  21205183.6724                   21205179.7034
 11  8 29  1  5 30.0000000  0  8G10G12G26G29G05G04G25G02
 -21607245.04347 -16826120.36345  22407347.8984                   22407346.5594
 -26225570.91848 -20423962.90246  20924948.8984                   20924946.7194
   2863472.02346   2241784.76643  24840776.2034                   24840778.7584
  -3119858.00447  -2421443.37144  23770367.6414                   23770367.1764
 -28194669.55148 -21957972.15647  20295391.6564                   20295389.5204
 -18614843.87546 -14492174.24643  24205611.1334                   24205611.4964
 -16419332.59048 -12782665.75446  21901569.4844                   21901570.1054
 -29934023.29748 -23313139.87546  21206197.9774                   21206193.8054
 11  8 29  1  6  0.0000000  0  8G10G12G26G29G05G04G25G02
 -21543591.78547 -16776520.45745  22419460.7974                   22419459.3634
 -26222976.90248 -20421941.60546  20925442.4774                   20925440.3244
   2746917.39146   2150963.14543  24818597.3834                   24818599.2734
  -3228239.22747  -2505896.22744  23749743.4844                   23749743.0554
 -28229832.72348 -21985371.99647  20288700.3834                   20288698.6764
 -18560943.56246 -14450174.04743  24215868.3284                   24215868.5744
 -16482028.46548 -12831519.68446  21889638.9454                   21889639.2384
 -29928580.95348 -23308899.06646  21207233.4384                   21207229.5474
 11  8 29  1  6 30.0000000  0  8G10G12G26G29G05G04G25G02
 -21479597.49647 -16726654.78945  22431638.4144                   22431636.7034
 -26219823.90648 -20419484.74646  20926042.4924                   20926040.6254
   2630226.10946   2060035.03143  24796391.1724                   24796393.4024
  -3336649.28947  -2590371.51645  23729113.8834                   23729113.0124
 -28264419.15648 -22012322.44147  20282118.7194                   20282116.6884
 -18507097.88346 -14408216.36743  24226115.1174                   24226115.1954
 -16544175.57048 -12879945.99646  21877812.5784                   21877813.4264
 -29923026.15648 -23304570.64546  21208290.5084                   21208286.3204
 11  8 29  1  7  0.0000000  0  8G10G12G26G29G05G04G25G02
 -21415262.15247 -16676523.35545  22443880.8754                   22443879.6994
 -26216109.94148 -20416590.75046  20926749.4064                   20926747.2114
   2513404.13746   1969005.14543  24774160.6094                   24774162.6684
  -3445083.53547  -2674865.67244  23708479.2664                   23708479.2154
 -28298425.65248 -22038820.97747  20275647.8364                   20275645.4184
 -18453304.03147 -14366299.07844  24236351.1254                   24236352.3404
 -16605769.48448 -12927941.25046  21866091.4384                   21866091.9654
 -29917356.51248 -23300152.73846  21209369.4694                   21209365.5354
 11  8 29  1  7 30.0000000  0  8G10G12G26G29G05G04G25G02
 -21350584.21547 -16626125.00445  22456188.8984                   22456187.4804
 -26211831.88347 -20413257.19146  20927563.2584                   20927561.0904
   2396458.71546   1877879.03143  24751906.2584                   24751908.3634
  -3553536.95747  -2759374.75844  23687841.3284                   23687840.7464
 -28331848.50848 -22064864.73447  20269287.2974                   20269285.1254
 -18399558.35947 -14324419.36344  24246578.6644                   24246579.7704
 -16666804.96148 -12975501.34846  21854476.7664                   21854477.5554
 -29911568.45347 -23295642.54746  21210470.8134                   21210466.8244
 11  8 29  1  8  0.0000000  0  8G10G12G26G29G05G04G25G02
 -21285569.75047 -16575464.41845  22468560.3444                   22468559.3984
 -26206994.30147 -20409487.65246  20928483.3204                   20928481.4694
   2279389.32846   1786656.33243  24729628.0084                   24729630.0824
  -3662011.26247  -2843900.11744  23667199.6644                   23667198.1724
 -28364690.70348 -22090456.02747  20263037.7114                   20263035.3244
 -18345864.11747 -14282579.75944  24256796.3444                   24256796.6644
 -16727283.92248 -13022627.80146  21842968.3914                   21842968.6414
 -29905665.71147 -23291043.00446  21211594.3754                   21211590.4454
 11  8 29  1  8 30.0000000  0  8G10G12G26G29G05G04G25G02
 -21220217.66446 -16524540.74245  22480996.3524                   22480995.8164
 -26201594.67647 -20405280.15646  20929511.2344                   20929509.0594
   2162202.83646   1695342.32443  24707328.9924                   24707330.5004
  -3770501.38747  -2928437.79344  23646554.8984                   23646553.6024
 -28396948.77748 -22115592.15647  20256899.3594                   20256896.7584
 -18292217.71547 -14240777.31244  24267005.2194                   24267005.9654
 -16787201.27048 -13069316.64146  21831566.3444                   21831566.9454
 -29899645.14547 -23286351.65646  21212739.4774                   21212735.6884
 11  8 29  1  9  0.0000000  0  8G10G12G26G29G05G04G25G02
 -21154532.46947 -16473357.48445  22493496.1644                   22493495.2624
 -26195635.56248 -20400636.69946  20930645.0704                   20930643.2704
   2044900.34846   1603937.94143  24685006.4304                   24685007.5864
  -3879007.78947  -3012988.17644  23625906.1254                   23625905.4734
 -28428624.74648 -22140274.69547  20250871.3674                   20250869.1484
 -18238621.23447 -14199013.82843  24277203.7344                   24277204.8984
 -16846557.62548 -13115568.34846  21820271.1804                   21820271.8794
 -29893508.60248 -23281569.93046  21213907.3134                   21213903.7114
 11  8 29  1  9 30.0000000  0  8G10G12G26G29G05G04G25G02
 -21088513.93447 -16421914.48844  22506058.9384                   22506058.0274
 -26189115.32847 -20395556.01646  20931886.0554                   20931884.0234
   1927487.89146   1512447.91043  24662663.5784                   24662665.1024
  -3987526.22347  -3097547.89844  23605255.7034                   23605254.5864
 -28459715.68448 -22164501.37547  20244954.8204                   20244952.9024
 -18185071.74247 -14157286.93443  24287394.0944                   24287395.3134
 -16905348.64548 -13161379.52046  21809083.4694                   21809084.1724
 -29887253.69147 -23276695.97346  21215097.9304                   21215094.0314
 11  8 29  1 10  0.0000000  0  8G10G12G26G29G05G04G25G02
 -21022166.87947 -16370215.50844  22518684.1094                   22518683.6844
 -26182037.18447 -20390040.60246  20933232.8284                   20933230.8954
   1809966.47346   1420872.94943  24640299.1254                   24640300.7584
  -4096057.24247  -3182117.46544  23584602.8984                   23584602.1094
 -28490223.67648 -22188273.80147  20239149.4774                   20239147.3834
 -18131571.30147 -14115598.27343  24297575.7344                   24297575.5984
 -16963575.10248 -13206750.78146  21798003.3984                   21798004.1254
 -29880883.06247 -23271731.85946  21216310.3054                   21216305.9964
 11  8 29  1 10 30.0000000  0  8G10G12G26G29G05G04G25G02
 -20955493.17647 -16318262.00845  22531372.5084                   22531370.9574
 -26174401.14547 -20384090.46946  20934686.3284                   20934684.0944
   1692340.32845   1329216.43042  24617915.3134                   24617917.4184
  -4204598.51247  -3266695.02344  23563948.6644                   23563947.6094
 -28520148.05148 -22211591.45747  20233454.8914                   20233453.0664
 -18078119.26246 -14073947.37543  24307745.9924                   24307747.5234
 -17021234.83648 -13251680.43746  21787031.3134                   21787031.8134
 -29874396.02347 -23266677.02046  21217544.5634                   21217540.4454
 11  8 29  1 11  0.0000000  0  8G10G12G26G29G05G04G25G02
 -20888495.37147 -16266055.94144  22544121.5704                   22544120.2154
 -26166208.53148 -20377706.63746  20936245.3054                   20936243.1024
   1574612.57045   1237480.68843  24595513.3914                   24595514.9064
  -4313148.48447  -3351279.36744  23543291.8204                   23543290.3674
 -28549488.98848 -22234454.51247  20227871.6724                   20227869.6254
 -18024715.58646 -14032334.11743  24317909.2584                   24317909.9804
 -17078326.60548 -13296167.52746  21776167.2504                   21776167.8164
 -29867793.24647 -23261531.99646  21218801.2194                   21218797.4384
 11  8 29  1 11 30.0000000  0  8G10G12G26G29G05G04G25G02
 -20821179.43446 -16213601.97744  22556931.6414                   22556929.7934
 -26157463.66848 -20370892.48446  20937909.3594                   20937907.1684
   1456782.79746   1145665.48043  24573090.1484                   24573092.4344
  -4421708.87547  -3435871.80544  23522633.6254                   23522632.6804
 -28578249.87148 -22256865.55147  20222398.5234                   20222396.6884
 -17971363.54346 -13990761.11343  24328061.0634                   24328062.1334
 -17134852.51647 -13340213.67646  21765410.2734                   21765411.4774
 -29861078.12148 -23256299.43046  21220078.8834                   21220074.5274
 11  8 29  1 12  0.0000000  0  8G10G12G26G29G05G04G25G02
 -20753545.21547 -16160900.01244  22569801.8984                   22569800.3554
 -26148164.76648 -20363646.59846  20939678.8054                   20939676.8984
   1338857.19946   1053775.61743  24550649.5234                   24550652.7734
  -4530275.14547  -3520468.86345  23501974.0864                   23501973.3404
 -28606427.98848 -22278822.50047  20217036.3284                   20217034.3714
 -17918060.26246 -13949226.10543  24338204.7194                   24338205.3524
 -17190808.42648 -13383815.66846  21754762.0864                   21754763.2854
 -29854247.88348 -23250977.17246  21221378.7344                   21221374.6414
 11  8 29  1 12 30.0000000  0  8G10G12G26G29G05G04G25G02
 -20685596.46147 -16107952.94944  22582731.6644                   22582730.8014
 -26138314.24248 -20355970.87146  20941553.2034                   20941551.1994
   1220837.65646    961812.56643  24528191.5164                   24528193.5514
  -4638847.09847  -3605070.34844  23481313.8674                   23481312.0784
 -28634024.71148 -22300326.40247  20211784.7584                   20211782.6294
 -17864806.94646 -13907730.07843  24348338.2814                   24348339.1174
 -17246194.33247 -13426973.50046  21744222.7734                   21744223.4414
 -29847304.49247 -23245566.74246  21222700.1804                   21222695.6334
 11  8 29  1 13  0.0000000  0  8G10G12G26G29G05G04G25G02
 -20617337.81646 -16054764.42644  22595720.6954                   22595719.5594
 -26127915.45348 -20347867.95346  20943532.1024                   20943530.0904
   1102725.67646    869777.45343  24505714.9384                   24505716.5634
  -4747425.16046  -3689676.58645  23460651.7344                   23460651.1294
 -28661042.26648 -22321379.02047  20206643.6724                   20206641.3204
 -17811605.46946 -13866274.37143  24358462.6484                   24358463.3524
 -17301010.86348 -13469687.65646  21733791.5004                   21733792.1884
 -29840249.80947 -23240069.59046  21224042.4064                   21224038.7974
 11  8 29  1 13 30.0000000  0  8G10G12G26G29G05G04G25G02
 -20548769.21947 -16001334.36344  22608769.3754                   22608767.9264
 -26116966.94948 -20339336.68446  20945615.6334                   20945613.6024
    984527.10946    777674.88343  24483222.4614                   24483224.6024
  -4856005.16046  -3774284.34444  23439989.8134                   23439987.9924
 -28687478.05948 -22341978.30947  20201613.0084                   20201610.8594
 -17758453.18746 -13824857.02743  24368577.2584                   24368576.8364
 -17355254.22347 -13511955.19146  21723469.2584                   21723470.0514
 -29833081.37547 -23234483.79746  21225406.4384                   21225401.9964
 11  8 29  1 14  0.0000000  0  8G10G12G26G29G05G04G25G02
 -20479894.70746 -15947665.94544  22621875.5944                   22621874.2544
 -26105471.27048 -20330379.05146  20947803.2424                   20947801.1764
    866243.61346    685506.12143  24460713.7664                   24460715.3054
  -4964586.93446  -3858893.45744  23419326.4774                   23419325.8444
 -28713334.12948 -22362125.87947  20196692.6334                   20196690.5784
 -17705351.59446 -13783479.16043  24378681.9774                   24378682.5044
 -17408924.69147 -13553776.32446  21713255.9064                   21713256.6294
 -29825801.15247 -23228810.91046  21226791.4924                   21226788.0354
 11  8 29  1 14 30.0000000  0  8G10G12G26G29G05G04G25G02
 -20410718.85946 -15893762.69944  22635039.4384                   22635038.4024
 -26093431.32848 -20320997.28546  20950094.4924                   20950092.3874
    747876.55547    593272.26643  24438189.7734                   24438191.1024
  -5073170.55946  -3943504.07444  23398664.2584                   23398662.8164
 -28738612.18448 -22381823.03547  20191882.6804                   20191880.2234
 -17652302.52046 -13742142.28942  24388777.1414                   24388777.2894
 -17462023.30148 -13595151.85946  21703151.4064                   21703151.9064
 -29818411.61347 -23223052.83246  21228197.8594                   21228193.7774
 11  8 29  1 15  0.0000000  0  8G10G12G26G29G05G04G25G02
 -20341243.66046 -15839626.21944  22648260.0864                   22648259.1804
 -26080848.30148 -20311192.31646  20952488.6644                   20952486.4804
    629429.68046    500976.19544  24415650.0864                   24415651.2664
  -5181753.94946  -4028114.46944  23378000.7584                   23378000.0274
 -28763312.21548 -22401069.78947  20187182.3054                   20187179.9964
 -17599305.26646 -13700845.76642  24398862.1954                   24398862.5474
 -17514548.18048 -13636080.33246  21693156.5634                   21693156.8794
 -29810911.92247 -23217208.91846  21229625.3134                   21229621.2624
 11  8 29  1 15 30.0000000  0  8G10G12G26G29G05G04G25G02
 -20271473.62546 -15785259.98445  22661536.9924                   22661536.0204
 -26067725.05148 -20300966.42246  20954986.1174                   20954983.9304
    510904.86346    408619.39543  24393094.9304                   24393096.2734
  -5290337.14547  -4112724.75044  23357338.5474                   23357337.2234
 -28787436.37948 -22419867.81647  20182591.4774                   20182589.2194
 -17546361.71546 -13659591.08243  24408937.0314                   24408936.9804
 -17566499.87948 -13676562.16846  21683270.4924                   21683270.6604
 -29803304.36347 -23211280.95346  21231072.5394                   21231068.2974
 11  8 29  1 16  0.0000000  0  8G10G12G26G29G05G04G25G02
 -20201408.78946 -15730664.02344  22674869.9224                   22674869.1334
 -26054060.27748 -20290318.56646  20957586.3594                   20957584.4844
    392307.64846    316206.19543  24370526.4144                   24370527.5354
  -5398916.11347  -4197331.76244  23336677.3054                   23336674.9804
 -28810982.44148 -22438215.36747  20178110.6724                   20178108.1214
 -17493468.87946 -13618375.89842  24419002.0704                   24419002.1054
 -17617874.86348 -13716594.60946  21673494.2194                   21673494.7304
 -29795586.21947 -23205266.82046  21232541.3674                   21232537.5354
 11  8 29  1 16 30.0000000  0  8G10G12G26G29G05G04G25G02
 -20131054.09846 -15675842.22344  22688257.9064                   22688257.2704
 -26039858.03548 -20279251.89546  20960289.0554                   20960287.1094
    273638.97747    223737.30144  24347944.4384                   24347946.1374
  -5507491.84447  -4281936.23044  23316015.3914                   23316014.6374
 -28833953.34848 -22456114.75847  20173739.5944                   20173736.9534
 -17440629.60547 -13577202.45743  24429057.5314                   24429057.6214
 -17668674.71547 -13756178.89546  21663827.4534                   21663827.8244
 -29787760.63747 -23199168.97346  21234030.8984                   21234026.7074
 11  8 29  1 17  0.0000000  0  8G10G12G26G29G05G04G25G02
 -20060413.84847 -15620797.91045  22701700.6724                   22701699.8714
 -26025120.55548 -20267768.14846  20963093.6024                   20963091.6844
    154900.91046    131214.33243  24325348.5784                   24325350.4454
  -5616063.75847  -4366537.72745  23295355.2814                   23295353.8834
 -28856350.46948 -22473567.03547  20169477.4774                   20169475.1094
 -17387844.58247 -13536071.30543  24439102.2194                   24439102.4574
 -17718899.46547 -13795315.06246  21654269.9144                   21654270.4414
 -29779828.86747 -23192988.37946  21235540.1484                   21235535.8984
 11  8 29  1 17 30.0000000  0  8G10G12G26G29G05G04G25G02
 -19989488.61347 -15565531.52045  22715197.0784                   22715196.2774
 -26009847.91848 -20255867.40246  20965999.7274                   20965997.3594
     36098.41046     38641.16843  24302741.3204                   24302742.8714
  -5724628.12147  -4451133.33245  23274696.7584                   23274695.4264
 -28878172.37148 -22490571.08647  20165324.9384                   20165322.3794
 -17335111.98847 -13494981.03143  24449136.5394                   24449137.1564
 -17768546.39547 -13834000.96946  21644822.5314                   21644822.6844
 -29771789.48448 -23186723.93446  21237069.7194                   21237066.3204
 11  8 29  1 18  0.0000000  0  8G10G12G26G29G05G04G25G02
 -19918283.51247 -15510047.04744  22728747.2034                   22728745.3714
 -25994043.98048 -20243552.67246  20969007.1094                   20969005.6454
    -82767.64546    -53981.53143  24280121.7664                   24280123.0004
  -5833186.14147  -4535723.98445  23254038.3834                   23254037.2504
 -28899422.34047 -22507129.47747  20161281.1954                   20161279.1604
 -17282434.64147 -13453933.80543  24459159.9924                   24459161.8204
 -17817617.25048 -13872237.97746  21635484.3834                   21635484.7894
 -29763645.32847 -23180377.84046  21238619.7034                   21238615.6094
 11  8 29  1 18 30.0000000  0  8G10G12G26G29G05G04G25G02
 -19846800.39547 -15454345.95744  22742350.0474                   22742348.9884
 -25977709.38348 -20230824.43446  20972115.2894                   20972113.5084
   -201693.10546   -146650.55943  24257490.5084                   24257492.4654
  -5941735.14546  -4620307.55545  23233381.9384                   23233381.4574
 -28920099.74648 -22523241.71947  20157346.4614                   20157344.1604
 -17229811.28146 -13412928.64543  24469174.7894                   24469175.4734
 -17866110.11748 -13910024.60546  21626256.5084                   21626256.9414
 -29755395.48047 -23173949.37946  21240189.6644                   21240185.9304
 11  8 29  1 19  0.0000000  0  8G10G12G26G29G05G04G25G02
 -19775040.54747 -15398429.22744  22756005.2194                   22756003.7544
 -25960844.02748 -20217682.62946  20975324.8594                   20975322.8834
   -320673.53946   -239362.39143  24234848.8204                   24234850.8484
  -6050272.09846  -4704881.73444  23212727.5634                   23212727.5274
 -28940203.96948 -22538907.32047  20153520.7584                   20153518.1134
 -17177240.78546 -13371964.68743  24479178.6334                   24479179.4774
 -17914022.90648 -13947359.21946  21617139.0474                   21617139.4614
 -29747039.04347 -23167437.86746  21241779.6724                   21241775.1884
 11  8 29  1 19 30.0000000  0  8G10G12G26G29G05G04G25G02
 -19703010.04746 -15342301.59844  22769712.2114                   22769711.0864
 -25943452.83248 -20204131.07046  20978634.6954                   20978632.4064
   -439708.81646   -332116.96943  24212197.5474                   24212198.9024
  -6158798.76246  -4789447.89145  23192075.1564                   23192075.5204
 -28959738.91048 -22554129.33247  20149803.2974                   20149801.0044
 -17124726.14846 -13331044.23043  24489171.5474                   24489172.2464
 -17961358.08647 -13984243.75446  21608131.3204                   21608132.0434
 -29738579.56647 -23160846.07846  21243389.6484                   21243385.6174
 11  8 29  1 20  0.0000000  0  8G10G12G26G29G05G04G25G02
 -19630710.95346 -15285964.68444  22783470.6174                   22783469.1484
 -25925537.09848 -20190170.78146  20982043.5234                   20982041.5784
   -558795.03946   -424911.23443  24189535.9384                   24189537.0944
  -6267313.20746  -4874004.51645  23171426.3204                   23171425.7424
 -28978704.66048 -22568907.81647  20146194.0394                   20146191.8324
 -17072266.79346 -13290166.89543  24499153.9844                   24499155.7344
 -18008114.35547 -14020677.17646  21599233.8204                   21599234.5514
 -29730016.89848 -23154173.86346  21245018.7504                   21245014.5124
 11  8 29  1 20 30.0000000  0  8G10G12G26G29G05G04G25G02
 -19558146.15646 -15229420.71544  22797279.0864                   22797277.5084
 -25907098.27048 -20175802.88746  20985552.7274                   20985550.4224
   -677929.12146   -517742.81243  24166865.0474                   24166867.5474
  -6375813.78546  -4958550.36745  23150779.3134                   23150778.3444
 -28997101.97348 -22583243.36747  20142693.2974                   20142690.9264
 -17019862.89147 -13249332.73443  24509126.6414                   24509127.6724
 -18054291.08248 -14056659.00446  21590446.7664                   21590447.5124
 -29721351.23048 -23147421.40646  21246668.0554                   21246663.6884
 11  8 29  1 21  0.0000000  0  8G10G12G26G29G05G04G25G02
 -19485318.41446 -15172671.87544  22811137.4614                   22811136.3874
 -25888137.93448 -20161028.60246  20989160.2584                   20989158.3014
   -797107.38746   -610608.79743  24144186.9064                   24144188.2304
  -6484298.59047  -5043083.93445  23130135.4614                   23130134.1294
 -29014931.31248 -22597136.34847  20139300.5164                   20139298.1024
 -16967514.11346 -13208541.48443  24519088.8524                   24519088.7274
 -18099887.18048 -14092188.39546  21581770.2424                   21581770.4304
 -29712582.61348 -23140588.71546  21248336.5084                   21248332.1724
 11  8 29  1 21 30.0000000  0  8G10G12G26G29G05G04G25G02
 -19412229.63346 -15115719.62144  22825045.5314                   22825044.6294
 -25868657.12548 -20145848.75046  20992867.5004                   20992865.8794
   -916326.38346   -703506.53943  24121500.4144                   24121500.9694
  -6592765.46147  -5127603.56645  23109495.1484                   23109493.0664
 -29032193.14148 -22610587.10947  20136015.5164                   20136013.4804
 -16915220.05146 -13167792.86743  24529039.1954                   24529040.8444
 -18144901.84048 -14127264.73046  21573203.9694                   21573204.7584
 -29703710.87948 -23133675.67646  21250024.7504                   21250021.0084
 11  8 29  1 22  0.0000000  0  8G10G12G26G29G05G04G25G02
 -19338885.19546 -15058568.16844  22839002.2114                   22839002.2504
 -25848660.62148 -20130267.05146  20996672.5164                   20996670.9184
  -1035585.20746   -796435.32443  24098805.8834                   24098806.1914
  -6701215.53547  -5212110.10944  23088857.2504                   23088855.2664
 -29048890.56648 -22623598.06647  20132838.4144                   20132836.0004
 -16862983.16446 -13127088.81243  24538979.5394                   24538980.4454
 -18189336.89147 -14161889.41846  21564748.6484                   21564748.7194
 -29694738.96548 -23126684.57846  21251732.1334                   21251728.3714
 11  8 29  1 22 30.0000000  0  7G10G12G26G29G05G25G02
 -19265283.92646 -15001216.59044  22853009.0004                   22853007.9654
 -25828145.79748 -20114281.48046  21000576.7424                   21000574.6374
  -1154876.84047   -889389.66443  24076104.9144                   24076105.3134
  -6809643.10547  -5296599.09044  23068224.0864                   23068223.1954
 -29065020.19948 -22636166.59847  20129768.8364                   20129766.2774
 -18233187.96947 -14196059.06246  21556403.7584                   21556404.2074
 -29685663.52048 -23119612.79746  21253459.1954                   21253455.1334
 11  8 29  1 23  0.0000000  0  7G10G12G26G29G05G25G02
 -19191430.72746 -14943668.68044  22867063.1564                   22867061.4104
 -25807117.21548 -20097895.57446  21004578.5084                   21004576.5554
  -1274200.15646   -982368.71943  24053398.3284                   24053398.5394
  -6918048.85547  -5381071.03944  23047594.9694                   23047594.2154
 -29080585.82048 -22648295.62947  20126806.7894                   20126804.2274
 -18276456.49648 -14229774.78546  21548170.0944                   21548170.4384
 -29676486.66048 -23112462.01246  21255205.7194                   21255201.3404
 11  8 29  1 23 30.0000000  0  7G10G12G26G29G05G25G02
 -19117320.18446 -14885920.24644  22881165.1954                   22881164.2584
 -25785567.94148 -20081103.93746  21008679.0394                   21008676.8754
  -1393543.59047  -1075363.42643  24030688.5394                   24030689.1844
  -7026422.97747  -5465518.33245  23026971.8364                   23026971.7774
 -29095579.63348 -22659979.10247  20123953.3444                   20123951.1884
 -18319133.80147 -14263029.82046  21540049.2424                   21540049.3204
 -29667200.46148 -23105226.00446  21256972.4924                   21256968.4064
 11  8 29  1 24  0.0000000  0  7G10G12G26G29G05G25G02
 -19042952.85246 -14827971.73844  22895317.0554                   22895316.3634
 -25763497.58648 -20063906.26246  21012879.0394                   21012877.1564
  -1512901.48047  -1168369.43043  24007974.8134                   24007976.1374
  -7134761.46147  -5549937.86345  23006355.9844                   23006354.9924
 -29110000.16048 -22671215.85547  20121209.5164                   20121206.9534
 -18361217.16847 -14295822.05146  21532040.6954                   21532041.2854
 -29657802.95348 -23097903.28146  21258760.8284                   21258756.9884
 11  8 29  1 24 30.0000000  0  7G10G12G26G29G05G25G02
 -17392917.67646 -13542230.10244  23209308.9144                   23209307.3054
 -24165492.43748 -18818707.45346  21316969.0554                   21316967.1844
    -56850.29747    -33783.94543  24285052.3524                   24285052.0394
  -5667642.58247  -4406728.26645  23285539.6564                   23285538.0044
 -27548431.53548 -21454409.11747  20418365.9924                   20418363.6644
 -16827288.28548 -13100552.78946  21823937.4454                   21823938.2704
 -28072878.39548 -21862897.13746  21560362.1094                   21560357.9844
 11  8 29  1 25  0.0000000  0  7G10G12G26G29G05G25G02
 -17318052.20347 -13483893.41044  23223555.3444                   23223553.8244
 -24142393.03148 -18800707.92646  21321364.9774                   21321362.5634
   -176234.59847   -126810.51643  24262333.1094                   24262334.5124
  -5775912.13747  -4491094.10545  23264936.2894                   23264935.4384
 -27561715.65648 -21464760.35947  20415838.0864                   20415835.7154
 -16868189.54348 -13132423.90646  21816154.4224                   21816154.8984
 -28063266.35548 -21855407.23046  21562191.1254                   21562186.9844
 11  8 29  1 25 30.0000000  0  7G10G12G26G29G05G25G02
 -17242947.86747 -13425370.59044  23237847.0314                   23237845.9224
 -24118787.81248 -18782314.25446  21325857.0004                   21325854.6174
   -295633.26647   -219848.31643  24239612.9454                   24239613.5984
  -5884150.75447  -4575435.84045  23244339.2114                   23244338.0944
 -27574439.20748 -21474674.78947  20413416.7974                   20413414.2854
 -16908505.31248 -13163838.78946  21808482.6954                   21808483.2234
 -28053553.58648 -21847838.84446  21564039.4534                   21564035.1994
 11  8 29  1 26  0.0000000  0  7G10G12G26G29G05G25G02
 -17167605.65247 -13366662.42244  23252184.5314                   23252183.6254
 -24094677.25048 -18763526.81646  21330444.6884                   21330443.0704
   -415041.21947   -312893.33243  24216889.9694                   24216891.5234
  -5992354.84047  -4659750.68745  23223748.7344                   23223747.6644
 -27586601.13348 -21484151.59447  20411102.4924                   20411100.1644
 -16948233.28548 -13194795.63746  21800922.6094                   21800923.1884
 -28043738.70348 -21840190.89846  21565907.1804                   21565902.9344
 11  8 29  1 26 30.0000000  0  7G10G12G26G29G05G25G02
 -17092032.03947 -13307773.93444  23266565.2814                   23266564.8484
 -24070066.57848 -18744349.68746  21335128.3444                   21335126.2384
   -534458.52347   -405945.64844  24194165.9774                   24194166.4844
  -6100526.63347  -4744040.37145  23203164.3834                   23203162.7114
 -27598206.35548 -21493194.60247  20408894.0474                   20408891.9184
 -16987376.74647 -13225297.05146  21793473.8134                   21793474.6524
 -28033825.48048 -21832466.31646  21567793.6884                   21567789.6764
 11  8 29  1 27  0.0000000  0  7G10G12G26G29G05G25G02
 -17016228.77047 -13248706.49644  23280990.0314                   23280989.3094
 -24044956.91048 -18724783.73046  21339906.2734                   21339904.4924
   -653881.29347   -499002.21144  24171440.9534                   24171440.9064
  -6208663.55147  -4828302.87945  23182586.3674                   23182584.2114
 -27609254.85248 -21501803.79347  20406791.6884                   20406789.3164
 -17025934.62147 -13255342.15646  21786136.1414                   21786136.8204
 -28023813.25048 -21824664.58246  21569698.7424                   21569694.2734
 11  8 29  1 27 30.0000000  0  7G10G12G26G29G05G25G02
 -16940198.86347 -13189462.46944  23295457.7584                   23295457.5354
 -24019350.84448 -18704830.98046  21344779.3674                   21344777.3324
   -773306.27346   -592060.46544  24148714.1484                   24148714.8874
  -6316764.13747  -4912537.06645  23162015.6564                   23162014.3794
 -27619747.83248 -21509980.11747  20404794.8284                   20404792.4884
 -17063906.82048 -13284930.89546  21778910.8284                   21778911.2664
 -28013702.47348 -21816786.06246  21571623.2274                   21571618.7344
 11  8 29  1 28  0.0000000  0  7G10G12G26G29G05G25G02
 -16863946.06247 -13130044.74244  23309968.7664                   23309967.9534
 -23993251.09048 -18684493.52346  21349745.5554                   21349743.7384
   -892731.02346   -685118.60543  24125988.5234                   24125989.5084
  -6424827.36747  -4996742.14545  23141451.7974                   23141450.7894
 -27629687.46548 -21517725.26247  20402903.5634                   20402901.0474
 -17101293.92248 -13314063.71946  21771796.2194                   21771796.6724
 -28003494.25048 -21808831.61346  21573565.5784                   21573561.1524
 11  8 29  1 28 30.0000000  0  7G10G12G26G29G05G25G02
 -16787472.21147 -13070454.79344  23324521.4924                   23324520.9184
 -23966658.35248 -18663771.93746  21354805.8524                   21354804.2464
  -1012151.19546   -778173.15643  24103263.4454                   24103264.0984
  -6532850.77047  -5080916.18045  23120895.3054                   23120894.2974
 -27639073.87548 -21525039.33647  20401117.1024                   20401115.0124
 -17138094.74648 -13342739.70346  21764793.0234                   21764793.8984
 -27993188.00048 -21800800.77346  21575526.7114                   21575522.6414
 11  8 29  1 29  0.0000000  0  7G10G12G26G29G05G25G02
 -16710781.35947 -13010695.70344  23339115.0164                   23339114.1844
 -23939576.61748 -18642669.29746  21359959.5634                   21359957.6914
  -1131565.05146   -871222.75043  24080539.6804                   24080541.1724
  -6640834.38347  -5165059.20345  23100347.0164                   23100345.5164
 -27647909.69548 -21531924.37547  20399435.7194                   20399433.2194
 -17174310.79747 -13370960.02346  21757901.2734                   21757901.9184
 -27982785.36748 -21792694.84046  21577506.1724                   21577501.8484
 11  8 29  1 29 30.0000000  0  7G10G12G26G29G05G25G02
 -16633875.96147 -12950769.45344  23353749.5944                   23353748.3284
 -23912007.59048 -18621186.97746  21365205.9694                   21365203.7274
  -1250968.79746   -964264.50043  24057817.2114                   24057818.2234
  -6748775.87947  -5249169.41845  23079806.4844                   23079804.8444
 -27656195.64548 -21538380.94547  20397858.8754                   20397856.8954
 -17209941.35248 -13398724.10546  21751121.1884                   21751121.5204
 -27972286.55148 -21784513.94546  21579503.9144                   21579499.9224
 11  8 29  1 30  0.0000000  0  7G10G12G26G29G05G25G02
 -16556758.13747 -12890677.65244  23368424.7194                   23368423.4064
 -23883953.10548 -18599326.37546  21370544.3054                   21370542.6414
  -1370358.63746  -1057295.43743  24035098.7894                   24035099.1294
  -6856673.07447  -5333245.09445  23059274.1644                   23059272.6954
 -27663932.52748 -21544409.66447  20396386.6804                   20396384.1454
 -17244985.89148 -13426031.55146  21744452.7034                   21744453.0394
 -27961691.11348 -21776257.76246  21581520.0864                   21581516.1414
 11  8 29  1 30 30.0000000  0  7G10G12G26G29G05G25G02
 -16479432.01647 -12830423.55144  23383138.9924                   23383138.3444
 -23855416.23048 -18577089.87946  21375974.6804                   21375972.8364
  -1489732.32846  -1150313.73443  24012382.8204                   24012382.9614
  -6964525.41047  -5417285.82845  23038750.3284                   23038748.9884
 -27671122.73048 -21550012.39847  20395018.3594                   20395016.2074
 -17279445.44547 -13452883.16846  21737894.7664                   21737895.3954
 -27951000.16048 -21767927.16046  21583554.9614                   21583550.6764
 11  8 29  1 31  0.0000000  0  7G10G12G26G29G05G25G02
 -16401900.78947 -12770009.64544  23397892.7974                   23397892.7974
 -23826399.36348 -18554479.37146  21381496.5474                   21381494.8014
  -1609087.02746  -1243317.26643  23989669.7194                   23989670.2704
  -7072331.61347  -5501290.60545  23018235.5784                   23018234.4264
 -27677767.73848 -21555190.30547  20393753.9924                   20393751.3054
 -17313320.32448 -13479279.18746  21731448.9224                   21731449.8204
 -27940214.48048 -21759522.73046  21585607.0944                   21585602.9494
 11  8 29  1 31 30.0000000  0  7G10G12G26G29G05G25G02
 -16324167.71947 -12709438.42644  23412684.8444                   23412684.4384
 -23796905.43748 -18531497.12146  21387108.8364                   21387107.0274
  -1728420.00446  -1336303.86343  23966961.1484                   23966961.0084
  -7180090.52747  -5585258.54745  22997729.9384                   22997728.5904
 -27683869.62148 -21559945.00847  20392592.7974                   20392590.5434
 -17346611.12548 -13505220.08246  21725113.7424                   21725114.2664
 -27929334.97348 -21751045.19946  21587677.5784                   21587673.4344
 11  8 29  1 32  0.0000000  0  7G10G12G26G29G05G25G02
 -16246237.25047 -12648713.40644  23427514.5944                   23427514.1764
 -23766938.08648 -18508145.97346  21392811.8524                   21392810.0474
  -1847728.97746  -1429271.77343  23944257.5634                   23944257.6884
  -7287802.00447  -5669189.52745  22977232.8444                   22977231.5204
 -27689430.94948 -21564278.50047  20391534.5784                   20391532.0664
 -17379319.24247 -13530706.93446  21718889.9844                   21718890.6604
 -27918363.40248 -21742495.92646  21589765.1024                   21589761.2814
 11  8 29  1 32 30.0000000  0  7G10G12G26G29G05G25G02
 -16168109.18747 -12587834.39144  23442382.3524                   23442381.7194
 -23736496.63348 -18484425.39546  21398604.4844                   21398602.8134
  -1967008.16846  -1522216.48443  23921559.9064                   23921559.3404
  -7395461.55947  -5753080.03545  22956745.9064                   22956744.9104
 -27694450.54348 -21568189.85247  20390579.2664                   20390576.9694
 -17411442.12148 -13555737.75046  21712777.1724                   21712777.3404
 -27907297.29748 -21733872.98446  21591870.9614                   21591867.4454
 11  8 29  1 33  0.0000000  0  7G10G12G26G29G05G25G02
 -16089785.47347 -12526802.93044  23457286.7114                   23457285.1914
 -23705582.86348 -18460336.77346  21404487.2344                   21404485.7774
  -2086253.19546  -1615134.57044  23898867.6414                   23898868.3094
  -7503066.54747  -5836928.03545  22936269.5864                   22936267.7734
 -27698928.67248 -21571679.28147  20389726.8524                   20389724.4384
 -17442978.76648 -13580311.76646  21706775.6254                   21706776.3094
 -27896136.04748 -21725175.90646  21593994.9064                   21593990.9224
 11  8 29  1 33 30.0000000  0  7G10G12G26G29G05G25G02
 -16011271.76647 -12465623.42644  23472227.3134                   23472226.4224
 -23674201.45747 -18435883.77346  21410458.6644                   21410457.1764
  -2205463.63746  -1708025.71143  23876182.7034                   23876182.7544
  -7610618.23047  -5920734.48445  22915802.8754                   22915801.8284
 -27702869.93748 -21574750.38347  20388977.2424                   20388974.7304
 -17473932.45348 -13604431.52046  21700885.3984                   21700885.9804
 -27884882.62548 -21716407.00446  21596136.7584                   21596132.3364
 11  8 29  1 34  0.0000000  0  7G10G12G26G29G05G25G02
 -15932571.61747 -12404298.64544  23487203.8364                   23487203.1484
 -23642355.91447 -18411069.08646  21416519.1724                   21416517.4344
  -2324637.00846  -1800887.93444  23853504.9534                   23853504.5124
  -7718115.47347  -6004498.50845  22895346.9224                   22895345.3754
 -27706276.22348 -21577404.61347  20388328.9454                   20388327.0554
 -17504303.90248 -13628097.58646  21695106.0864                   21695106.7344
 -27873537.97348 -21707567.01646  21598295.0084                   21598291.1684
 11  8 29  1 34 30.0000000  0  7G10G12G26G29G05G25G02
 -15853685.28947 -12342828.80944  23502215.3444                   23502214.9494
 -23610045.35548 -18385892.05546  21422667.5944                   21422665.8444
  -2443766.92246  -1893716.34043  23830835.0474                   23830834.6374
  -7825553.60247  -6088216.48845  22874901.8524                   22874900.4844
 -27709146.43748 -21579641.13347  20387782.6334                   20387780.2194
 -17534090.59448 -13651307.98446  21689437.9384                   21689438.3714
 -27862099.71148 -21698654.07846  21600471.9384                   21600468.0744
 11  8 29  1 35  0.0000000  0  7G10G12G26G29G05G25G02
 -15774615.41447 -12281215.92644  23517261.2504                   23517260.9694
 -23577272.98847 -18360355.17646  21428903.9304                   21428902.3094
  -2562850.18746  -1986508.37944  23808174.1724                   23808174.3524
  -7932931.25447  -6171887.34445  22854468.3754                   22854466.7464
 -27711481.95348 -21581460.99647  20387338.2114                   20387335.8554
 -17563292.72748 -13674062.89146  21683880.8594                   21683881.6764
 -27850568.10947 -21689668.41846  21602666.2194                   21602662.3674
 11  8 29  1 35 30.0000000  0  7G10G12G26G29G05G25G02
 -15695365.47347 -12219462.75444  23532342.3914                   23532341.9384
 -23544041.33648 -18334460.40646  21435227.6484                   21435225.9884
  -2681884.21546  -2079262.05544  23785522.4924                   23785522.4064
  -8040247.46947  -6255510.33245  22834047.0554                   22834045.5594
 -27713285.03948 -21582865.98447  20386994.9144                   20386992.6804
 -17591911.34448 -13696363.11746  21678434.7274                   21678435.2344
 -27838944.19548 -21680610.81646  21604878.2814                   21604874.2074
 11  8 29  1 36  0.0000000  0  7G10G12G26G29G05G25G02
 -15615938.35947 -12157571.49244  23547456.9224                   23547455.6914
 -23510353.02347 -18308209.79746  21441638.1644                   21441636.4024
  -2800865.83646  -2171974.89844  23762881.0634                   23762881.3834
  -8147500.82447  -6339084.33645  22813637.7974                   22813636.0634
 -27714557.37948 -21583857.40247  20386753.1644                   20386750.5904
 -17619946.89548 -13718208.98446  21673099.8594                   21673100.5274
 -27827228.46948 -21671481.68046  21607107.5944                   21607103.3364
 11  8 29  1 36 30.0000000  0  7G10G12G26G29G05G25G02
 -15536339.31647 -12095546.29744  23562603.5554                   23562603.2234
 -23476212.87147 -18281607.11346  21448135.1884                   21448133.3134
  -2919794.00046  -2264646.06644  23740249.3594                   23740249.5864
  -8254691.45347  -6422609.46145  22793239.7114                   22793238.2464
 -27715302.76648 -21584438.20747  20386610.9844                   20386608.7544
 -17647402.00047 -13739602.56646  21667875.3444                   21667875.8134
 -27815423.18748 -21662282.75846  21609354.1954                   21609350.0744
 11  8 29  1 37  0.0000000  0  8G10G12G26G29G05G15G25G02
 -15456569.09047 -12033387.70744  23577783.6094                   23577783.4614
 -23441621.72747 -18254652.99646  21454717.6254                   21454715.8014
  -3038663.59846  -2357271.61744  23717629.5004                   23717629.6994
  -8361816.14847  -6506083.18745  22772853.7584                   22772853.0164
 -27715521.27348 -21584608.45347  20386569.2664                   20386567.2664
   4553892.61356   3559099.36754  24637834.1804                   24637836.0944
 -17674275.32048 -13760542.81646  21662761.4774                   21662762.0984
 -27803527.09448 -21653013.07446  21611618.3674                   21611613.7424
 11  8 29  1 37 30.0000000  0  8G10G12G26G29G05G15G25G02
 -15376637.50047 -11971103.39544  23592994.7274                   23592993.4264
 -23406588.72747 -18227354.57446  21461384.3284                   21461382.3914
  -3157477.96146  -2449854.12544  23695019.4384                   23695019.8484
  -8468880.07847  -6589509.57845  22752480.7114                   22752479.4064
 -27715220.89548 -21584374.37947  20386626.5314                   20386624.8094
   4436496.04346   3467621.80143  24615494.1564                   24615496.2384
 -17700573.96547 -13781035.25846  21657756.5944                   21657757.7114
 -27791547.12148 -21643678.03146  21613897.8674                   21613894.1174
 11  8 29  1 38  0.0000000  0  8G10G12G26G29G05G15G25G02
 -15296551.40647 -11908698.69144  23608234.4694                   23608233.9264
 -23371119.88347 -18199716.53546  21468134.3284                   21468131.8164
  -3276237.56246  -2542393.94144  23672420.2734                   23672420.8164
  -8575885.06247  -6672890.03945  22732118.3754                   22732117.2664
 -27714407.21148 -21583740.32447  20386781.3984                   20386779.1094
   4318964.45346   3376038.96943  24593128.0554                   24593129.4304
 -17726302.16447 -13801083.20346  21652861.1414                   21652861.6954
 -27779487.34448 -21634280.80946  21616192.7114                   21616188.4184
 11  8 29  1 38 30.0000000  0  8G10G12G26G29G05G15G25G02
 -15216310.39547 -11846173.24244  23623504.0234                   23623502.2504
 -23335215.32447 -18171738.97346  21474966.1644                   21474964.7154
  -3394936.17246  -2634886.25844  23649832.7344                   23649832.8364
  -8682826.75047  -6756221.19145  22711767.7974                   22711766.6374
 -27713079.19548 -21582705.49247  20387034.0314                   20387031.7464
   4201302.64146   3284354.71543  24570738.3134                   24570738.9884
 -17751457.62148 -13820684.85946  21648074.2814                   21648074.7234
 -27767345.35247 -21624819.52346  21618502.9534                   21618499.1024
 11  8 29  1 39  0.0000000  0  8G10G12G26G29G05G15G25G02
 -15135914.63347 -11783527.23044  23638802.7814                   23638802.1414
 -23298874.69547 -18143421.61746  21481881.4614                   21481879.8404
  -3513567.55946  -2727326.16444  23627257.7504                   23627257.6454
  -8789700.37547  -6839499.30145  22691430.5704                   22691428.8674
 -27711235.77348 -21581269.03547  20387384.7664                   20387382.6994
   4083516.16846   3192573.28943  24548323.1094                   24548325.3484
 -17776037.85548 -13839838.28546  21643396.6644                   21643397.1294
 -27755118.11747 -21615291.82446  21620829.9064                   21620825.6564
 11  8 29  1 39 30.0000000  0  8G10G12G26G29G05G15G25G02
 -15055365.50447 -11720761.71144  23654130.7664                   23654129.5904
 -23262099.30147 -18114765.47746  21488879.6954                   21488877.6804
  -3632127.06246  -2819710.05144  23604696.1954                   23604696.5744
  -8896502.96147  -6922722.04745  22671106.5784                   22671105.2774
 -27708877.32048 -21579431.27047  20387833.7504                   20387831.2384
   3965608.64146   3100697.55543  24525886.4844                   24525889.0554
 -17800042.27048 -13858543.02346  21638828.8914                   21638829.2894
 -27742805.12948 -21605697.28946  21623172.8284                   21623168.9574
 11  8 29  1 40  0.0000000  0  8G10G12G26G29G05G15G25G02
 -14974664.36747 -11657877.74243  23669487.2974                   23669486.8404
 -23224890.10547 -18085771.31246  21495960.0554                   21495958.5904
  -3750610.07847  -2912034.37544  23582150.0084                   23582150.2974
  -9003231.30147  -7005886.94945  22650796.9384                   22650795.7504
 -27706003.93048 -21577192.24647  20388380.2504                   20388378.1374
   3847583.76646   3008730.40243  24503426.2504                   24503429.3014
 -17823469.93047 -13876798.36346  21634370.7734                   21634371.2814
 -27730404.94947 -21596034.82046  21625532.5474                   21625528.9064
 11  8 29  1 40 30.0000000  0  8G10G12G26G29G05G15G25G02
 -14893813.31647 -11594876.93043  23684872.4844                   23684871.5944
 -23187248.78547 -18056440.43446  21503123.2034                   21503121.4574
  -3869012.09447  -3004295.57044  23559618.7734                   23559619.3444
  -9109882.86747  -7088992.02345  22630501.8444                   22630500.4774
 -27702616.59848 -21574552.74647  20389025.5394                   20389022.7934
   3729444.78146   2916674.33243  24480945.2114                   24480947.5234
 -17846320.53948 -13894604.03946  21630022.4304                   21630022.9064
 -27717916.59448 -21586303.64846  21627909.2584                   21627905.1374
 11  8 29  1 41  0.0000000  0  8G10G12G26G29G05G15G25G02
 -14812812.40647 -11531759.38743  23700287.1024                   23700286.0984
 -23149175.48047 -18026772.93046  21510368.1254                   21510366.6174
  -3987327.19147  -3096489.03144  23537104.4694                   23537103.8484
  -9216453.18047  -7172033.78545  22610221.9454                   22610220.9734
 -27698714.52348 -21571512.15647  20389767.9224                   20389765.5394
   3611196.88346   2824533.40243  24458443.3914                   24458445.3164
 -17868592.00047 -13911958.43446  21625784.4224                   21625784.9964
 -27705338.30547 -21576502.39546  21630302.4844                   21630298.5274
 11  8 29  1 41 30.0000000  0  8G10G12G26G29G05G15G25G02
 -14731665.18447 -11468527.80143  23715728.6644                   23715727.9224
 -23110673.61747 -17996771.48446  21517694.9534                   21517693.3404
  -4105552.77747  -3188612.75044  23514606.5554                   23514606.2304
  -9322941.26647  -7255011.46545  22589958.1884                   22589956.7774
 -27694300.28548 -21568072.48047  20390607.7814                   20390605.2424
   3492842.04346   2732309.17243  24435920.6884                   24435922.4344
 -17890285.73848 -13928862.66046  21621656.1334                   21621656.5744
 -27692670.78947 -21566631.61346  21632713.2034                   21632709.4804
 11  8 29  1 42  0.0000000  0  8G10G12G26G29G05G15G25G02
 -14650375.49247 -11405185.23443  23731197.8364                   23731196.6174
 -23071746.76647 -17966438.87546  21525102.6644                   21525101.1334
  -4223686.43747  -3280664.83244  23492126.7034                   23492125.9384
  -9429346.40247  -7337924.50045  22569710.2894                   22569708.4804
 -27689376.49648 -21564235.74647  20391544.6724                   20391542.3484
   3374381.01146   2640002.23443  24413378.3524                   24413379.8014
 -17911403.50848 -13945318.07446  21617637.4064                   21617638.0984
 -27679915.30147 -21556692.28546  21635140.4144                   21635136.3874
 11  8 29  1 42 30.0000000  0  8G10G12G26G29G05G15G25G02
 -14568945.78946 -11341733.54743  23746692.8204                   23746692.3634
 -23032397.51248 -17935777.12946  21532590.4064                   21532588.6294
  -4341724.50847  -3372642.43044  23469664.5084                   23469663.8834
  -9535666.59447  -7420771.35545  22549477.8204                   22549476.4614
 -27683944.78548 -21560003.23447  20392578.3284                   20392575.9614
   3255816.80146   2547614.80943  24390816.1804                   24390817.7894
 -17931945.71548 -13961325.00046  21613728.1564                   21613729.0314
 -27667071.65647 -21546684.26246  21637584.3134                   21637580.6024
 11  8 29  1 43  0.0000000  0  8G10G12G26G29G05G15G25G02
 -14487378.35547 -11278174.55943  23762214.7894                   23762214.1094
 -22992628.12948 -17904787.99646  21540157.9844                   21540156.6214
  -4459663.42647  -3464542.80144  23447221.5314                   23447220.3674
  -9641899.57847  -7503550.25045  22529262.4924                   22529260.7584
 -27678006.64148 -21555376.09847  20393708.0554                   20393705.9574
   3137152.15646   2455149.14143  24368235.0084                   24368236.2194
 -17951912.73448 -13976883.72346  21609928.9844                   21609929.1094
 -27654139.97347 -21536607.63346  21640045.4144                   21640041.7464
 11  8 29  1 43 30.0000000  0  8G10G12G26G29G05G15G25G02
 -14405676.31646 -11214510.67643  23777762.5394                   23777761.4414
 -22952442.01647 -17873474.16446  21547805.6094                   21547803.9964
  -4577500.04747  -3556363.43044  23424797.0554                   23424796.8794
  -9748044.14147  -7586260.25845  22509063.5554                   22509061.3954
 -27671564.79748 -21550356.46947  20394934.0634                   20394931.5984
   3018389.00846   2362606.67244  24345634.7424                   24345636.2974
 -17971305.98448 -13991995.36346  21606238.5164                   21606238.8984
 -27641120.96947 -21526462.97346  21642522.8284                   21642519.1254
 11  8 29  1 44  0.0000000  0  8G10G12G26G29G05G15G25G02
 -14323842.43446 -11150744.06643  23793334.7274                   23793334.5744
 -22911841.00447 -17841837.00846  21555531.7664                   21555530.0124
  -4695230.60547  -3648101.41044  23402394.4384                   23402393.2584
  -9854098.18747  -7668899.73445  22488882.4534                   22488880.3204
 -27664620.30948 -21544945.17247  20396255.5394                   20396253.1914
   2899530.35946   2269989.82044  24323017.0704                   24323017.6804
 -17990125.55148 -14006659.97346  21602657.4144                   21602657.7274
 -27628013.89847 -21516249.67246  21645017.1414                   21645012.9964
 11  8 29  1 44 30.0000000  0  8G10G12G26G29G05G15G25G02
 -14241876.42646 -11086874.53943  23808932.5314                   23808931.6804
 -22870825.17647 -17809876.63346  21563336.6564                   21563335.0514
  -4812848.84447  -3739751.88744  23380012.1334                   23380011.3054
  -9960056.68447  -7751464.74645  22468718.6024                   22468717.2544
 -27657172.27748 -21539141.50847  20397672.9064                   20397670.3444
   2780581.60947   2177302.72344  24300381.5394                   24300382.7854
 -18008369.44147 -14020876.00046  21599185.3204                   21599185.7974
 -27614816.77047 -21505966.20746  21647528.4144                   21647524.1644
 11  8 29  1 45  0.0000000  0  8G10G12G26G29G05G15G25G02
 -14159783.63747 -11022906.19144  23824554.5004                   23824553.4104
 -22829400.02747 -17777597.30946  21571219.5784                   21571217.8204
  -4930354.32847  -3831314.50844  23357651.2814                   23357650.9804
 -10065920.66047  -7833956.12145  22448573.7814                   22448571.9694
 -27649225.57848 -21532949.25847  20399184.8524                   20399182.6914
   2661542.19547   2084544.98444  24277728.7974                   24277729.6914
 -18026041.29748 -14034646.28946  21595822.4844                   21595823.3754
 -27601532.15247 -21495614.55546  21650056.3284                   21650052.1884
 11  8 29  1 45 30.0000000  0  8G10G12G26G29G05G15G25G02
 -14077566.71147 -10958841.09043  23840199.8364                   23840199.0044
 -22787567.93447 -17745000.89546  21579180.3524                   21579178.5554
  -5047742.87147  -3922786.00844  23335312.7504                   23335312.7704
 -10171688.10547  -7916372.26645  22428446.7664                   22428444.9804
 -27640781.67248 -21526369.58647  20400791.8134                   20400789.5084
   2542415.15647   1991718.97344  24255059.2194                   24255060.1094
 -18043141.61347 -14047971.20746  21592568.5084                   21592569.3284
 -27588159.72347 -21485194.49246  21652601.5004                   21652597.1454
 11  8 29  1 46  0.0000000  0  8G10G12G26G29G05G15G25G02
 -13995228.39147 -10894681.45344  23855868.4304                   23855867.5434
 -22745331.93747 -17712089.73846  21587217.4224                   21587215.5824
  -5165011.39147  -4014163.96944  23312997.6724                   23312997.0314
 -10277357.28547  -7998711.85245  22408338.5164                   22408336.8054
 -27631842.59448 -21519404.07047  20402492.6174                   20402490.5164
   2423202.84046   1898826.48044  24232373.6024                   24232374.5824
 -18059671.44148 -14060851.60546  21589423.0474                   21589423.9494
 -27574700.24247 -21474706.58646  21655162.2114                   21655158.1094
 11  8 29  1 46 30.0000000  0  8G10G12G26G29G05G15G25G02
 -13912771.89547 -10830429.69544  23871559.3364                   23871558.7034
 -22702694.85547 -17678866.05946  21595330.8754                   21595329.2734
  -5282156.78947  -4105446.01644  23290705.2894                   23290705.1764
 -10382926.58247  -8080973.59045  22388248.4534                   22388247.5394
 -27622410.59048 -21512054.44947  20404287.8134                   20404285.2704
   2303907.41446   1805869.25844  24209672.5164                   24209673.4384
 -18075631.95748 -14073288.36746  21586385.9384                   21586386.5274
 -27561154.10947 -21464151.16046  21657740.0234                   21657736.2344
 11  8 29  1 47  0.0000000  0  8G10G12G26G29G05G15G25G02
 -13830199.23447 -10766087.42244  23887272.5394                   23887271.7774
 -22659659.53147 -17645332.05146  21603520.0634                   21603518.4264
  -5399175.02347  -4196628.94944  23268437.3914                   23268436.8874
 -10488393.88747  -8163155.86345  22368179.7034                   22368177.7114
 -27612487.51648 -21504322.18047  20406176.1174                   20406173.4534
   2184531.42246   1712849.18844  24186955.6564                   24186957.1724
 -18091023.83247 -14085282.04346  21583456.9534                   21583457.5044
 -27547520.76247 -21453527.77346  21660334.7814                   21660330.6214
 11  8 29  1 47 30.0000000  0  8G10G12G26G29G05G15G25G02
 -13747514.18046 -10701657.59043  23903006.4844                   23903006.2074
 -22616229.39547 -17611490.41446  21611784.8284                   21611783.0704
  -5516063.86747  -4287711.04744  23246193.4304                   23246193.8094
 -10593758.38347  -8245258.02345  22348129.1724                   22348127.3754
 -27602076.27048 -21496209.51247  20408157.0864                   20408154.7194
   2065076.75046   1619767.86343  24164223.8364                   24164224.5274
 -18105848.91448 -14096834.05146  21580635.9304                   21580636.5664
 -27533801.50847 -21442837.43446  21662945.2734                   21662941.0084
 11  8 29  1 48  0.0000000  0  8G10G12G26G29G05G15G25G02
 -13664716.02747 -10637139.61743  23918762.9844                   23918762.4774
 -22572404.24648 -17577340.96946  21620124.6724                   21620123.1214
  -5632816.45747  -4378687.00044  23223976.6334                   23223975.8204
 -10699014.75447  -8327275.95745  22328099.5554                   22328098.0704
 -27591175.25048 -21487715.20747  20410231.5314                   20410229.2504
   1945549.35246   1526629.85243  24141478.0944                   24141478.3794
 -18120104.87148 -14107942.59046  21577922.9144                   21577923.9104
 -27519993.30947 -21432077.79746  21665572.4694                   21665568.9344
 11  8 29  1 48 30.0000000  0  8G10G12G26G29G05G15G25G02
 -13581809.69546 -10572537.34843  23934539.6254                   23934538.7774
 -22528188.57048 -17542887.21546  21628538.7664                   21628536.7034
  -5749431.08247  -4469555.43044  23201785.7504                   23201784.9924
 -10804162.78547  -8409209.44945  22308090.5314                   22308088.9964
 -27579788.53148 -21478842.43447  20412398.3834                   20412395.7304
   1825949.94946   1433435.73443  24118719.0004                   24118720.0984
 -18133794.59448 -14118609.91846  21575318.1644                   21575318.4614
 -27506098.20347 -21421250.43446  21668216.8204                   21668212.7154
 11  8 29  1 49  0.0000000  0  8G10G12G26G29G05G15G25G02
 -13498797.03546 -10507852.19543  23950336.3754                   23950336.1884
 -22483584.45748 -17508130.78946  21637026.3054                   21637024.4144
  -5865903.96547  -4560313.41844  23179621.6094                   23179621.7974
 -10909200.45347  -8491056.93045  22288102.9384                   22288101.2704
 -27567917.56648 -21469592.33247  20414657.4774                   20414654.6724
   1706281.16446   1340187.48843  24095946.4304                   24095947.4264
 -18146918.73048 -14128836.51646  21572820.2274                   21572821.0354
 -27492115.49247 -21410354.80946  21670877.6024                   21670873.7624
 11  8 29  1 49 30.0000000  0  8G10G12G26G29G05G15G25G02
 -13415681.68746 -10443087.04343  23966152.6724                   23966152.1884
 -22438595.71147 -17473074.64546  21645587.6564                   21645585.5984
  -5982232.32447  -4650958.81244  23157484.5784                   23157484.6484
 -11014126.42647  -8572817.39545  22268135.7114                   22268134.6374
 -27555565.48848 -21459967.33247  20417008.1414                   20417005.5594
   1586545.00846   1246886.83643  24073161.7664                   24073161.9024
 -18159479.03548 -14138623.77746  21570430.3984                   21570430.8404
 -27478046.32847 -21399391.82046  21673555.0784                   21673550.9804
 11  8 29  1 50  0.0000000  0  8G10G12G26G29G05G15G25G02
 -13332466.95346 -10378244.48443  23981988.3674                   23981987.6804
 -22393226.68048 -17437722.18046  21654220.9224                   21654219.2814
  -6098413.48447  -4741489.46544  23135376.1414                   23135376.1764
 -11118939.81647  -8654490.13345  22248190.2424                   22248189.0164
 -27542734.77348 -21449969.37147  20419449.4924                   20419446.9884
   1466743.46947   1153535.12543  24050364.2664                   24050364.3524
 -18171477.49248 -14147973.22746  21568146.9844                   21568147.5354
 -27463891.68747 -21388362.22746  21676248.7734                   21676244.4184
 11  8 29  1 50 30.0000000  0  8G10G12G26G29G05G15G25G02
 -13249153.34846 -10313324.88343  23997842.0474                   23997841.1484
 -22347477.37147 -17402073.39146  21662926.5864                   21662925.1724
  -6214441.94147  -4831901.14544  23113296.7504                   23113296.5434
 -11223636.51247  -8736071.94145  22228267.2974                   22228265.6454
 -27529425.70747 -21439598.66847  20421982.3364                   20421979.3984
   1346880.73847   1060135.80144  24027555.4384                   24027555.3954
 -18182913.12948 -14156884.11746  21565971.1254                   21565971.6134
 -27449649.57047 -21377264.46546  21678958.7344                   21678954.4104
 11  8 29  1 51  0.0000000  0  8G10G12G26G29G05G15G25G02
 -13165743.48846 -10248330.22743  24013714.6804                   24013713.0744
 -22301350.84847 -17366130.66446  21671704.4064                   21671702.5314
  -6330313.94547  -4922190.91844  23091246.8134                   23091246.8714
 -11328214.38347  -8817561.16445  22208366.4844                   22208364.9734
 -27515640.02348 -21428856.57447  20424605.6644                   20424602.8484
   1226959.76647    966691.06344  24004734.5864                   24004735.3164
 -18193786.79748 -14165357.11746  21563901.5474                   21563902.3284
 -27435319.91847 -21366098.49645  21681685.3204                   21681681.4804
 11  8 29  1 51 30.0000000  0  8G10G12G26G29G05G15G25G02
 -13082239.71146 -10183262.41043  24029605.6644                   24029604.0514
 -22254849.87947 -17329896.16846  21680553.2274                   21680551.3674
  -6446025.97347  -5012356.05144  23069227.3364                   23069226.9614
 -11432671.38747  -8898956.20745  22188489.1024                   22188487.3364
 -27501379.95348 -21417744.82847  20427319.1174                   20427316.8014
   1106983.26246    873203.02344  23981903.7344                   23981904.2584
 -18204099.64148 -14173393.09846  21561939.2344                   21561939.7034
 -27420902.81647 -21354864.38346  21684429.2814                   21684425.1684
 11  8 29  1 52  0.0000000  0  8G10G12G26G29G05G15G25G02
 -12998644.39546 -10118123.23843  24045512.2344                   24045511.4454
 -22207976.73848 -17293371.66046  21689472.4534                   21689471.1954
  -6561574.21147  -5102393.53545  23047239.9694                   23047238.5084
 -11537005.37147  -8980255.39845  22168635.1804                   22168633.3204
 -27486647.14148 -21406264.70747  20430122.7734                   20430120.1174
    986954.18847    779674.05944  23959062.7974                   23959062.7274
 -18213852.64848 -14180992.85946  21560083.3834                   21560083.8984
 -27406397.83247 -21343561.79345  21687189.0084                   21687184.7814
 11  8 29  1 52 30.0000000  0  8G10G12G26G29G05G15G25G02
 -12914960.13346 -10052914.80943  24061437.2424                   24061436.0634
 -22160733.97747 -17256559.15646  21698463.0784                   21698461.1684
  -6676955.11747  -5192300.66044  23025283.2894                   23025282.5944
 -11641214.32047  -9061457.14545  22148804.7814                   22148803.0704
 -27471443.71147 -21394417.87147  20433015.9924                   20433013.3874
    866875.17247    686106.18044  23936212.5864                   23936212.9774
 -18223046.77348 -14188157.12546  21558333.7034                   21558334.5354
 -27391805.02047 -21332190.77745  21689965.9924                   21689962.3244
 11  8 29  1 53  0.0000000  0  8G10G12G26G29G05G15G25G02
 -12831190.75046  -9987640.01244  24077377.8444                   24077377.4384
 -22113126.66447 -17219462.56246  21707522.1174                   21707520.1174
  -6792165.95347  -5282075.23844  23003359.3444                   23003358.4414
 -11745297.19147  -9142560.65645  22128998.3834                   22128996.8834
 -27455772.85548 -21382206.80947  20435997.8834                   20435995.1374
    746747.98847    592500.73844  23913353.4224                   23913353.5664
 -18231684.28548 -14194887.67246  21556690.0394                   21556691.0514
 -27377125.62947 -21320752.27345  21692759.5554                   21692755.2584
 11  8 29  1 53 30.0000000  0  8G10G12G26G29G05G15G25G02
 -12747338.57846  -9922300.69543  24093334.9774                   24093334.0044
 -22065156.91048 -17182083.54346  21716650.4774                   21716648.9774
  -6907203.28947  -5371714.64844  22981468.5004                   22981467.5864
 -11849251.89547  -9223564.28146  22109216.2424                   22109214.6914
 -27439636.57048 -21369633.07047  20439068.4924                   20439065.9304
    626575.17647    498859.77044  23890484.7424                   23890485.0354
 -18239766.33648 -14201185.37546  21555152.4144                   21555152.5744
 -27362359.24647 -21309246.01645  21695569.6254                   21695565.4264
 11  8 29  1 54  0.0000000  0  8G10G12G26G29G05G15G25G02
 -12663405.64146  -9856898.46544  24109306.9534                   24109306.2894
 -22016827.03947 -17144423.92246  21725847.4534                   21725845.5944
  -7022063.44147  -5461215.94944  22959610.9774                   22959609.7814
 -11953076.06647  -9304466.19145  22089459.4304                   22089457.5944
 -27423036.59447 -21356698.02047  20442227.4224                   20442224.6454
    506359.68047    405185.53944  23867608.3444                   23867608.4804
 -18247293.98048 -14207051.08646  21553719.8444                   21553720.4964
 -27347505.89147 -21297671.96945  21698395.6954                   21698391.5434
 11  8 29  1 54 30.0000000  0  8G10G12G26G29G05G15G25G02
 -12579395.69546  -9791436.23844  24125293.3984                   24125292.8484
 -21968141.26647 -17106486.96946  21735112.3594                   21735110.3244
  -7136743.81247  -5550577.19144  22937787.9304                   22937786.8204
 -12056769.05547  -9385265.88745  22069727.0164                   22069725.6684
 -27405976.31648 -21343404.29747  20445473.7974                   20445471.1414
    386102.97347    311479.20344  23844724.1334                   23844723.9804
 -18254269.69548 -14212486.72346  21552392.2894                   21552393.0514
 -27332566.61748 -21286030.97345  21701238.8204                   21701234.4574
 11  8 29  1 55  0.0000000  0  8G10G12G26G29G05G15G25G02
 -12495309.72746  -9725914.78544  24141294.4614                   24141294.2344
 -21919101.46148 -17068274.15646  21744444.1804                   21744442.3134
  -7251239.40647  -5639794.44944  22916000.1024                   22915998.1294
 -12160327.25047  -9465960.54745  22050020.6414                   22050019.0044
 -27388456.50448 -21329752.49247  20448807.9774                   20448804.9304
    265809.23047    217744.00044  23821832.3284                   23821832.3284
 -18260693.19948 -14217492.07046  21551169.8204                   21551170.4224
 -27317540.28947 -21274322.17245  21704098.0004                   21704094.8754
 11  8 29  1 55 30.0000000  0  8G10G12G26G29G05G15G25G02
 -12411149.96946  -9660335.78143  24157309.4304                   24157309.3524
 -21869710.21148 -17029787.48046  21753843.0234                   21753841.2424
  -7365546.29747  -5728864.64144  22894248.0554                   22894246.9774
 -12263748.05147  -9546548.14545  22030340.1954                   22030338.8794
 -27370478.70348 -21315743.80947  20452228.7034                   20452226.4304
    145481.86347    123982.59844  23798935.4064                   23798935.7114
 -18266565.37548 -14222067.82046  21550052.4694                   21550053.2974
 -27302426.06247 -21262544.85246  21706974.5864                   21706970.2384
 11  8 29  1 56  0.0000000  0  8G10G12G26G29G05G15G25G02
 -12326920.42246  -9594702.41443  24173337.0084                   24173337.5824
 -21819971.30148 -16991029.91046  21763307.8134                   21763306.4654
  -7479661.75447  -5817785.69144  22872532.2424                   22872531.3244
 -12367030.56247  -9627027.99246  22010686.1484                   22010684.6764
 -27352046.44148 -21301381.00447  20455736.3594                   20455734.1134
     25122.09846     30195.92244  23776031.1094                   23776031.9774
 -18271888.85548 -14226216.00446  21549039.8444                   21549040.3324
 -27287225.35247 -21250700.14846  21709866.8984                   21709862.7544
 11  8 29  1 56 30.0000000  0  8G10G12G26G29G05G15G25G02
 -12242625.15245  -9529017.86743  24189378.3524                   24189378.2344
 -21769889.45747 -16952005.10546  21772838.3444                   21772836.5274
  -7593584.54347  -5906556.60944  22850853.9844                   22850852.4574
 -12470175.08247  -9707400.30146  21991058.3444                   21991056.8164
 -27333163.80948 -21286667.27047  20459329.8284                   20459327.1684
    -95268.91046    -63615.04744  23753121.6334                   23753121.7894
 -18276666.80548 -14229939.09846  21548130.6174                   21548131.2894
 -27271940.04347 -21238789.53146  21712775.5234                   21712772.1094
 11  8 29  1 57  0.0000000  0  8G10G12G26G29G05G15G25G02
 -10582844.30946  -8235682.21543  24505224.5784                   24505224.5274
 -20144044.24247 -15685112.73846  22082226.5554                   22082224.6764
  -6131881.77747  -4767567.36744  23129006.4224                   23129005.3754
 -10997750.79347  -8560056.65646  22271251.8364                   22271249.8874
 -25738408.25448 -20044000.60247  20762801.3914                   20762798.8204
   1359740.40246   1070158.59844  24030000.4614                   24029999.8204
 -16705475.42248 -13005634.13746  21847118.3834                   21847119.0554
 -25681145.34847 -19999209.25846  22015493.9064                   22015489.5314
 11  8 29  1 57 30.0000000  0  8G10G12G26G29G05G15G25G02
 -10498417.43746  -8169895.08643  24521290.3674                   24521289.7974
 -20093277.51647 -15645554.27346  22091887.1724                   22091885.0314
  -6245400.30147  -4856023.28144  23107404.2664                   23107403.6174
 -11100604.93047  -8640202.69146  22251678.6724                   22251677.4804
 -25718623.55148 -20028583.94546  20766566.1724                   20766563.7584
   1239302.27346    976310.90644  24007080.7814                   24007081.6524
 -16709158.77048 -13008504.29746  21846417.2734                   21846418.1644
 -25665682.88347 -19987160.59045  22018436.1884                   22018432.3444
 11  8 29  1 58  0.0000000  0  8G10G12G26G29G05G15G25G02
 -10413930.17646  -8104060.93042  24537368.0554                   24537367.0044
 -20042174.89547 -15605734.05146  22101611.2194                   22101609.6724
  -6358713.00047  -4944318.80944  23085842.1644                   23085840.2234
 -11203312.29347  -8720234.36746  22232134.3834                   22232132.6294
 -25698392.77048 -20012819.69547  20770415.8284                   20770413.8754
   1118843.24246    882446.85944  23984159.0704                   23984158.9454
 -16712298.68048 -13010951.00446  21845819.7504                   21845820.2704
 -25650133.41847 -19975044.13345  22021395.2114                   22021391.1844
 11  8 29  1 58 30.0000000  0  8G10G12G26G29G05G15G25G02
 -10329384.37946  -8038181.09442  24553456.4064                   24553455.6684
 -19990737.93748 -15565653.32446  22111399.7194                   22111397.8284
  -6471815.86347  -5032450.80944  23064319.0164                   23064317.5084
 -11305870.34447  -8800149.68046  22212618.0234                   22212616.8594
 -25677717.50448 -19996709.10546  20774350.4224                   20774347.9184
    998366.21146    788568.78944  23961232.5234                   23961233.0984
 -16714896.08248 -13012974.98046  21845325.6564                   21845326.4304
 -25634496.41047 -19962859.47345  22024371.2894                   22024366.8484
 11  8 29  1 59  0.0000000  0  8G10G12G26G29G05G15G25G02
 -10244783.98046  -7972258.71942  24569555.0864                   24569554.8054
 -19938972.50448 -15525316.62946  22121249.7664                   22121248.6334
  -6584706.59047  -5120417.53144  23042836.6954                   23042836.1884
 -11408278.65247  -8879948.32446  22193130.5314                   22193128.9104
 -25656601.77048 -19980255.28546  20778368.6724                   20778366.0234
    877872.68847    694677.86744  23938303.9144                   23938303.2424
 -16716953.95348 -13014578.53946  21844933.9614                   21844934.5984
 -25618773.28148 -19950607.68746  22027362.8834                   22027359.0474
 11  8 29  1 59 30.0000000  0  8G10G12G26G29G05G15G25G02
 -10160130.55146  -7906295.06643  24585664.2274                   24585663.9414
 -19886879.75048 -15484724.89146  22131163.5944                   22131161.6334
  -6697380.79747  -5208215.55545  23021395.1094                   23021394.2194
 -11510534.15247  -8959627.87546  22173672.0004                   22173670.3524
 -25635046.91848 -19963459.29747  20782470.3204                   20782467.7814
    757366.35246    600776.95744  23915371.5084                   23915371.6524
 -16718472.85948 -13015762.10946  21844644.9454                   21844645.7624
 -25602963.36348 -19938288.29345  22030371.5164                   22030367.5984
 11  8 29  2  0  0.0000000  0  8G10G12G26G29G05G15G25G02
 -10075425.89146  -7840291.45743  24601783.5314                   24601783.1644
 -19834462.43048 -15443880.23046  22141137.8284                   22141136.0944
  -6809834.38347  -5295841.65645  22999995.9304                   22999994.6054
 -11612633.95748  -9039186.12946  22154242.9694                   22154241.4304
 -25613054.44948 -19946322.30946  20786655.3204                   20786652.8444
    636850.19147    506868.38344  23892438.8754                   23892437.7114
 -16719453.89148 -13016526.55946  21844458.3984                   21844459.0314
 -25587065.44547 -19925900.32445  22033396.4694                   22033392.9654
 11  8 29  2  0 30.0000000  0  8G10G12G26G29G05G15G25G02
  -9990671.44946  -7774249.03143  24617911.4144                   24617911.5004
 -19781722.12548 -15402783.89546  22151173.7504                   22151172.1454
  -6922062.55947  -5383292.10945  22978639.3754                   22978638.2464
 -11714575.16448  -9118620.79346  22134844.2344                   22134842.5984
 -25590625.61348 -19928845.29346  20790923.7274                   20790921.1844
    516328.45747    412955.47344  23869504.2034                   23869503.4924
 -16719897.35948 -13016872.13346  21844374.2734                   21844374.3594
 -25571078.90248 -19913443.28145  22036439.3594                   22036434.6604
 11  8 29  2  1  0.0000000  0  8G10G12G26G29G05G15G25G02
  -9905871.95346  -7708171.50443  24634048.1804                   24634048.0354
 -19728664.24247 -15361440.10546  22161270.4144                   22161268.9884
  -7034064.10947  -5470565.96145  22957326.3594                   22957326.1914
 -11816357.86348  -9197931.93446  22115475.5784                   22115473.7544
 -25567765.19148 -19911031.98047  20795273.7194                   20795271.2464
    395801.46146    319038.47744  23846568.1644                   23846567.8714
 -16719807.25448 -13016801.92646  21844391.4304                   21844391.9574
 -25555005.47748 -19900918.54346  22039497.5944                   22039494.0084
 11  8 29  2  1 30.0000000  0  8G10G12G26G29G05G15G25G02
  -9821026.65246  -7642058.27743  24650193.5394                   24650193.9774
 -19675288.68447 -15319848.77346  22171427.4304                   22171425.8634
  -7145832.47747  -5557658.13345  22936057.5554                   22936056.6134
 -11917976.89548  -9277115.54746  22096138.1644                   22096136.0904
 -25544472.18748 -19892881.57847  20799706.1484                   20799703.2814
    275275.12947    225121.98444  23823633.0084                   23823632.2424
 -16719182.19148 -13016314.87546  21844510.0864                   21844510.6054
 -25538842.65648 -19888324.14845  22042573.0164                   22042569.0664
 11  8 29  2  2  0.0000000  0  8G10G12G26G29G05G15G25G02
  -9736139.34446  -7575912.32443  24666347.6094                   24666346.8324
 -19621600.18747 -15278013.59846  22181644.1884                   22181642.5204
  -7257365.09447  -5644566.59845  22914833.8134                   22914832.4064
 -12019431.34048  -9356170.90646  22076831.8134                   22076830.0234
 -25520750.14148 -19874396.87146  20804220.5084                   20804217.7664
    154750.92246    131207.16044  23800697.2894                   23800696.7154
 -16718025.02348 -13015413.18046  21844730.3754                   21844730.9024
 -25522591.37548 -19875660.82445  22045665.6564                   22045662.1134
 11  8 29  2  2 30.0000000  0  8G10G12G26G29G05G15G25G02
  -9651214.04346  -7509736.77743  24682507.8914                   24682507.5984
 -19567603.19547 -15235938.03546  22191919.2504                   22191917.8244
  -7368660.33647  -5731290.09445  22893654.7114                   22893653.8164
 -12120720.94548  -9435097.82446  22057557.4384                   22057555.2734
 -25496603.18048 -19855581.05947  20808815.5004                   20808812.9344
     34229.91047     37294.86744  23777762.9614                   23777762.6094
 -16716339.02748 -13014099.41846  21845050.9304                   21845051.9804
 -25506253.26648 -19862929.83245  22048774.6334                   22048770.3404
 11  8 29  2  3  0.0000000  0  7G12G26G29G05G15G25G02
 -19513300.12148 -15193623.97746  22202253.0234                   22202251.5004
  -7479713.80147  -5817825.18445  22872522.1254                   22872521.5164
 -12221842.42648  -9513893.73446  22038314.0234                   22038312.5864
 -25472033.09048 -19836435.53946  20813490.9144                   20813488.6094
    -86284.39847    -56612.24644  23754829.7894                   23754829.2664
 -16714125.32048 -13012374.44546  21845472.0164                   21845472.8404
 -25489827.52748 -19850130.56245  22051900.5554                   22051896.5204
 11  8 29  2  3 30.0000000  0  7G12G26G29G05G15G25G02
 -19458692.28147 -15151072.43046  22212644.4694                   22212643.0164
  -7590520.20747  -5904167.77745  22851436.2664                   22851435.2854
 -12322792.42648  -9592556.02746  22019104.0704                   22019101.9734
 -25447040.37148 -19816960.68747  20818247.0394                   20818244.8014
   -206787.06247   -150510.27044  23731898.6334                   23731897.5784
 -16711383.80948 -13010238.20346  21845994.0474                   21845994.9024
 -25473312.27348 -19837261.54745  22055043.2114                   22055039.0704
 11  8 29  2  4  0.0000000  0  7G12G26G29G05G15G25G02
 -19403774.88748 -15108279.68046  22223095.0474                   22223093.7664
  -7701067.97747  -5990308.80945  22830399.4384                   22830398.1564
 -12423560.78548  -9671076.77346  21999928.2274                   21999926.7384
 -25421619.45748 -19797152.18446  20823084.5314                   20823082.0474
   -327268.06647   -244391.41844  23708972.1884                   23708971.4804
 -16708108.37948 -13007685.91846  21846617.4144                   21846618.1174
 -25456699.62548 -19824316.63745  22058204.3914                   22058200.2854
 11  8 29  2  4 30.0000000  0  7G12G26G29G05G15G25G02
 -19348547.39148 -15065245.28546  22233604.3834                   22233603.2234
  -7811350.07847  -6076242.83645  22809413.4384                   22809412.0004
 -12524141.88348  -9749451.61746  21980788.2274                   21980786.5314
 -25395769.14148 -19777009.08247  20828003.5634                   20828001.2274
   -447721.07847   -338250.76644  23686050.2734                   23686050.0004
 -16704297.30148 -13004716.23846  21847342.6024                   21847342.9104
 -25439986.12148 -19811293.13745  22061385.0234                   22061380.7274
 11  8 29  2  5  0.0000000  0  8G21G12G26G29G05G15G25G02
   6184900.50456   4826871.99653  25252262.6024                   25252261.9804
 -19293017.60947 -15021975.34046  22244171.6954                   22244170.2504
  -7921367.55547  -6161970.67245  22788477.0084                   22788477.2034
 -12624538.23848  -9827682.51646  21961683.6334                   21961681.9494
 -25369496.80148 -19756537.12946  20833002.9694                   20833000.1054
   -568147.64147   -432089.52044  23663133.8054                   23663133.5664
 -16699957.09048 -13001334.24646  21848168.5474                   21848169.2624
 -25423176.23448 -19798194.52045  22064583.9454                   22064579.5314
 11  8 29  2  5 30.0000000  0  8G21G12G26G29G05G15G25G02
   6105256.98446   4764812.19543  25237106.9774                   25237106.5434
 -19237197.37147 -14978479.06246  22254793.6724                   22254792.0824
  -8031125.80947  -6247496.51245  22767591.2584                   22767590.4654
 -12724756.54748  -9905774.64546  21942612.7814                   21942610.8014
 -25342813.20348 -19735744.71546  20838080.6644                   20838078.5274
   -688553.68747   -525912.29344  23640220.8364                   23640220.4924
 -16695098.21948 -12997548.10946  21849093.2504                   21849093.7114
 -25406278.49648 -19785027.44945  22067799.4224                   22067795.3164
 11  8 29  2  6  0.0000000  0  8G21G12G26G29G05G15G25G02
   6025609.36746   4702749.17243  25221950.7114                   25221950.1134
 -19181095.80147 -14934763.57846  22265469.3364                   22265468.0514
  -8140627.02747  -6332822.06645  22746753.5474                   22746753.2504
 -12824800.33248  -9983730.80546  21923574.7504                   21923573.2854
 -25315726.78948 -19714638.41847  20843235.3364                   20843232.6334
   -808942.21947   -619721.39844  23617312.1884                   23617310.5904
 -16689728.52748 -12993363.92646  21850114.6564                   21850115.6134
 -25389298.80948 -19771796.52745  22071030.4694                   22071026.2734
 11  8 29  2  6 30.0000000  0  8G21G12G26G29G05G15G25G02
   5945959.43846   4640684.36743  25206793.6954                   25206792.8284
 -19124713.17247 -14890829.09045  22276198.8134                   22276197.0864
  -8249864.94947  -6417942.45345  22725966.3754                   22725965.7344
 -12924664.91448 -10061547.33246  21904571.1954                   21904569.3404
 -25288237.41848 -19693218.13347  20848466.0704                   20848463.3324
   -929307.99647   -713512.80145  23594407.3054                   23594406.1954
 -16683847.06248 -12988780.96946  21851234.1884                   21851234.7464
 -25372234.30948 -19758499.52045  22074277.6414                   22074273.6294
 11  8 29  2  7  0.0000000  0  8G21G12G26G29G05G15G25G02
   5866306.00046   4578616.77343  25191636.6884                   25191635.2894
 -19068053.27047 -14846678.54745  22286980.8834                   22286979.1844
  -8358836.41447  -6502855.22345  22705229.7974                   22705228.6024
 -13024348.60548 -10139222.89546  21885602.1954                   21885600.3014
 -25260347.88348 -19671486.02346  20853773.4614                   20853770.5594
  -1049648.85947   -807284.80544  23571507.0704                   23571505.8484
 -16677456.25848 -12983801.12946  21852450.0944                   21852450.8794
 -25355085.51648 -19745136.82845  22077541.4694                   22077537.1914
 11  8 29  2  7 30.0000000  0  8G21G12G26G29G05G15G25G02
   5786650.54346   4516547.64543  25176477.6644                   25176477.5394
 -19011116.78947 -14802312.49245  22297815.5474                   22297813.9804
  -8467535.96947  -6587556.12145  22684545.1484                   22684543.8484
 -13123847.13748 -10216754.18046  21866667.9224                   21866666.3204
 -25232058.65248 -19649442.47346  20859156.8444                   20859154.1214
  -1169959.41047   -901033.16844  23548612.2814                   23548611.7424
 -16670556.02348 -12978424.33246  21853763.4454                   21853763.7704
 -25337850.18048 -19731706.69545  22080820.9774                   22080817.2154
 11  8 29  2  8  0.0000000  0  8G21G12G26G29G05G15G25G02
   5706995.74246   4454479.02043  25161320.2894                   25161319.2114
 -18953904.00047 -14757731.13345  22308702.7894                   22308701.1524
  -8575956.69947  -6672039.75445  22663913.4384                   22663912.1914
 -13223155.00448 -10294136.90246  21847770.5394                   21847768.5204
 -25203368.50847 -19627086.51246  20864616.3204                   20864613.1054
  -1290233.68447   -994753.24644  23525725.0554                   23525724.2704
 -16663144.87948 -12972649.43446  21855173.5474                   21855174.2974
 -25320524.94148 -19718206.52045  22084117.7584                   22084113.5904
 11  8 29  2  8 30.0000000  0  8G21G12G26G29G05G15G25G02
   5627340.31646   4392409.89843  25146162.2664                   25146161.2424
 -18896418.26647 -14712937.09045  22319641.6024                   22319640.1454
  -8684095.38747  -6756303.60545  22643334.9844                   22643333.9654
 -13322270.74648 -10371369.91446  21828909.3984                   21828907.4144
 -25174280.82448 -19604420.79346  20870151.2734                   20870148.4694
  -1410469.43747  -1088443.35944  23502844.4924                   23502843.9574
 -16655225.38348 -12966478.41046  21856680.3444                   21856681.4264
 -25303110.18748 -19704636.57045  22087431.5474                   22087427.2274
 11  8 29  2  9  0.0000000  0  8G21G12G26G29G05G15G25G02
   5547684.87946   4330340.76643  25131004.4614                   25131003.3094
 -18838661.41447 -14667931.77745  22330632.4384                   22330631.5514
  -8791947.35947  -6840344.05945  22622811.8594                   22622810.9344
 -13421190.66848 -10448450.34846  21810085.5864                   21810083.5354
 -25144796.66848 -19581446.12546  20875762.0084                   20875759.3484
  -1530662.25846  -1182100.01244  23479972.7194                   23479971.6844
 -16646798.03148 -12959911.66046  21858284.2424                   21858285.2504
 -25285604.18448 -19690995.52345  22090763.0004                   22090759.0394
 11  8 29  2  9 30.0000000  0  8G21G12G26G29G05G15G25G02
   5468027.27746   4268269.95343  25115846.0004                   25115845.0514
 -18780638.19947 -14622718.90645  22341673.8984                   22341672.4264
  -8899510.25447  -6924159.23445  22602342.8834                   22602342.4494
 -13519914.02048 -10525377.60546  21791299.0084                   21791297.1724
 -25114919.71548 -19558165.38346  20881447.3984                   20881444.5274
  -1650810.75446  -1275722.12544  23457109.1804                   23457107.5394
 -16637866.29748 -12952951.87546  21859984.0004                   21859984.7664
 -25268008.40648 -19677284.54345  22094111.3284                   22094107.4344
 11  8 29  2 10  0.0000000  0  8G21G12G26G29G05G15G25G02
   5388367.67246   4206197.57043  25100687.7814                   25100686.1914
 -18722350.11347 -14577299.65246  22352766.4614                   22352764.3244
  -9006779.85947  -7007745.89145  22581930.5634                   22581928.6684
 -13618437.91448 -10602149.44946  21772550.7734                   21772548.6564
 -25084651.58648 -19534579.82446  20887207.2584                   20887204.7034
  -1770911.75846  -1369307.23844  23434254.5314                   23434252.9884
 -16628431.40248 -12945600.02346  21861779.3594                   21861780.0394
 -25250321.96948 -19663502.89845  22097477.0394                   22097472.9024
 11  8 29  2 10 30.0000000  0  8G21G12G26G29G05G15G25G02
   5308705.87946   4144123.46543  25085528.0474                   25085526.8054
 -18663800.73847 -14531676.77745  22363907.4304                   22363906.3524
  -9113751.84047  -7091100.61345  22561574.1254                   22561572.8554
 -13716759.38748 -10678763.55946  21753840.4454                   21753838.6484
 -25053994.25048 -19510690.99646  20893041.0864                   20893038.2114
  -1890961.43746  -1462852.34844  23411409.4144                   23411408.3554
 -16618494.71548 -12937857.16846  21863670.4694                   21863671.1484
 -25232544.27347 -19649650.15645  22100859.6954                   22100855.5704
 11  8 29  2 11  0.0000000  0  8G21G12G26G29G05G15G25G02
   5229043.03546   4082048.58643  25070368.5394                   25070367.4024
 -18604991.13347 -14485851.13746  22375098.8674                   22375097.1294
  -9220421.02047  -7174219.39545  22541275.7034                   22541274.2704
 -13814874.13348 -10755216.60246  21735169.8914                   21735167.8674
 -25022948.16848 -19486499.24646  20898949.1484                   20898946.5554
  -2010954.79746  -1556353.57444  23388575.5634                   23388574.9924
 -16608056.53148 -12929723.53546  21865656.4454                   21865657.3874
 -25214672.77348 -19635724.31645  22104260.7194                   22104256.7974
 11  8 29  2 11 30.0000000  0  8G21G12G26G29G05G15G25G02
   5149377.12146   4019971.30942  25055208.4774                   25055206.8094
 -18545925.54347 -14439826.01246  22386338.7664                   22386336.9924
  -9326784.99247  -7257100.36745  22521034.8524                   22521033.9654
 -13912782.02048 -10831508.43446  21716538.6094                   21716536.5314
 -24991517.49648 -19462007.81646  20904930.1254                   20904927.6764
  -2130890.69947  -1649810.00844  23365752.0084                   23365751.7074
 -16597120.23448 -12921201.76646  21867737.6414                   21867738.5234
 -25196709.04748 -19621726.61745  22107679.5234                   22107675.2234
 11  8 29  2 12  0.0000000  0  8G21G12G26G29G05G15G25G02
   5069706.78546   3957890.58642  25040048.2504                   25040045.4454
 -18486607.99647 -14393604.57446  22397626.4534                   22397625.1914
  -9432841.11747  -7339741.43745  22500853.1484                   22500851.6414
 -14010481.22748 -10907637.66446  21697947.4384                   21697945.0824
 -24959705.27748 -19437219.07846  20910983.8524                   20910981.3054
  -2250766.76646  -1743219.84444  23342940.8204                   23342940.0164
 -16585688.73448 -12912294.12946  21869912.8364                   21869913.9654
 -25178653.69948 -19607657.51646  22111115.0004                   22111111.0634
 11  8 29  2 12 30.0000000  0  8G21G12G26G29G05G15G25G02
   4990031.61346   3895806.11743  25024886.1564                   25024884.4144
 -18427041.37148 -14347189.03945  22408961.8204                   22408959.6914
  -9538585.54747  -7422139.62945  22480730.6564                   22480729.3204
 -14107969.46948 -10983602.50846  21679395.6024                   21679393.7194
 -24927513.59448 -19412134.65646  20917109.3984                   20917106.9224
  -2370579.88347  -1836580.62545  23320141.0164                   23320140.1294
 -16573763.82848 -12903002.00846  21872182.0864                   21872183.0164
 -25160506.44148 -19593516.79345  22114568.3204                   22114564.3954
 11  8 29  2 13  0.0000000  0  8G21G12G26G29G05G15G25G02
   4910349.92646   3833716.57843  25009722.9924                   25009721.4774
 -18367229.32847 -14300582.27745  22420342.8594                   22420342.2344
  -9644015.33247  -7504292.66045  22460667.5634                   22460666.8324
 -14205245.04748 -11059401.63346  21660884.9774                   21660882.7664
 -24894945.88348 -19386757.21946  20923307.2274                   20923304.3754
  -2490328.06247  -1929890.80545  23297353.4774                   23297352.5514
 -16561348.37948 -12893327.64846  21874544.6484                   21874545.7664
 -25142267.71948 -19579304.80945  22118039.1094                   22118035.1254
 11  8 29  2 13 30.0000000  0  8G21G12G26G29G05G15G25G02
   4830661.25046   3771621.61742  24994559.6024                   24994557.5704
 -18307175.69147 -14253787.25445  22431770.8594                   22431769.4494
  -9749127.26247  -7586197.99645  22440665.9064                   22440664.9734
 -14302305.86748 -11135033.41846  21642414.8054                   21642412.7774
 -24862004.72348 -19361088.79346  20929575.6414                   20929573.1294
  -2610008.16447  -2023147.94945  23274579.6254                   23274578.7584
 -16548444.55548 -12883272.74646  21877000.5314                   21877001.0594
 -25123937.25448 -19565021.34445  22121527.7974                   22121522.9614
 11  8 29  2 14  0.0000000  0  8G21G12G26G29G05G15G25G02
   4750965.39146   3709521.03142  24979392.3754                   24979391.5234
 -18246882.73447 -14206805.75445  22443244.5004                   22443243.2034
  -9853917.12147  -7667852.36745  22420725.1254                   22420723.8244
 -14399149.12548 -11210495.68046  21623986.1094                   21623984.1334
 -24828692.38748 -19335131.13346  20935914.7814                   20935912.1374
  -2729617.21947  -2116349.74245  23251818.3364                   23251817.8834
 -16535054.18048 -12872838.70746  21879548.4924                   21879549.0004
 -25105514.57448 -19550666.00845  22125033.0004                   22125028.6174
 11  8 29  2 14 30.0000000  0  8G21G12G26G29G05G15G25G02
   4671262.90646   3647415.33243  24964225.8914                   24964224.3984
 -18186352.34447 -14159639.23045  22454763.1414                   22454761.4104
  -9958379.97347  -7749251.93045  22400846.0634                   22400844.9064
 -14495771.32448 -11285785.67646  21605599.5234                   21605597.1214
 -24795009.46148 -19308884.70746  20942324.1724                   20942321.6954
  -2849150.53147  -2209492.49645  23229072.4454                   23229071.0204
 -16521177.90648 -12862026.04346  21882188.9844                   21882190.0274
 -25086997.74247 -19536237.32445  22128556.7974                   22128552.4804
 11  8 29  2 15  0.0000000  0  8G21G12G26G29G05G15G25G02
   4591553.04346   3585303.87942  24949056.7814                   24949056.4024
 -18125587.72747 -14112290.20345  22466326.7274                   22466325.0124
 -10062512.62147  -7830394.21145  22381030.7814                   22381029.6294
 -14592170.35948 -11360901.79346  21587255.2974                   21587253.2584
 -24760959.00048 -19282351.87947  20948803.9224                   20948801.5554
  -2968605.76247  -2302574.41845  23206339.9844                   23206339.1294
 -16506818.21548 -12850836.69146  21884921.6724                   21884922.2814
 -25068386.96147 -19521735.43445  22132098.1334                   22132094.0434
 11  8 29  2 15 30.0000000  0  8G21G12G26G29G05G15G25G02
   4511835.52046   3523186.41043  24933888.0944                   24933886.8674
 -18064591.71947 -14064760.86345  22477933.2894                   22477931.8954
 -10166310.87147  -7911275.92645  22361278.7034                   22361276.7274
 -14688343.52748 -11435841.89846  21568954.3364                   21568952.0704
 -24726542.88348 -19255534.13346  20955353.0864                   20955350.6294
  -3087979.28547  -2395592.66444  23183624.3134                   23183623.2624
 -16491976.82848 -12839271.98446  21887745.8284                   21887746.6604
 -25049681.69947 -19507159.90645  22135657.5784                   22135653.7304
 11  8 29  2 16  0.0000000  0  8G21G12G26G29G05G15G25G02
   4432109.87546   3461062.63743  24918716.1414                   24918715.9144
 -18003367.14547 -14017053.41845  22489583.7734                   22489582.8324
 -10269770.97747  -7991894.12945  22341590.4384                   22341588.9654
 -14784288.16048 -11510603.91846  21550696.2894                   21550694.4494
 -24691763.36748 -19228433.22347  20961971.2344                   20961968.7544
  -3207267.82047  -2488544.72744  23160924.5474                   23160923.3444
 -16476655.64848 -12827333.42646  21890661.1884                   21890662.4414
 -25030881.45747 -19492510.37945  22139234.9534                   22139231.5634
 11  8 29  2 16 30.0000000  0  8G21G12G26G29G05G15G25G02
   4352375.90646   3398932.36343  24903544.1484                   24903543.2034
 -17941917.22747 -13969170.38745  22501277.8754                   22501276.1414
 -10372889.49647  -8072246.18045  22321968.0864                   22321966.4494
 -14880002.19948 -11585186.25446  21532482.7194                   21532480.5354
 -24656623.05547 -19201051.16046  20968658.5394                   20968656.0124
  -3326468.52047  -2581428.32044  23138241.1414                   23138240.5314
 -16460857.04748 -12815022.85246  21893667.8984                   21893668.6684
 -25011986.23048 -19477786.83645  22142831.5234                   22142826.7934
 11  8 29  2 17  0.0000000  0  8G21G12G26G29G05G15G25G02
   4272631.37146   3336793.91043  24888368.0234                   24888367.2854
 -17880246.11347 -13921115.00445  22513013.5864                   22513011.5744
 -10475663.94147  -8152330.10245  22302410.4144                   22302408.4654
 -14975484.36348 -11659587.90646  21514313.0004                   21514311.0314
 -24621125.42248 -19173390.68046  20975413.3444                   20975410.9844
  -3445579.46947  -2674241.97744  23115574.8364                   23115573.6564
 -16444584.25448 -12802342.77346  21896764.4534                   21896764.9804
 -24992996.26647 -19462989.47345  22146444.4064                   22146440.4494
 11  8 29  2 17 30.0000000  0  8G21G12G26G29G05G15G25G02
   4192876.35246   3274647.25443  24873190.7034                   24873190.8954
 -17818356.22747 -13872889.12545  22524790.5004                   22524788.8204
 -10578089.83647  -8232142.44145  22282919.3054                   22282917.6644
 -15070731.67248 -11733806.55946  21496188.2424                   21496185.9694
 -24585272.25048 -19145453.15246  20982235.8754                   20982233.2704
  -3564596.93447  -2766982.78144  23092926.9534                   23092925.1334
 -16427838.91448 -12789294.48046  21899951.1024                   21899951.6764
 -24973910.88347 -19448117.75445  22150076.2504                   22150072.5234
 11  8 29  2 18  0.0000000  0  8G21G12G26G29G05G15G25G02
   4113110.02046   3212491.75443  24858012.9774                   24858011.9344
 -17756251.33247 -13824495.74245  22536608.7034                   22536607.0274
 -10680164.32847  -8311680.96145  22263495.2814                   22263493.5864
 -15165742.50448 -11807840.93746  21478107.9694                   21478105.7704
 -24549066.46548 -19117240.85246  20989126.0314                   20989123.4734
  -3683518.41047  -2859648.78944  23070296.4694                   23070295.4774
 -16410623.71148 -12775880.05146  21903226.8984                   21903227.5664
 -24954730.43747 -19433171.96945  22153725.9224                   22153722.6604
 11  8 29  2 18 30.0000000  0  8G21G12G26G29G05G15G25G02
   4033332.62946   3150327.69543  24842831.3134                   24842830.2194
 -17693933.44147 -13775936.35545  22548467.4534                   22548466.1374
 -10781882.92647  -8390942.14145  22244138.4304                   22244136.9264
 -15260513.43448 -11881688.38346  21460073.7734                   21460071.0594
 -24512509.88748 -19088755.21146  20996081.9534                   20996079.6914
  -3802339.93447  -2952236.92644  23047685.0234                   23047683.5944
 -16392939.95748 -12762100.52046  21906592.1024                   21906592.9534
 -24935453.44147 -19418150.94945  22157394.5634                   22157390.6214
 11  8 29  2 19  0.0000000  0  8G21G12G26G29G05G15G25G02
   3953541.77747   3088153.13343  24827647.3204                   24827646.6524
 -17631407.79347 -13727215.09445  22560365.9694                   22560364.0004
 -10883243.67247  -8469924.48445  22224850.1564                   22224848.9654
 -15355043.82048 -11955348.39546  21442084.9844                   21442082.7304
 -24475606.52048 -19059999.34046  21003104.6094                   21003102.2704
  -3921060.25047  -3044746.18445  23025093.6724                   23025092.4104
 -16374791.76648 -12747959.08246  21910045.2894                   21910046.4884
 -24916081.53947 -19403055.96545  22161081.1334                   22161076.9574
 11  8 29  2 19 30.0000000  0  8G21G12G26G29G05G15G25G02
   3873737.52746   3025968.14543  24812461.7424                   24812460.5704
 -17568676.12547 -13678333.29345  22572303.4614                   22572301.3054
 -10984242.65247  -8548624.94145  22205630.7194                   22205629.5554
 -15449330.68748 -12028818.64546  21424142.8134                   21424140.9574
 -24438358.50048 -19030974.91446  21010192.8134                   21010190.3874
  -4039675.81647  -3137173.82845  23002521.9774                   23002519.8444
 -16356180.85547 -12733457.09046  21913587.3834                   21913587.7814
 -24896613.93447 -19387886.40645  22164785.4454                   22164781.5944
 11  8 29  2 20  0.0000000  0  8G21G12G26G29G05G15G25G02
   3793920.92647   2963773.50044  24797273.0004                   24797271.5354
 -17505740.71947 -13629292.74245  22584279.5474                   22584277.5634
 -11084874.53147  -8627039.34845  22186480.7504                   22186479.5314
 -15543370.32048 -12102096.24646  21406247.7274                   21406245.5664
 -24400766.58248 -19001682.51246  21017346.1954                   21017343.7734
  -4158182.03147  -3229516.25845  22979971.1334                   22979969.3404
 -16337107.96148 -12718595.10246  21917216.8284                   21917217.6254
 -24877048.68047 -19372640.75845  22168508.6484                   22168504.6884
 11  8 29  2 20 30.0000000  0  8G21G12G26G29G05G15G25G02
   3714089.40646   2901567.25443  24782081.2894                   24782079.8794
 -17442606.09447 -13580096.95745  22596293.2734                   22596291.9774
 -11185137.54747  -8705166.31645  22167402.1724                   22167399.9224
 -15637162.06648 -12175180.68746  21388399.4384                   21388397.9264
 -24362834.77348 -18972125.26246  21024564.4924                   21024561.8014
  -4276577.64847  -3321772.50845  22957440.9224                   22957439.7544
 -16317577.12548 -12703376.28146  21920933.5394                   21920934.1844
 -24857386.95347 -19357319.93445  22172249.7584                   22172246.0474
 11  8 29  2 21  0.0000000  0  8G21G12G26G29G05G15G25G02
   3634242.82046   2839349.26243  24766886.2194                   24766885.4064
 -17379275.26247 -13530748.27745  22608344.9694                   22608343.8324
 -11285027.80947  -8783002.84045  22148392.8134                   22148391.6334
 -15730703.01648 -12248069.69946  21370599.4614                   21370597.1884
 -24324565.33648 -18942304.92246  21031846.7274                   21031844.4414
  -4394859.30947  -3413939.98845  22934932.5864                   22934931.3244
 -16297590.38748 -12687802.21146  21924736.5634                   21924737.3794
 -24837628.37947 -19341923.65645  22176009.8674                   22176006.3134
 11  8 29  2 21 30.0000000  0  8G21G12G26G29G05G15G25G02
   3554382.43446   2777120.55143  24751689.4614                   24751687.6134
 -17315749.14547 -13481247.41845  22620433.7814                   22620432.5664
 -11384540.12947  -8860544.84445  22129456.3984                   22129454.9614
 -15823989.05148 -12320760.07446  21352848.0704                   21352845.8204
 -24285958.96548 -18912222.04746  21039193.6254                   21039190.9964
  -4513021.87547  -3506014.67645  22912446.9224                   22912445.9384
 -16277148.21947 -12671873.25046  21928626.5004                   21928627.4344
 -24817770.44147 -19326449.95345  22179788.9384                   22179784.9804
 11  8 29  2 22  0.0000000  0  8G21G12G26G29G05G15G25G02
   3474507.37546   2714880.39843  24736489.5084                   24736488.3164
 -17252031.71547 -13431597.48845  22632558.5944                   22632557.6994
 -11483671.25847  -8937789.85245  22110592.4694                   22110590.4344
 -15917018.62148 -12393250.61746  21335144.5704                   21335142.6764
 -24247018.50848 -18881878.82446  21046603.3364                   21046601.0864
  -4631063.02047  -3597994.73045  22889984.2974                   22889983.8484
 -16256253.53147 -12655591.67246  21932602.8134                   21932603.5234
 -24797813.46147 -19310899.06245  22183586.6484                   22183582.6174
 11  8 29  2 22 30.0000000  0  8G21G12G26G29G05G15G25G02
   3394617.43846   2652628.60543  24721286.8754                   24721285.2464
 -17188125.33247 -13381800.30945  22644719.5474                   22644718.0474
 -11582417.12147  -9014734.62945  22091801.6484                   22091800.4144
 -16009788.60948 -12465538.88346  21317491.0784                   21317489.3404
 -24207746.10948 -18851276.96146  21054077.2274                   21054074.4574
  -4748979.13747  -3689877.39845  22867545.6484                   22867544.8834
 -16234908.09447 -12638958.85546  21936664.7034                   21936665.5594
 -24777756.68047 -19295270.40245  22187403.3444                   22187399.2384
 11  8 29  2 23  0.0000000  0  8G21G12G26G29G05G15G25G02
   3314710.10946   2590363.25843  24706081.0474                   24706079.4144
 -17124034.93747 -13331859.75045  22656915.7114                   22656914.3794
 -11680776.32847  -9091378.11345  22073084.8054                   22073083.0594
 -16102298.34448 -12537624.35246  21299886.9844                   21299885.2114
 -24168146.10248 -18820419.81246  21061612.3984                   21061610.0204
  -4866769.10247  -3781661.73045  22845130.8674                   22845129.8914
 -16213116.39547 -12621978.31246  21940811.6884                   21940812.4304
 -24757601.62547 -19279565.18045  22191238.7274                   22191234.8954
 11  8 29  2 23 30.0000000  0  8G21G12G26G29G05G15G25G02
   3234784.62546   2528083.77743  24690872.0474                   24690869.5274
 -17059764.19147 -13281778.65645  22669145.9774                   22669144.3284
 -11778745.39147  -9167717.60545  22054441.4924                   22054439.6684
 -16194546.26648 -12609505.82446  21282332.8444                   21282330.7114
 -24128221.16848 -18789309.48046  21069209.8284                   21069207.5044
  -4984430.05947  -3873345.53545  22822741.0474                   22822739.6804
 -16190881.17248 -12604652.16846  21945042.6484                   21945043.3914
 -24737348.34048 -19263783.39545  22195093.1024                   22195088.5594
 11  8 29  2 24  0.0000000  0  9G21G12G26G29G05G15G25G02G18
   3154841.25446   2465790.39143  24675658.5314                   24675657.5234
 -16995315.21547 -13231558.68745  22681410.3364                   22681408.8524
 -11876320.11347  -9243749.80145  22035873.5084                   22035872.3094
 -16286528.81248 -12681180.51246  21264829.0864                   21264827.0234
 -24087973.25048 -18757947.46546  21076868.8754                   21076866.4924
  -5101957.89847  -3964925.60245  22800376.0474                   22800374.7774
 -16168203.90648 -12586981.56646  21949357.9924                   21949358.8554
 -24716995.57847 -19247924.09445  22198965.7504                   22198961.8284
   6136713.22356   4792105.73853  24564410.4694                   24564410.2304
 11  8 29  2 24 30.0000000  0  9G21G12G26G29G05G15G25G02G18
   3074873.62146   2403478.10943  24660441.4844                   24660439.5664
 -16930696.97747 -13181206.83645  22693706.6254                   22693705.1724
 -11973502.97747  -9319476.65245  22017380.0164                   22017379.0004
 -16378249.52748 -12752651.15646  21247375.1724                   21247373.1414
 -24047410.49648 -18726340.13346  21084587.5634                   21084585.1254
  -5219355.66847  -4056404.33645  22778036.0004                   22778035.2814
 -16145092.95748 -12568973.04346  21953755.9844                   21953756.6214
 -24696548.79348 -19231991.53945  22202856.7974                   22202852.7734
   6024189.12546   4704424.78943  24542997.7034                   24542996.6054
 11  8 29  2 25  0.0000000  0  9G21G12G26G29G05G15G25G02G18
   2994878.97746   2341144.65642  24645218.4774                   24645216.7974
 -16865915.00447 -13130727.39845  22706034.2274                   22706033.1214
 -12070292.63347  -9394897.12145  21998961.8754                   21998960.5354
 -16469708.53548 -12823917.88746  21229970.9144                   21229969.1724
 -24006538.15248 -18694491.55546  21092365.5474                   21092362.9884
  -5336622.57447  -4147781.10245  22755720.2424                   22755719.7464
 -16121553.14548 -12550630.32046  21958235.2734                   21958236.0314
 -24676009.71148 -19215987.07045  22206765.1484                   22206761.2664
   5911828.09046   4616870.91043  24521615.3364                   24521615.1564
 11  8 29  2 25 30.0000000  0  9G21G12G26G29G05G15G25G02G18
   2914856.96946   2278789.97742  24629990.5474                   24629988.7704
 -16800971.98447 -13080122.48845  22718392.8444                   22718390.9264
 -12166685.30147  -9470008.23845  21980618.5234                   21980618.2274
 -16560902.68448 -12894978.23846  21212617.4694                   21212615.0984
 -23965357.42248 -18662402.67646  21100202.0084                   21100199.6254
  -5453755.08247  -4239053.11745  22733431.1954                   22733429.5984
 -16097586.48848 -12531955.00446  21962796.1174                   21962797.0084
 -24655377.89548 -19199910.34445  22210690.9924                   22210687.2424
   5799631.67646   4529445.27043  24500265.3054                   24500265.8324
 11  8 29  2 26  0.0000000  0  9G21G12G26G29G05G15G25G02G18
   2834808.68046   2216414.79743  24614757.4924                   24614756.5824
 -16735869.20747 -13029393.07045  22730781.4534                   22730779.7544
 -12262675.73447  -9544805.94145  21962352.1644                   21962351.2114
 -16651828.60248 -12965829.58246  21195314.7344                   21195312.7734
 -23923869.43448 -18630074.37946  21108096.5314                   21108094.4024
  -5570748.61347  -4330216.84845  22711167.8204                   22711166.2304
 -16073193.89548 -12512947.79346  21967437.7114                   21967438.6644
 -24634651.18448 -19183759.66845  22214635.4694                   22214631.4574
   5687602.68446   4442150.07843  24478946.8204                   24478946.1764
 11  8 29  2 26 30.0000000  0  9G21G12G26G29G05G15G25G02G18
   2754735.15246   2154019.95743  24599521.2424                   24599519.5124
 -16670608.24647 -12978540.39145  22743199.9694                   22743198.5744
 -12358259.03147  -9619286.37945  21944163.5164                   21944162.0594
 -16742481.97348 -13036468.55146  21178063.9614                   21178062.0514
 -23882075.50048 -18597507.67246  21116049.7734                   21116047.4384
  -5687598.21547  -4421268.41445  22688932.1804                   22688930.9184
 -16048376.32047 -12493609.42646  21972160.3914                   21972160.9774
 -24613827.82847 -19167533.67645  22218597.7504                   22218593.8244
   5575744.21546   4354987.76242  24457660.2274                   24457659.6604
 11  8 29  2 27  0.0000000  0  9G21G12G26G29G05G15G25G02G18
   2674640.49646   2091608.59443  24584279.0164                   24584277.3444
 -16605187.98047 -12927563.57445  22755649.4144                   22755647.1684
 -12453427.34847  -9693443.45345  21926053.6954                   21926051.7194
 -16832855.89148 -13106889.76646  21160866.3134                   21160864.4614
 -23839973.42248 -18564700.87146  21124061.4614                   21124059.3134
  -5804296.75447  -4512202.27345  22666725.4144                   22666724.0664
 -16023131.88348 -12473938.44146  21976964.3284                   21976964.9774
 -24592902.99647 -19151228.62145  22222579.9774                   22222576.4534
   5464061.89846   4267962.68842  24436408.5944                   24436407.0394
 11  8 29  2 27 30.0000000  0  9G21G12G26G29G05G15G25G02G18
   2594523.96947   2029180.23843  24569033.4304                   24569031.7154
 -16539611.35247 -12876464.91845  22768127.7344                   22768126.5984
 -12548177.23847  -9767274.48445  21908023.4534                   21908021.3404
 -16922948.15648 -13177091.50846  21143722.1804                   21143720.5004
 -23797565.66048 -18531655.85946  21132131.7584                   21132129.3714
  -5920841.09447  -4603015.96945  22644547.3284                   22644546.2734
 -15997463.16448 -12453936.84846  21981848.8364                   21981849.4264
 -24571876.00847 -19134843.95745  22226581.1484                   22226576.7384
   5352556.88346   4181075.78943  24415188.8134                   24415187.8834
 11  8 29  2 28  0.0000000  0  9G21G12G26G29G05G15G25G02G18
   2514384.43046   1966733.88743  24553783.1334                   24553781.4454
 -16473882.15247 -12825247.37945  22780635.8054                   22780634.6564
 -12642505.81647  -9840777.21545  21890072.8134                   21890071.3834
 -17012756.93448 -13247072.35946  21126632.3674                   21126630.3444
 -23754855.48848 -18498375.20746  21140258.9774                   21140256.3834
  -6037228.75447  -4693707.57845  22622399.8134                   22622398.1804
 -15971373.39148 -12433607.17646  21986813.4694                   21986814.3324
 -24550747.26647 -19118380.01245  22230601.5394                   22230598.1604
   5241229.42246   4094327.25843  24394004.4454                   24394004.0274
 11  8 29  2 28 30.0000000  0  9G21G12G26G29G05G15G25G02G18
   2434221.49647   1904269.36744  24538528.7664                   24538528.0944
 -16408003.56247 -12773913.43745  22793172.1954                   22793170.6214
 -12736409.60547  -9913948.94945  21872203.5634                   21872201.8014
 -17102279.86348 -13316830.45746  21109596.4694                   21109594.5124
 -23711845.56248 -18464860.98046  21148443.4064                   21148441.3284
  -6153456.52747  -4784274.59045  22600282.2034                   22600280.1334
 -15944865.05548 -12412951.35546  21991857.9224                   21991858.7274
 -24529516.46147 -19101836.54745  22234641.5394                   22234637.7234
   5130081.22746   4007718.42643  24372853.7664                   24372852.9104
 11  8 29  2 29  0.0000000  0  9G21G12G26G29G05G15G25G02G18
   2354032.90246   1841784.84444  24523269.5164                   24523268.2894
 -16341979.96947 -12722466.48845  22805736.3754                   22805734.5744
 -12829886.74647  -9986788.20745  21854415.5634                   21854413.8874
 -17191515.98848 -13386365.07446  21092615.4454                   21092613.3524
 -23668539.34048 -18431115.87546  21156684.6644                   21156682.2384
  -6269522.84847  -4874715.80945  22578195.2504                   22578193.6764
 -15917942.25048 -12391972.56646  21996981.1804                   21996982.0434
 -24508184.71547 -19085214.41445  22238701.1334                   22238697.2584
   5019112.00847   3921249.07843  24351736.9614                   24351736.2304
 11  8 29  2 29 30.0000000  0  9G21G12G26G29G05G15G25G02G18
   2273820.93846   1779282.07444  24508005.8984                   24508004.6414
 -16275812.31247 -12670907.30545  22818327.3444                   22818326.0824
 -12922931.43047 -10059290.50845  21836709.6484                   21836708.0554
 -17280460.66848 -13455672.59046  21075689.9534                   21075687.7934
 -23624937.47348 -18397140.39146  21164982.0554                   21164979.4964
  -6385422.24647  -4965026.92645  22556140.5234                   22556139.2344
 -15890605.14147 -12370670.94946  22002183.2894                   22002184.0234
 -24486749.08647 -19068511.33645  22242779.9304                   22242776.2664
   4908325.11347   3834921.78144  24330654.6724                   24330654.1804
 11  8 29  2 30  0.0000000  0  9G21G12G26G29G05G15G25G02G18
   3769007.73846   2944362.78144  24792530.1174                   24792528.1414
 -14634085.00047 -11391639.30545  23130737.6954                   23130736.0634
 -11440116.97347  -8903850.62545  22118879.9224                   22118878.3134
 -15793687.78948 -12297148.24646  21358613.0234                   21358611.3324
 -22005623.19148 -17135337.05546  21473126.9614                   21473124.4304
  -4925727.43447  -3827602.31645  22833910.9064                   22833908.9654
 -14287437.00048 -11121449.04346  22307255.7344                   22307256.8204
 -22889789.79747 -17824127.48445  22546671.4064                   22546667.7544
   6373145.69547   4976340.58644  24609400.7194                   24609400.0744
 11  8 29  2 30 30.0000000  0  9G21G12G26G29G05G15G25G02G18
   3688746.74646   2881821.81643  24777257.2894                   24777256.0004
 -14567638.18047 -11339862.59845  23143382.0474                   23143380.4454
 -11532287.06647  -8975671.43045  22101340.2894                   22101339.2974
 -15882042.60548 -12365996.13746  21341800.0164                   21341798.0084
 -21961437.10248 -17100906.34046  21481535.2894                   21481533.0474
  -5041283.96547  -3917646.27745  22811921.0784                   22811919.4494
 -14259279.55147 -11099508.19946  22312614.3204                   22312615.3674
 -22868145.75047 -17807262.00045  22550790.6804                   22550786.3134
   6262726.59047   4890299.92644  24588388.7424                   24588388.1954
 11  8 29  2 31  0.0000000  0  9G21G12G26G29G05G15G25G02G18
   3608459.98846   2819260.78544  24761978.3754                   24761977.4774
 -14501057.28547 -11287981.40645  23156052.0394                   23156050.6294
 -11624015.17247  -9047147.82845  22083885.1884                   22083884.0274
 -15970099.54748 -12434611.90246  21325043.5554                   21325041.1604
 -21916963.25848 -17066251.39846  21489998.1724                   21489995.9964
  -5156664.88347  -4007553.41045  22789965.0394                   22789963.5664
 -14230716.38748 -11077251.20746  22318049.6884                   22318050.3364
 -22846397.35547 -17790315.21945  22554929.1094                   22554925.1684
   6152492.77046   4804403.66843  24567411.3364                   24567411.1024
 11  8 29  2 31 30.0000000  0  9G21G12G26G29G05G15G25G02G18
   3528148.63746   2756680.58244  24746695.4304                   24746694.0824
 -14434343.23447 -11235996.44145  23168747.3674                   23168745.6684
 -11715296.26647  -9118275.89845  22066515.0164                   22066513.1914
 -16057854.34448 -12502992.24646  21308344.3134                   21308341.7074
 -21872202.27748 -17031372.71946  21498515.8054                   21498513.4804
  -5271865.57847  -4097320.09445  22768042.7114                   22768041.7624
 -14201748.34448 -11054678.73446  22323561.9454                   22323563.0004
 -22824542.50847 -17773285.47345  22559087.8364                   22559083.9454
   6042447.24646   4718654.13743  24546469.5944                   24546469.4804
 11  8 29  2 32  0.0000000  0  9G21G12G26G29G05G15G25G02G18
   3447810.19146   2694079.26643  24731408.4384                   24731406.3244
 -14367501.37147 -11183911.89545  23181466.8204                   23181465.5864
 -11806128.83647  -9189054.48445  22049229.9694                   22049228.2274
 -16145306.52048 -12571136.77746  21291702.3054                   21291700.5394
 -21827158.57448 -16996273.73046  21507087.6644                   21507085.0944
  -5386884.50447  -4186945.16445  22746155.4924                   22746154.1454
 -14172380.05948 -11031794.38346  22329150.4924                   22329151.7504
 -22802582.42647 -17756173.74245  22563266.6254                   22563262.8794
   5932589.46545   4633050.93042  24525563.6644                   24525563.8634
 11  8 29  2 32 30.0000000  0  9G21G12G26G29G05G15G25G02G18
   3367447.05146   2631458.69543  24716114.6644                   24716114.0314
 -14300531.66447 -11131727.70745  23194210.4384                   23194209.6454
 -11896507.04347  -9259479.01245  22032031.4454                   22032029.5864
 -16232450.78948 -12639041.37146  21275119.2504                   21275117.3484
 -21781831.98048 -16960954.30546  21515713.1254                   21515710.1914
  -5501716.00447  -4276424.16845  22724303.2814                   22724301.9884
 -14142611.55948 -11008598.18046  22334815.4064                   22334816.6334
 -22780514.21548 -17738977.73445  22567466.4694                   22567461.8634
   5822922.68846   4547596.50443  24504696.0554                   24504695.4574
 11  8 29  2 33  0.0000000  0  9G21G12G26G29G05G15G25G02G18
   3287054.80946   2568815.47743  24700817.7734                   24700815.2194
 -14233441.53947 -11079449.70745  23206977.8524                   23206975.6994
 -11986431.45347  -9329549.94945  22014919.6254                   22014917.5474
 -16319288.63348 -12706707.19546  21258594.7894                   21258592.7194
 -21736228.99248 -16925419.51246  21524390.7664                   21524388.3284
  -5616360.88747  -4365757.76245  22702487.4384                   22702485.9614
 -14112449.37548 -10985095.20746  22340554.9384                   22340556.4884
 -22758341.46147 -17721700.27345  22571685.4774                   22571681.4454
   5713444.47746   4462288.94543  24483862.7734                   24483861.1954
 11  8 29  2 33 30.0000000  0  9G21G12G26G29G05G15G25G02G18
   3206632.94546   2506149.17643  24685512.7664                   24685512.2114
 -14166233.99247 -11027080.20345  23219766.9144                   23219765.4184
 -12075898.49647  -9399264.48045  21997894.7974                   21997892.8524
 -16405818.36747 -12774132.93746  21242128.6724                   21242126.4884
 -21690352.00848 -16889671.21146  21533120.9224                   21533118.6294
  -5730816.06247  -4454943.51645  22680707.1564                   22680705.6174
 -14081896.20748 -10961287.57846  22346369.1884                   22346370.3714
 -22736063.51647 -17704340.84045  22575925.1484                   22575920.5634
   5604155.88746   4377129.18043  24463066.3134                   24463063.5984
 11  8 29  2 34  0.0000000  0  9G21G12G26G29G05G15G25G02G18
   3126182.64546   2443460.67243  24670204.1094                   24670202.6524
 -14098910.49647 -10974620.35245  23232578.3444                   23232576.5234
 -12164903.60247  -9468619.06645  21980957.0704                   21980955.6954
 -16492035.69547 -12841315.24646  21225721.9774                   21225719.8954
 -21644202.00448 -16853710.17246  21541902.9694                   21541900.6374
  -5845076.98447  -4543977.93045  22658964.2974                   22658962.6024
 -14050953.37148 -10937176.30946  22352257.7894                   22352258.7734
 -22713678.70748 -17686898.15245  22580184.1884                   22580180.5234
   5495059.54747   4292119.08643  24442305.3674                   24442303.1254
 11  8 29  2 34 30.0000000  0  9G21G12G26G29G05G15G25G02G18
   3045703.74646   2380749.91843  24654889.7584                   24654887.3134
 -14031473.66047 -10922072.19545  23245411.0864                   23245409.1764
 -12253443.17647  -9537610.92245  21964108.8054                   21964107.4344
 -16577937.96147 -12908252.05146  21209375.2814                   21209373.2584
 -21597781.19548 -16817538.12146  21550736.5474                   21550733.9534
  -5959140.10247  -4632858.19945  22637258.0234                   22637256.5234
 -14019623.30148 -10912763.29746  22358219.6564                   22358220.2384
 -22691186.06247 -17669371.42645  22584464.7194                   22584460.5904
   5386156.77347   4207259.85542  24421582.1884                   24421578.7544
 11  8 29  2 35  0.0000000  0  9G21G12G26G29G05G15G25G02G18
   2965196.06646   2318016.72743  24639568.9534                   24639567.1454
 -13963926.32047 -10869437.92245  23258264.6644                   23258263.0744
 -12341513.10247  -9606236.80545  21947349.3984                   21947347.1214
 -16663522.25447 -12974941.08646  21193089.1484                   21193087.0784
 -21551091.28148 -16781156.37546  21559621.3914                   21559618.8524
  -6073001.98047  -4721581.66045  22615590.9224                   22615589.3484
 -13987907.98848 -10888050.09446  22364254.9844                   22364255.6564
 -22668584.35247 -17651759.71945  22588765.8914                   22588761.3954
   5277449.26247   4122552.81343  24400895.5084                   24400892.9774
 11  8 29  2 35 30.0000000  0  9G21G12G26G29G05G15G25G02G18
   2884659.50847   2255261.03143  24624243.6174                   24624241.5634
 -13896271.05547 -10816719.56245  23271138.9384                   23271138.0084
 -12429110.24647  -9674494.28545  21930680.0864                   21930678.4184
 -16748785.73447 -13041380.14146  21176863.9064                   21176861.6884
 -21504134.47748 -16744566.66046  21568556.9774                   21568554.5864
  -6186658.90647  -4810145.44545  22593963.2734                   22593961.0354
 -13955809.95748 -10863038.68046  22370362.6094                   22370363.5984
 -22645873.21147 -17634062.73845  22593087.6564                   22593083.6484
   5168938.69547   4037999.23043  24380246.4924                   24380244.3484
 11  8 29  2 36  0.0000000  0  9G21G12G26G29G05G15G25G02G18
   2804092.11746   2192481.29743  24608911.7344                   24608910.2304
 -13828512.69147 -10763920.89844  23284033.1954                   23284031.8284
 -12516233.10947  -9742382.19145  21914100.9694                   21914100.1604
 -16833727.91047 -13107568.83246  21160700.0234                   21160698.0084
 -21456915.25848 -16707772.47346  21577542.5944                   21577539.8874
  -6300109.67247  -4898548.55545  22572373.8674                   22572372.1254
 -13923333.77048 -10837732.57845  22376543.0474                   22376543.6804
 -22623054.07447 -17616281.61345  22597429.5084                   22597425.6804
   5060624.27746   3953598.52043  24359634.6644                   24359632.6954
 11  8 29  2 36 30.0000000  0  9G21G12G26G29G05G15G25G02G18
   2723497.11346   2129680.05543  24593574.6174                   24593573.3954
 -13760650.51247 -10711041.28144  23296947.0784                   23296945.6024
 -12602874.34847  -9809894.81645  21897614.1484                   21897612.6914
 -16918342.83247 -13173502.50847  21144598.4304                   21144595.9454
 -21409432.35548 -16670772.80546  21586578.1564                   21586575.7934
  -6413347.54747  -4986785.79345  22550825.5554                   22550823.7384
 -13890478.52047 -10812131.10545  22382795.1094                   22382795.4964
 -22600122.81647 -17598413.10945  22601793.5784                   22601789.7894
   4952510.58646   3869354.22343  24339060.9384                   24339059.9884
 11  8 29  2 37  0.0000000  0  9G21G12G26G29G05G15G25G02G18
   2642872.00047   2066855.32843  24578233.3834                   24578231.1684
 -13692689.96147 -10658085.05145  23309879.5554                   23309877.9964
 -12689033.18447  -9877031.53545  21881218.7344                   21881216.3914
 -17002630.00847 -13239180.80946  21128559.1414                   21128556.6454
 -21361690.24648 -16633571.16046  21595663.4144                   21595660.3054
  -6526372.12547  -5074856.82445  22529317.3284                   22529315.6524
 -13857249.12148 -10786238.09045  22389118.7344                   22389118.9964
 -22577081.03547 -17580458.48845  22606178.3984                   22606174.3484
   4844596.63746   3785265.55943  24318525.3444                   24318524.3284
 11  8 29  2 37 30.0000000  0  9G21G12G26G29G05G15G25G02G18
   2562216.59447   2004007.02043  24562884.5554                   24562883.1254
 -13624633.26247 -10605053.86345  23322829.6954                   23322828.4414
 -12774705.71547  -9943789.32445  21864915.5944                   21864913.6524
 -17086586.84047 -13304601.69546  21112582.8524                   21112580.3094
 -21313690.95348 -16596169.12546  21604797.4454                   21604794.6054
  -6639178.60247  -5162757.92645  22507851.5474                   22507849.3244
 -13823647.80547 -10760055.25445  22395512.8134                   22395513.0744
 -22553927.41847 -17562416.73045  22610583.8524                   22610580.3714
   4736884.09445   3701333.89543  24298027.8054                   24298027.2734
 11  8 29  2 38  0.0000000  0  9G21G12G26G29G05G15G25G02G18
   2481527.26646   1941132.27044  24547529.9064                   24547527.8484
 -13556486.77347 -10551952.71145  23335797.9384                   23335796.8674
 -12859892.00047 -10010168.20345  21848705.4384                   21848702.8794
 -17170213.73047 -13369765.48446  21096669.0944                   21096666.7814
 -21265439.92648 -16558570.92246  21613979.6804                   21613976.2194
  -6751767.53147  -5250489.49645  22486426.2274                   22486424.5314
 -13789680.48447 -10733587.21945  22401976.2894                   22401977.2304
 -22530664.89847 -17544290.11345  22615010.6254                   22615006.7854
   4629371.01646   3617557.66843  24277568.4614                   24277568.1054
 11  8 29  2 38 30.0000000  0  9G21G12G26G29G05G15G25G02G18
   2400807.19146   1878233.55943  24532169.1174                   24532167.9734
 -13488249.84447 -10498781.07845  23348783.0704                   23348781.8794
 -12944585.45347 -10076163.07445  21832588.5164                   21832586.5704
 -17253505.02347 -13434667.77346  21080818.9774                   21080817.1724
 -21216936.09048 -16520775.73446  21623209.2894                   21623206.7854
  -6864132.40247  -5338046.48045  22465043.6174                   22465042.0784
 -13755346.60247 -10706833.55945  22408510.1094                   22408510.6454
 -22507289.32847 -17526075.39145  22619459.1724                   22619454.9104
   4522061.85246   3533940.27344  24257149.1334                   24257147.9384
 11  8 29  2 39  0.0000000  0  9G21G12G26G29G05G15G25G02G18
   2320053.73446   1815308.85943  24516802.2274                   24516800.7664
 -13419927.77747 -10445543.12545  23361784.4454                   23361783.5234
 -13028785.13347 -10141773.18445  21816565.8524                   21816564.3404
 -17336460.56647 -13499308.44546  21065032.6414                   21065031.1024
 -21168184.38348 -16482787.39846  21632486.4694                   21632483.4344
  -6976272.32047  -5425428.16845  22443703.9454                   22443702.5004
 -13720651.10547 -10679798.12546  22415112.0164                   22415113.0704
 -22483802.80947 -17507774.21545  22623928.0704                   22623924.0474
   4414955.11747   3450480.53944  24236767.0004                   24236766.0864
 11  8 29  2 39 30.0000000  0  9G21G12G26G29G05G15G25G02G18
   2239268.59846   1752359.46143  24501429.0704                   24501427.6804
 -13351521.60947 -10392239.60545  23374801.3594                   23374800.3164
 -13112485.62147 -10206994.30545  21800638.1724                   21800636.7894
 -17419076.05547 -13563684.13346  21049311.8754                   21049310.0744
 -21119185.09448 -16444606.13746  21641810.7114                   21641808.3404
  -7088182.18747  -5512630.59845  22422408.0004                   22422406.8164
 -13685594.73447 -10652481.48446  22421782.9534                   22421784.2154
 -22460202.66447 -17489384.51245  22628419.4384                   22628415.0824
   4308054.35547   3367181.32843  24216425.1094                   24216423.4304
 11  8 29  2 40  0.0000000  0  9G21G12G26G29G05G15G25G02G18
   2158449.49246   1689383.59843  24486049.6334                   24486048.5554
 -13283035.91446 -10338874.14845  23387833.9614                   23387832.7114
 -13195685.34447 -10271825.22745  21784805.4774                   21784803.9144
 -17501350.34048 -13627793.96146  21033655.6254                   21033653.3244
 -21069942.00048 -16406234.89846  21651181.1884                   21651178.7704
  -7199860.15247  -5599652.33245  22401156.2194                   22401155.2704
 -13650181.86747 -10624887.05545  22428522.2894                   22428522.9734
 -22436489.93747 -17470907.09045  22632932.1644                   22632927.5824
   4201358.96147   3284042.13343  24196121.1564                   24196119.6564
 11  8 29  2 40 30.0000000  0  9G21G12G26G29G05G15G25G02G18
   2077597.87946   1626382.44543  24470663.8674                   24470662.0944
 -13214472.01246 -10285447.74245  23400881.3674                   23400880.3284
 -13278379.95347 -10336262.55545  21769069.4924                   21769067.3134
 -17583279.88348 -13691635.14546  21018064.9064                   21018062.6334
 -21020456.29348 -16367674.61746  21660598.3284                   21660595.7664
  -7311301.93447  -5686490.02345  22379950.0784                   22379948.1884
 -13614413.95347 -10597015.95346  22435328.6804                   22435329.1484
 -22412662.63747 -17452340.37145  22637466.0474                   22637462.0594
   4094871.56647   3201064.96543  24175857.5864                   24175855.6374
 11  8 29  2 41  0.0000000  0  9G21G12G26G29G05G15G25G02G18
   1996712.73846   1563355.12943  24455271.9224                   24455270.2624
 -13145833.71946 -10231963.37544  23413942.4304                   23413941.7774
 -13360566.82047 -10400304.23045  21753429.9454                   21753428.0274
 -17664862.98848 -13755206.38346  21002540.4924                   21002538.2774
 -20970730.56248 -16328927.30546  21670060.7584                   21670058.1524
  -7422505.13747  -5773141.80145  22358788.7894                   22358787.4534
 -13578294.34447 -10568870.81646  22442201.6484                   22442203.1134
 -22388720.96947 -17433684.54345  22642022.1644                   22642018.0274
   3988592.13347   3118249.89843  24155633.1254                   24155629.7344
 11  8 29  2 41 30.0000000  0  9G21G12G26G29G05G15G25G02G18
   1915793.41046   1500301.18843  24439873.6414                   24439872.0314
 -13077124.38746 -10178423.65644  23427017.7664                   23427016.0084
 -13442243.11747 -10463948.05545  21737887.2664                   21737885.7274
 -17746097.30948 -13818505.84046  20987081.8134                   20987079.7034
 -20920768.00848 -16289995.44946  21679567.9224                   21679565.5744
  -7533466.40247  -5859605.08645  22337673.4614                   22337671.8134
 -13541826.21947 -10540454.09846  22449141.5164                   22449142.5354
 -22364664.66447 -17414939.38745  22646599.7274                   22646595.8554
   3882521.66846   3035597.65243  24135448.3594                   24135446.1174
 11  8 29  2 42  0.0000000  0  9G21G12G26G29G05G15G25G02G18
   1834838.64546   1437219.60243  24424468.6564                   24424467.0594
 -13008347.71946 -10124831.45744  23440105.4454                   23440104.2624
 -13523406.43447 -10527192.17245  21722442.6724                   21722440.3834
 -17826981.31248 -13881532.32846  20971690.1094                   20971688.0274
 -20870571.30148 -16250881.13746  21689120.0864                   21689117.6524
  -7644183.41847  -5945878.02745  22316604.3204                   22316602.6914
 -13505013.17247 -10511768.62946  22456146.8594                   22456147.8164
 -22340493.77047 -17396104.94145  22651199.4454                   22651195.4224
   3776660.77346   2953108.68043  24115303.9844                   24115301.5594
 11  8 29  2 42 30.0000000  0  9G21G12G26G29G05G15G25G02G18
   1753851.29746   1374112.63743  24409057.0164                   24409055.2624
 -12939503.56646 -10071186.65244  23453206.3284                   23453204.4774
 -13604050.63747 -10590031.76645  21707095.5864                   21707094.1884
 -17907509.42248 -13944281.49247  20956366.3284                   20956364.0944
 -20820139.95748 -16211584.01246  21698717.0164                   21698714.7384
  -7754650.09447  -6031955.89845  22295583.6564                   22295581.4344
 -13467854.92247 -10482814.16445  22463217.6414                   22463218.8554
 -22316204.93447 -17377178.59445  22655821.3054                   22655817.7034
   3671013.12546   2870785.91443  24095199.0394                   24095197.6804
 11  8 29  2 43  0.0000000  0  9G21G12G26G29G05G15G25G02G18
   1672826.04346   1310976.16843  24393638.4774                   24393636.6764
 -12870599.84046 -10017495.44944  23466318.2034                   23466317.1804
 -13684177.68747 -10652468.39545  21691848.2034                   21691846.6094
 -17987684.41848 -14006755.49646  20941109.1254                   20941107.3634
 -20769481.77348 -16172110.12146  21708357.0474                   21708354.5824
  -7864868.45347  -6117840.29345  22274609.5944                   22274607.7934
 -13430359.44547 -10453596.91445  22470353.1644                   22470353.8834
 -22291802.83247 -17358163.99245  22660464.8054                   22660461.3164
   3565574.91046   2788626.37943  24075134.8284                   24075133.4454
 11  8 29  2 43 30.0000000  0  9G21G12G26G29G05G15G25G02G18
   1591763.93046   1247810.95743  24378212.4844                   24378210.7894
 -12801637.67246  -9963758.70344  23479441.1644                   23479439.3204
 -13763782.87147 -10714498.37945  21676700.0784                   21676698.4964
 -18067502.05148 -14068951.04746  20925920.4614                   20925917.9494
 -20718596.98848 -16132459.64846  21718039.8674                   21718037.2664
  -7974833.48447  -6203527.29745  22253684.1804                   22253682.3444
 -13392527.77347 -10424117.69545  22477552.4924                   22477552.8364
 -22267284.93047 -17339059.12945  22665130.4534                   22665126.4184
   3460348.69946   2706632.02343  24055110.5784                   24055109.6134
 11  8 29  2 44  0.0000000  0  9G21G12G26G29G05G15G25G02G18
   1510668.08246   1184619.46144  24362780.4694                   24362778.8594
 -12732617.16846  -9909976.49244  23492575.3444                   23492573.9774
 -13842860.08247 -10776116.94145  21661652.0634                   21661650.1804
 -18146957.01248 -14130863.99246  20910800.6724                   20910798.6054
 -20667485.09448 -16092632.21546  21727766.2664                   21727763.7384
  -8084539.39847  -6289012.37145  22232807.3984                   22232805.4654
 -13354359.81647 -10394376.43445  22484814.9534                   22484816.0204
 -22242647.61747 -17319861.24245  22669819.2974                   22669815.0084
   3355338.78947   2624806.18443  24035128.5554                   24035127.1524
 11  8 29  2 44 30.0000000  0  9G21G12G26G29G05G15G25G02G18
   1429536.45347   1121400.08244  24347342.2034                   24347340.0944
 -12663542.62946  -9856152.20744  23505719.3364                   23505717.7154
 -13921407.85947 -10837322.96945  21646705.1024                   21646702.9734
 -18226048.51248 -14192493.71147  20895749.8204                   20895747.7154
 -20616149.66048 -16052630.59846  21737535.2584                   21737532.8284
  -8193984.13747  -6374293.93445  22211981.0004                   22211979.2274
 -13315859.96147 -10364376.57445  22492141.6414                   22492142.2974
 -22217892.06647 -17300571.20745  22674529.6024                   22674525.5744
   3250544.35247   2543148.26243  24015186.4144                   24015184.9144
 11  8 29  2 45  0.0000000  0  9G21G12G26G29G05G15G25G02G18
   1348367.82046   1058151.87543  24331895.8594                   24331894.1094
 -12594418.18447  -9802288.98444  23518873.7664                   23518871.6454
 -13999424.23847 -10898114.91446  21631859.1024                   21631857.1564
 -18304775.00048 -14253839.01247  20880769.0234                   20880766.4574
 -20564594.49248 -16012457.75446  21747345.7114                   21747342.8554
  -8303165.89147  -6459370.57445  22191204.1334                   22191202.4384
 -13277032.14847 -10334121.14845  22499530.0004                   22499531.2074
 -22193018.98047 -17281189.59045  22679262.6884                   22679259.3244
   3145965.42247   2461658.25043  23995286.0944                   23995284.6024
 11  8 29  2 45 30.0000000  0  9G21G12G26G29G05G15G25G02G18
   1267160.01647    994873.12944  24316442.5554                   24316440.4224
 -12525248.18747  -9748390.30944  23532036.6884                   23532034.6294
 -14076907.65247 -10958491.55945  21617114.8134                   21617112.7384
 -18383135.96948 -14314899.48446  20865857.3364                   20865854.9884
 -20512823.30948 -15972116.58246  21757197.3524                   21757194.6804
  -8412082.85547  -6544240.89845  22170478.2274                   22170476.2734
 -13237880.79347 -10303613.61745  22506980.0234                   22506981.2584
 -22168028.98847 -17261716.88745  22684018.7894                   22684014.3284
   3041601.39146   2380335.69943  23975425.5164                   23975423.8834
 11  8 29  2 46  0.0000000  0  9G21G12G26G29G05G15G25G02G18
   1185915.55147    931565.82443  24300983.0234                   24300979.8794
 -12456033.14147  -9694456.51244  23545207.2974                   23545205.8554
 -14153853.05947 -11018448.98445  21602472.0474                   21602470.5084
 -18461126.60548 -14375671.38746  20851016.1804                   20851013.9964
 -20460836.13748 -15931607.11346  21767090.3914                   21767088.2424
  -8520729.44947  -6628900.53545  22149802.6954                   22149801.1414
 -13198406.37547 -10272854.33245  22514492.1174                   22514493.0394
 -22142919.25047 -17242150.86345  22688796.3674                   22688792.6414
   2937455.56346   2299183.18843  23955607.7584                   23955605.4734
 11  8 29  2 46 30.0000000  0  9G21G12G26G29G05G15G25G02G18
   1104632.23847    868228.24643  24285514.9534                   24285512.9384
 -12386777.78547  -9640491.32045  23558386.2734                   23558385.2774
 -14230258.66848 -11077985.78945  21587932.5004                   21587930.7464
 -18538745.80948 -14436153.84846  20836245.5944                   20836243.2774
 -20408636.57848 -15890932.15246  21777023.7504                   21777020.8794
  -8629104.16447  -6713348.32045  22129180.0474                   22129178.3164
 -13158613.34847 -10241846.78945  22522064.5864                   22522065.5124
 -22117690.85547 -17222492.39845  22693597.4224                   22693593.3244
   2833527.70346   2218200.49243  23935829.9614                   23935829.0004
 11  8 29  2 47  0.0000000  0  9G21G12G26G29G05G15G25G02G18
   1023309.80146    804860.20743  24270039.1024                   24270037.4144
 -12317485.36747  -9586497.25444  23571572.4924                   23571571.1954
 -14306122.23448 -11137100.22346  21573496.3984                   21573494.5594
 -18615991.84448 -14496345.54346  20821546.3914                   20821543.8984
 -20356227.25448 -15850093.72346  21786996.7034                   21786994.3244
  -8737204.31647  -6797582.16845  22108609.3364                   22108607.3984
 -13118504.98447 -10210593.52045  22529696.7664                   22529697.9964
 -22092343.57047 -17202741.27045  22698420.4844                   22698416.4734
   2729818.56346   2137388.25443  23916095.2584                   23916093.1804
 11  8 29  2 47 30.0000000  0  9G21G12G26G29G05G15G25G02G18
    941950.21946    741463.20344  24254557.2114                   24254554.8014
 -12248155.59046  -9532474.07844  23584765.1094                   23584763.7934
 -14381437.83248 -11195787.66045  21559164.2584                   21559162.4694
 -18692859.22348 -14556242.17647  20806918.9384                   20806916.3364
 -20303608.10548 -15809091.79346  21797010.0784                   21797007.0904
  -8845024.01647  -6881597.46946  22088092.1094                   22088089.6134
 -13078081.44947 -10179094.66446  22537389.2584                   22537390.6994
 -22066873.83247 -17182894.72745  22703267.6334                   22703263.2074
   2626331.33246   2056748.91043  23896402.5474                   23896400.5044
 11  8 29  2 48  0.0000000  0  9G21G12G26G29G05G15G25G02G18
    860550.02046    678034.53143  24239067.5164                   24239065.2504
 -12178794.98447  -9478426.87144  23597964.0864                   23597962.3324
 -14456206.33248 -11254048.78946  21544936.6564                   21544934.3094
 -18769349.81648 -14615845.20747  20792363.1094                   20792360.6254
 -20250784.86348 -15767930.84046  21807061.7274                   21807059.2854
  -8952563.69547  -6965394.57446  22067627.7194                   22067625.9184
 -13037349.16847 -10147355.23845  22545140.3914                   22545141.3364
 -22041284.95347 -17162955.35545  22708136.7584                   22708133.0274
   2523063.61746   1976280.60243  23876750.9384                   23876749.1134
 11  8 29  2 48 30.0000000  0  9G21G12G26G29G05G15G25G02G18
    779111.21146    614575.82443  24223569.5864                   24223567.6884
 -12109404.72346  -9424356.55144  23611168.5004                   23611167.5744
 -14530422.87148 -11311879.83645  21530813.1804                   21530811.1454
 -18845458.95748 -14675151.00447  20777880.2344                   20777877.9384
 -20197757.82048 -15726611.07046  21817152.3204                   21817149.8594
  -9059818.33647  -7048969.57445  22047217.8364                   22047216.1484
 -12996309.23047 -10115376.07845  22552950.1884                   22552951.5514
 -22015574.64147 -17142921.35245  22713029.3674                   22713025.1764
   2420018.03946   1895985.40243  23857142.5634                   23857140.7274
 11  8 29  2 49  0.0000000  0  9G21G12G26G29G05G15G25G02G18
    697630.07446    551084.12144  24208063.5784                   24208061.9924
 -12039990.40246  -9370267.48844  23624377.6954                   23624376.4964
 -14604087.64848 -11369280.93745  21516795.1094                   21516793.2274
 -18921187.05148 -14734159.87947  20763469.3524                   20763467.1644
 -20144532.27748 -15685136.62546  21827281.1954                   21827278.2734
  -9166787.69547  -7132322.27745  22026862.2344                   22026860.5044
 -12954967.36747 -10083161.65245  22560817.0314                   22560817.8754
 -21989744.81247 -17122794.25445  22717944.6414                   22717940.7934
   2317192.73447   1815861.82844  23837575.6954                   23837573.7304
 11  8 29  2 49 30.0000000  0  9G21G12G26G29G05G15G25G02G18
    616107.51647    487560.16044  24192551.1414                   24192549.0234
 -11970553.94946  -9316161.19944  23637591.3914                   23637590.1334
 -14677196.61348 -11426248.93046  21502883.3134                   21502881.2344
 -18996530.71548 -14792869.20747  20749132.3284                   20749129.9384
 -20091109.55548 -15643508.53946  21837447.0554                   21837444.2504
  -9273467.65247  -7215449.48446  22006561.6644                   22006559.7344
 -12913325.55947 -10050713.51645  22568741.3674                   22568742.6724
 -21963794.13747 -17102572.96144  22722882.6644                   22722879.1054
   2214589.97747   1735911.71144  23818050.6254                   23818048.6804
 11  8 29  2 50  0.0000000  0  9G21G12G26G29G05G15G25G02G18
    534544.66446    424004.79744  24177029.8284                   24177028.1414
 -11901096.85247  -9262038.80944  23650808.5314                   23650806.8594
 -14749745.53948 -11482780.53945  21489077.3204                   21489075.8244
 -19071486.99248 -14851276.66446  20734868.4304                   20734865.7544
 -20037490.52048 -15601727.46946  21847650.6644                   21847648.2544
  -9379853.73847  -7298347.68446  21986317.4144                   21986314.8954
 -12871385.34447 -10018032.84845  22576722.1644                   22576723.3244
 -21937720.31247 -17082255.73044  22727844.7034                   22727840.7464
   2112212.09847   1656136.77744  23798569.4774                   23798566.9024
 11  8 29  2 50 30.0000000  0  9G21G12G26G29G05G15G25G02G18
    452939.91046    360416.75444  24161500.6254                   24161499.1484
 -11831623.38747  -9207903.66844  23664028.8834                   23664027.5394
 -14821733.15248 -11538874.74645  21475378.6414                   21475376.4964
 -19146054.41848 -14909381.12147  20720678.3204                   20720676.1024
 -19983679.12548 -15559796.52746  21857890.4144                   21857887.9224
  -9485944.15647  -7381015.50046  21966128.6414                   21966126.3594
 -12829151.02347  -9985122.99245  22584759.3984                   22584760.2424
 -21911524.81247 -17061843.65245  22732829.0164                   22732825.8324
   2010058.09447   1576536.31344  23779129.7664                   23779127.9534
 11  8 29  2 51  0.0000000  0  9G21G12G26G29G05G15G25G02G18
    371294.22346    296796.82044  24145964.0864                   24145962.4734
 -11762135.69147  -9153757.44144  23677251.7584                   23677250.7894
 -14893155.81648 -11594528.73045  21461787.1954                   21461785.2704
 -19220229.80948 -14967180.10946  20706563.4144                   20706560.9694
 -19929676.41448 -15517716.48046  21868167.0944                   21868164.2814
  -9591734.95347  -7463449.83246  21945997.3914                   21945995.0594
 -12786624.74247  -9951985.62145  22592851.9224                   22592852.5824
 -21885205.82047 -17041335.38344  22737837.8524                   22737833.9454
   1908130.01247   1497111.87944  23759733.0704                   23759731.6484
 11  8 29  2 51 30.0000000  0  9G21G12G26G29G05G15G25G02G18
    289608.92247    233146.03544  24130420.0394                   24130417.7344
 -11692633.77747  -9099600.12144  23690477.8754                   23690475.8754
 -14964008.51248 -11649738.60546  21448304.2974                   21448302.8714
 -19294008.60548 -15024670.05947  20692523.6334                   20692521.3794
 -19875482.48848 -15475487.46546  21878479.6094                   21878477.0944
  -9697220.82847  -7545646.57446  21925924.0704                   21925922.1564
 -12743807.32447  -9918621.39145  22600999.3444                   22601000.5164
 -21858760.83647 -17020728.92644  22742870.2424                   22742865.9924
   1806430.68046   1417865.73043  23740379.9064                   23740379.0234
 11  8 29  2 52  0.0000000  0  9G21G12G26G29G05G15G25G02G18
    207881.03946    169462.06644  24114867.2734                   24114865.1844
 -11623124.14147  -9045436.76644  23703705.0944                   23703703.7774
 -15034291.54348 -11704504.57446  21434930.1564                   21434927.8484
 -19367391.64848 -15081851.62547  20678559.5554                   20678557.1994
 -19821102.42648 -15433113.38746  21888827.9844                   21888825.0234
  -9802401.94147  -7627605.85246  21905908.7034                   21905906.4534
 -12700704.59447  -9885034.85245  22609201.6484                   22609202.5084
 -21832192.11347 -17000026.03944  22747926.1804                   22747921.8674
   1704958.46146   1338796.51643  23721070.7814                   23721069.0234
 11  8 29  2 52 30.0000000  0  9G21G12G26G29G05G15G25G02G18
    126110.20747    105744.63744  24099307.1804                   24099305.3444
 -11553609.85547  -8991269.81244  23716932.9534                   23716931.6334
 -15104002.45748 -11758824.72346  21421664.7974                   21421662.7774
 -19440376.64148 -15138723.02347  20664671.2034                   20664668.7774
 -19766538.90648 -15390596.37146  21899211.0234                   21899208.4454
  -9907275.35247  -7709325.34846  21885952.1414                   21885949.9144
 -12657319.78147  -9851228.51645  22617457.4534                   22617458.7624
 -21805499.08247 -16979226.31244  22753005.6094                   22753001.7274
   1603713.66846   1259904.51243  23701804.4844                   23701801.9884
 11  8 29  2 53  0.0000000  0  9G21G12G26G29G05G15G25G02G18
     44296.64846     41993.90244  24083738.4304                   24083735.7734
 -11484093.18447  -8937100.94144  23730161.5314                   23730160.0634
 -15173138.15648 -11812696.66045  21408508.4924                   21408506.7814
 -19512961.23448 -15195282.43747  20650858.4534                   20650855.8874
 -19711793.82848 -15347937.87546  21909628.5004                   21909625.8244
 -10011837.51247  -7790802.32046  21866054.3364                   21866052.2274
 -12613655.48847  -9817204.41045  22625766.5474                   22625767.5474
 -21778680.75447 -16958328.94544  22758108.6954                   22758104.4924
   1502697.18446   1181190.44543  23682580.8364                   23682579.4694
 11  8 29  2 53 30.0000000  0  9G21G12G26G29G05G15G25G02G18
    -37558.46546    -21789.23443  24068161.6804                   24068159.2814
 -11414575.39147  -8882931.25844  23743390.3834                   23743388.5634
 -15241694.39548 -11866117.08245  21395462.2974                   21395460.5554
 -19585141.46148 -15251526.74247  20637122.9534                   20637120.4534
 -19656868.12148 -15305138.63746  21920080.5164                   21920077.9844
 -10116083.69547  -7872033.08645  21846216.5704                   21846214.4024
 -12569713.32047  -9782963.80145  22634128.8204                   22634129.9804
 -21751735.50847 -16937332.67644  22763236.6884                   22763233.1684
   1401911.52346   1102656.21543  23663401.9224                   23663400.5864
 11  8 29  2 54  0.0000000  0  9G21G12G26G29G05G15G25G02G18
   -119456.56246    -85605.83643  24052576.9304                   24052574.8134
 -11345060.82047  -8828764.03944  23756618.6954                   23756617.4574
 -15309670.23848 -11919085.23446  21382527.0004                   21382525.2624
 -19656916.13748 -15307455.05147  20623464.7974                   20623462.2504
 -19601765.30548 -15262201.37946  21930565.9144                   21930563.6374
 -10220012.43047  -7953016.48046  21826439.9774                   21826437.8244
 -12525497.54747  -9748509.98045  22642542.4924                   22642543.5824
 -21724663.99647 -16916238.03945  22768388.2194                   22768384.5394
   1301356.59047   1024301.79343  23644267.4454                   23644265.2934
 11  8 29  2 54 30.0000000  0  9G21G12G26G29G05G15G25G02G18
   -201396.96546   -149455.42643  24036983.6414                   24036981.1294
 -11275551.29747  -8774600.78144  23769846.1174                   23769844.3794
 -15377062.14148 -11971598.37546  21369702.8834                   21369700.7504
 -19728282.69148 -15363065.34047  20609884.1024                   20609881.9734
 -19546486.73048 -15219127.18446  21941085.2034                   21941082.9534
 -10323619.78147  -8033749.45346  21806724.1254                   21806721.7814
 -12481010.27047  -9713844.59445  22651008.1884                   22651009.4774
 -21697465.00047 -16895044.03145  22773564.1024                   22773560.4884
   1201033.80146    946128.24243  23625176.6804                   23625174.5084
 11  8 29  2 55  0.0000000  0  9G21G12G26G29G05G15G25G02G18
   -283381.32446   -213339.28543  24021382.9454                   24021380.0984
 -11206050.93746  -8720444.69544  23783070.9924                   23783070.0354
 -15443868.75048 -12023655.42246  21356989.8364                   21356987.6994
 -19799239.93748 -15418356.68447  20596381.5234                   20596378.9924
 -19491035.81647 -15175918.69146  21951636.9844                   21951634.8914
 -10426903.97347  -8114230.60246  21787069.6724                   21787067.7814
 -12436255.92247  -9678971.10945  22659525.2274                   22659525.8244
 -21670138.95347 -16873751.02345  22778764.1804                   22778760.1414
   1100942.64846    868135.19543  23606129.8674                   23606127.2854
 11  8 29  2 55 30.0000000  0  9G21G12G26G29G05G15G25G02G18
   -365410.41046   -277257.95743  24005773.2194                   24005771.0514
 -11136563.50847  -8666298.66044  23796294.6094                   23796292.8524
 -15510088.35547 -12075255.08646  21344388.8754                   21344386.4184
 -19869786.17648 -15473327.76647  20582956.8134                   20582954.2234
 -19435415.63747 -15132578.30146  21962221.0634                   21962218.6054
 -10529862.63347  -8194458.09046  21767477.4144                   21767475.3164
 -12391238.13747  -9643892.33245  22668091.4304                   22668092.4844
 -21642686.35947 -16852359.41445  22783988.4924                   22783984.5474
   1001083.12946    790322.60244  23587127.7734                   23587126.0704
 11  8 29  2 56  0.0000000  0  9G21G12G26G29G05G15G25G02G18
   -447481.98447   -341209.77044  23990155.6724                   23990153.0434
 -11067088.91447  -8612162.64544  23809514.5554                   23809513.5164
 -15575715.66048 -12126393.20746  21331900.5314                   21331897.9844
 -19939917.07048 -15527975.20747  20569611.5084                   20569609.4654
 -19379625.78947 -15089105.72346  21972838.2344                   21972835.7114
 -10632490.19947  -8274427.57846  21747947.6954                   21747945.5044
 -12345957.33647  -9608608.62145  22676707.8984                   22676708.9534
 -21615103.81247 -16830866.55145  22789237.2344                   22789233.2544
    901458.60547    712693.15244  23568169.8524                   23568167.5514
 11  8 29  2 56 30.0000000  0  9G21G12G26G29G05G15G25G02G18
   -529598.15247   -405196.29344  23974529.0164                   23974527.0124
 -10997631.75046  -8558040.22744  23822731.7894                   23822731.0704
 -15640750.31248 -12177069.52046  21319524.6954                   21319522.6054
 -20009632.61748 -15582299.00447  20556344.9844                   20556342.4654
 -19323670.72347 -15045504.38346  21983485.6094                   21983483.6724
 -10734785.83247  -8354138.42246  21728481.7114                   21728479.4884
 -12300418.60247  -9573123.91445  22685373.6884                   22685375.1294
 -21587392.75447 -16809273.53145  22794510.3444                   22794506.5274
    802067.94546    635245.93044  23549256.1094                   23549253.8834
 11  8 29  2 57  0.0000000  0  9G21G12G26G29G05G15G25G02G18
   -611757.27347   -469216.31244  23958895.2584                   23958892.5634
 -10928193.59446  -8503932.61344  23835945.8834                   23835944.8794
 -15705188.05148 -12227280.71546  21307262.2734                   21307260.4494
 -20078928.27348 -15636295.59847  20543158.5004                   20543155.9734
 -19267550.54747 -15001774.39146  21994165.4064                   21994162.5864
 -10836744.44548  -8433586.65246  21709079.5474                   21709077.1564
 -12254623.09447  -9537439.11745  22694088.2034                   22694089.3164
 -21559550.87547 -16787578.56245  22799808.6024                   22799804.5084
    702913.63746    557982.90244  23530387.5634                   23530386.1094
 11  8 29  2 57 30.0000000  0  9G21G12G26G29G05G15G25G02G18
   -693961.91847   -533271.81244  23943252.1254                   23943249.5234
 -10858779.02746  -8449843.34844  23849155.1174                   23849153.7194
 -15769028.51248 -12277026.48446  21295114.1884                   21295112.0354
 -20147803.97748 -15689964.97747  20530051.8524                   20530049.6914
 -19211269.71547 -14957919.20746  22004874.8364                   22004872.4344
 -10938365.32448  -8512771.69946  21689741.8834                   21689739.4224
 -12208576.03947  -9501558.32845  22702850.9144                   22702852.0664
 -21531579.75847 -16765782.90245  22805131.1884                   22805127.0704
    603994.35947    480903.01644  23511563.4924                   23511561.8674
 11  8 29  2 58  0.0000000  0  9G21G12G26G29G05G15G25G02G18
   -776210.91847   -597361.87144  23927600.2504                   23927598.0314
 -10789389.63346  -8395773.69944  23862359.6094                   23862358.7664
 -15832268.04748 -12326304.01646  21283079.9064                   21283077.8674
 -20216256.44148 -15743304.54347  20517025.6414                   20517023.4144
 -19154829.38747 -14913939.75446  22015615.6724                   22015613.0474
 -11039644.38748  -8591690.41046  21670468.6024                   21670466.5514
 -12162279.24647  -9465482.93045  22711660.7274                   22711662.0044
 -21503477.74247 -16743885.26245  22810478.5314                   22810475.3674
    505311.73846    404007.52344  23492785.2034                   23492783.3874
 11  8 29  2 58 30.0000000  0  9G21G12G26G29G05G15G25G02G18
   -858503.84447   -661486.16044  23911940.2584                   23911938.3524
 -10720027.87947  -8341725.55144  23875558.6564                   23875557.2894
 -15894903.80147 -12375111.06246  21271160.8364                   21271158.0864
 -20284282.89548 -15796312.16047  20504080.4384                   20504078.2664
 -19098231.08247 -14869837.17646  22026385.4924                   22026383.9924
 -11140577.96948  -8670339.90646  21651261.7504                   21651259.5314
 -12115735.23447  -9429214.91045  22720517.5554                   22720519.0124
 -21475243.52347 -16721884.58645  22815851.5084                   22815847.6764
    406867.46946    327297.77744  23474051.5554                   23474050.0554
 11  8 29  2 59  0.0000000  0  9G21G12G26G29G05G15G25G02G18
   -940839.78147   -725643.97344  23896272.9844                   23896270.3834
 -10650695.52747  -8287700.30944  23888751.9224                   23888750.8094
 -15956932.82048 -12423445.32846  21259356.6564                   21259354.9774
 -20351880.50048 -15848985.60547  20491216.8204                   20491215.2304
 -19041476.33647 -14825612.73046  22037185.5164                   22037183.7464
 -11241162.37948  -8748717.33246  21632121.4454                   21632118.9734
 -12068946.34847  -9392756.08245  22729421.8364                   22729422.8284
 -21446876.07047 -16699780.09445  22821250.1254                   22821245.6914
    308662.53146    250774.50044  23455363.7034                   23455361.3554
 11  8 29  2 59 30.0000000  0  9G21G12G26G29G05G15G25G02G18
  -1023221.73847   -789837.66444  23880595.7034                   23880593.0904
 -10581397.96147  -8233702.21144  23901938.5554                   23901937.7074
 -16018355.06648 -12471306.77746  21247668.5084                   21247666.7074
 -20419049.61348 -15901325.16847  20478435.3674                   20478433.1914
 -18984569.55947 -14781269.78946  22048014.9924                   22048012.7464
 -11341397.19548  -8826822.34446  21613047.4144                   21613044.6954
 -12021918.13347  -9356110.78145  22738370.7974                   22738371.5904
 -21418377.34847 -16677573.32845  22826672.7504                   22826669.1884
    210695.88746    174436.93044  23436721.8284                   23436719.5204
 11  8 29  3  0  0.0000000  0  9G21G12G26G29G05G15G25G02G18
  -1105649.87947   -854067.30144  23864910.0634                   23864908.1254
 -10512138.15647  -8179733.50844  23915118.6724                   23915117.5204
 -16079168.28148 -12518693.67645  21236096.2034                   21236093.8874
 -20485788.21948 -15953329.25847  20465735.3754                   20465733.3134
 -18927513.22347 -14736810.32446  22058872.3054                   22058869.9924
 -11441279.42648  -8904652.60946  21594039.9614                   21594037.7154
 -11974653.65647  -9319281.35545  22747364.9534                   22747366.3094
 -21389746.53146 -16655263.62545  22832121.4064                   22832117.5824
    112967.46146     98284.96544  23418123.7894                   23418122.5274
 11  8 29  3  0 30.0000000  0  9G21G12G26G29G05G15G25G02G18
  -1188123.15646   -918332.12144  23849215.6024                   23849213.4224
 -10442917.38747  -8125795.25844  23928291.6804                   23928289.9804
 -16139369.21148 -12565603.46145  21224640.2344                   21224638.1524
 -20552093.16848 -16004995.43447  20453117.8674                   20453116.0554
 -18870308.51648 -14692235.23846  22069757.8754                   22069755.7854
 -11540805.17647  -8982205.09846  21575100.8914                   21575098.7464
 -11927154.87548  -9282269.34445  22756404.1094                   22756404.2584
 -21360982.43446 -16632850.06644  22837594.4144                   22837591.0514
     15479.32046     22320.22743  23399572.5634                   23399570.8794
 11  8 29  3  1  0.0000000  0  9G21G12G26G29G05G15G25G02G18
  -1270641.12547   -982631.77344  23833513.1644                   23833510.1604
 -10373738.35247  -8071889.51244  23941455.3284                   23941453.8134
 -16198955.17248 -12612034.04746  21213301.3914                   21213299.2464
 -20617961.85548 -16056321.66447  20440583.6174                   20440581.4104
 -18812957.06248 -14647545.79746  22080671.8364                   22080669.3324
 -11639971.27048  -9059477.33246  21556230.3134                   21556227.6254
 -11879424.55947  -9245076.89845  22765486.5864                   22765487.4924
 -21332083.89547 -16610331.76645  22843094.6724                   22843090.0984
    -81767.63747    -53456.58243  23381067.0084                   23381065.2274
 11  8 29  3  1 30.0000000  0  9G21G12G26G29G05G15G25G02G18
  -1353204.41447  -1046966.73444  23817801.1564                   23817799.3054
 -10304603.77347  -8018018.37144  23954610.9064                   23954609.9534
 -16257924.16448 -12657983.88746  21202079.9064                   21202077.9614
 -20683392.21148 -16107306.33647  20428132.5554                   20428130.0784
 -18755461.34848 -14602743.94946  22091612.6174                   22091610.2464
 -11738774.61747  -9136466.91046  21537428.6484                   21537425.8444
 -11831465.80147  -9207706.44145  22774613.1644                   22774613.7344
 -21303050.63747 -16587708.48044  22848619.1254                   22848615.1054
   -178772.97746   -129045.10544  23362607.4304                   23362605.5594
 11  8 29  3  2  0.0000000  0  9G21G12G26G29G05G15G25G02G18
  -1435811.01246  -1111335.46944  23802081.8984                   23802079.9844
 -10235514.55947  -7964182.63744  23967758.6414                   23967757.9694
 -16316272.02048 -12703449.71946  21190976.9534                   21190974.9024
 -20748380.39548 -16157946.46147  20415765.9534                   20415763.4774
 -18697821.42647 -14557829.73046  22102581.0394                   22102578.7934
 -11837210.56248  -9213170.19546  21518696.9534                   21518694.1604
 -11783279.79348  -9170158.91845  22783782.3364                   22783783.1764
 -21273880.43747 -16564978.48444  22854169.5394                   22854165.4494
   -275533.82847   -204443.08644  23344194.7664                   23344192.6334
 11  8 29  3  2 30.0000000  0  9G21G12G26G29G05G15G25G02G18
  -1518464.24646  -1175740.51244  23786353.5554                   23786351.1094
 -10166476.26646  -7910386.50044  23980895.9304                   23980893.9414
 -16373999.47748 -12748432.12546  21179991.4454                   21179989.4144
 -20812927.28948 -16208242.71947  20403483.0784                   20403480.5514
 -18640042.31247 -14512807.07446  22113576.0864                   22113573.8834
 -11935278.84848  -9289587.00846  21500034.9384                   21500032.6174
 -11734872.58248  -9132439.01645  22792993.8594                   22792994.4804
 -21244575.39147 -16542143.43044  22859746.6884                   22859742.3484
   -372052.80947   -279652.69544  23325827.6094                   23325825.8134
 11  8 29  3  3  0.0000000  0  9G21G12G26G29G05G15G25G02G18
    -25741.04347    -12579.52344  24070409.5864                   24070406.6174
  -8522073.39846  -6629033.62144  24293815.6174                   24293814.2114
 -14855681.98848 -11565327.57046  21468917.8914                   21468915.4414
 -19301607.84048 -15030591.18047  20691077.3834                   20691075.2194
 -17006707.70347 -13240078.82046  22424389.2584                   22424387.4694
 -10457553.10248  -8138112.35246  21781236.7814                   21781234.8594
 -10110828.40648  -7866950.06245  23102039.2974                   23102040.1954
 -19639715.57447 -15291603.35944  23165141.2734                   23165137.3404
   1107094.40647    872929.59444  23607300.2814                   23607298.1254
 11  8 29  3  3 30.0000000  0  9G21G12G26G29G05G15G25G02G18
   -108486.35547    -77056.34844  24054663.1884                   24054660.6524
  -8453143.84046  -6575322.30144  24306932.9924                   24306931.0044
 -14912160.94148 -11609337.09846  21458170.1094                   21458167.8714
 -19365264.33648 -15080193.63747  20678963.8284                   20678961.7974
 -16948655.68447 -13194843.48446  22435436.0004                   22435433.7814
 -10554876.49648  -8213948.72346  21762716.6804                   21762714.6724
 -10061986.65247  -7828891.55545  23111333.5474                   23111334.0904
 -19610138.02747 -15268555.95344  23170769.7034                   23170765.4224
   1011062.83247    798099.84844  23589025.7034                   23589023.4574
 11  8 29  3  4  0.0000000  0  9G21G12G26G29G05G15G25G02G18
   -191278.59247   -141569.69144  24038909.2734                   24038906.1174
  -8384273.34046  -6521656.95344  24320038.1174                   24320037.1454
 -14968013.17248 -11652858.29746  21447541.7734                   21447539.4184
 -19428473.50448 -15129447.51647  20666935.7194                   20666933.3164
 -16890471.01247 -13149504.78945  22446508.3674                   22446506.2584
 -10651823.66048  -8289491.93046  21744268.4844                   21744266.1094
 -10012932.94547  -7790667.91445  23120668.1334                   23120669.6334
 -19580423.99247 -15245402.18744  23176424.0554                   23176420.3674
    915274.87547    723459.93044  23570798.3364                   23570795.9694
 11  8 29  3  4 30.0000000  0  9G21G12G26G29G05G15G25G02G18
   -274118.05147   -206119.92644  24023145.0164                   24023142.2114
  -8315464.92246  -6468040.04344  24333131.9694                   24333130.2974
 -15023237.19548 -11695889.98046  21437032.9144                   21437031.2854
 -19491233.50848 -15178351.39847  20654993.0084                   20654990.5634
 -16832155.93747 -13104064.47746  22457605.6644                   22457602.8634
 -10748392.66448  -8364740.47346  21725891.9144                   21725889.3984
  -9963670.73847  -7752281.79345  23130042.4534                   23130043.5744
 -19550573.56247 -15222142.17644  23182104.4064                   23182100.7234
    819730.95347    649010.12544  23552617.1414                   23552614.4964
 11  8 29  3  5  0.0000000  0  9G21G12G26G29G05G15G25G02G18
   -357002.99247   -270705.55144  24007372.6414                   24007369.7464
  -8246719.98846  -6414472.56644  24346213.6334                   24346212.0434
 -15077829.18748 -11738429.16046  21426644.2194                   21426642.8794
 -19553540.56648 -15226902.35247  20643136.0944                   20643133.4694
 -16773711.33647 -13058523.22345  22468727.2274                   22468724.7504
 -10844578.45348  -8439690.40646  21707588.4144                   21707586.0164
  -9914201.39847  -7713734.27745  23139456.3054                   23139457.7074
 -19520584.45347 -15198774.06644  23187811.8204                   23187806.6684
    724433.42647    574752.34844  23534481.7894                   23534479.9844
 11  8 29  3  5 30.0000000  0  9G21G12G26G29G05G15G25G02G18
   -439933.28546   -335326.52344  23991591.5474                   23991588.8244
  -8178040.37146  -6360955.97744  24359282.4844                   24359281.1804
 -15131786.56248 -11780473.82846  21416376.6484                   21416374.7464
 -19615392.28548 -15275098.48847  20631366.3444                   20631363.7424
 -16715139.01647 -13012882.47345  22479873.1414                   22479871.0514
 -10940377.68748  -8514339.12146  21689358.3834                   21689356.1604
  -9864527.63747  -7675027.46945  23148908.9454                   23148909.8404
 -19490455.54346 -15175297.02744  23193544.2344                   23193540.5234
    629383.25447    500687.32044  23516394.6954                   23516392.4844
 11  8 29  3  6  0.0000000  0  9G21G12G26G29G05G15G25G02G18
   -522909.92246   -399983.59444  23975801.2734                   23975798.6914
  -8109429.84847  -6307493.19544  24372338.9304                   24372337.9574
 -15185108.69148 -11822023.51246  21406229.7814                   21406227.5944
 -19676787.85948 -15322939.18447  20619682.8524                   20619680.7544
 -16656441.57047 -12967144.21145  22491042.4144                   22491040.1374
 -11035788.78548  -8588685.41046  21671202.1254                   21671199.6844
  -9814653.56247  -7636164.55145  23158399.7974                   23158400.5634
 -19460187.55547 -15151711.61744  23199304.2194                   23199299.5204
    534579.88347    426814.59444  23498353.6414                   23498352.3524
 11  8 29  3  6 30.0000000  0  9G21G12G26G29G05G15G25G02G18
   -605933.10946   -464676.94944  23960002.2814                   23960000.5944
  -8040891.15246  -6254086.40644  24385382.0084                   24385380.1054
 -15237793.41847 -11863076.50446  21396204.1094                   21396201.9804
 -19737725.27048 -15370422.87147  20608086.9694                   20608084.5744
 -16597621.55147 -12921310.42645  22502235.9304                   22502233.7344
 -11130809.23448  -8662727.28146  21653120.3364                   21653117.8554
  -9764582.35947  -7597148.03945  23167927.6804                   23167928.7384
 -19429779.98047 -15128017.43744  23205090.9694                   23205086.2664
    440023.88747    353134.66444  23480360.4224                   23480358.5004
 11  8 29  3  7  0.0000000  0  9G21G12G26G29G05G15G25G02G18
   -689003.87546   -529407.35544  23944194.9924                   23944192.1724
  -7972428.44146  -6200738.84844  24398409.2664                   24398408.3674
 -15289840.41848 -11903632.57846  21386299.8364                   21386297.6254
 -19798203.77048 -15417548.96947  20596578.1484                   20596575.6174
 -16538682.08247 -12875383.57845  22513451.9064                   22513448.9654
 -11225437.29348  -8736463.39546  21635113.1024                   21635110.6684
  -9714318.41047  -7557981.32445  23177492.3444                   23177493.6134
 -19399233.48446 -15104215.00844  23210903.3914                   23210899.5784
    345714.33247    279646.70744  23462414.1024                   23462411.9264
 11  8 29  3  7 30.0000000  0  9G21G12G26G29G05G15G25G02G18
   -772121.74246   -594174.44944  23928377.7114                   23928375.5314
  -7904043.19546  -6147451.61744  24411422.6174                   24411421.8404
 -15341246.47748 -11943689.22746  21376517.6954                   21376515.7584
 -19858220.52348 -15464315.25847  20585157.4694                   20585154.8914
 -16479624.14847 -12829364.40645  22524690.2274                   22524687.7344
 -11319668.83648  -8809890.54346  21617181.4844                   21617178.8914
  -9663863.71547  -7518665.97745  23187093.9454                   23187094.6094
 -19368546.57446 -15080303.15644  23216743.4224                   23216738.9804
    251653.00047    206352.20344  23444515.3204                   23444513.0354
 11  8 29  3  8  0.0000000  0  9G21G12G26G29G05G15G25G02G18
   -855288.65646   -658979.78944  23912550.9144                   23912549.0274
  -7835740.07046  -6094228.41444  24424419.9774                   24424418.9144
 -15392011.95348 -11983246.69946  21366857.5704                   21366855.2304
 -19917775.41848 -15510721.66047  20573824.7584                   20573821.9774
 -16420452.05947 -12783256.30545  22535950.1414                   22535947.9884
 -11413503.35948  -8883008.31646  21599325.2664                   21599322.6454
  -9613223.34447  -7479205.94945  23196730.3284                   23196731.8164
 -19337720.87947 -15056283.15644  23222608.9224                   23222604.3014
    157838.62947    133250.12144  23426662.3524                   23426660.4144
 11  8 29  3  8 30.0000000  0  9G21G12G26G29G05G15G25G02G18
   -938501.57847   -723820.98444  23896716.9454                   23896714.3634
  -7767519.15646  -6041069.23444  24437402.6644                   24437400.6294
 -15442132.46948 -12022301.60946  21357319.6094                   21357317.4264
 -19976864.10548 -15556764.78147  20562580.3754                   20562577.6334
 -16361165.19947 -12737058.76245  22547232.3444                   22547229.7154
 -11506935.56248  -8955812.58246  21581545.8914                   21581543.4804
  -9562398.07447  -7439601.86345  23206402.1484                   23206403.2624
 -19306753.28546 -15032152.59444  23228501.9144                   23228498.5904
     64273.66447     60342.40244  23408857.5394                   23408855.5824
 11  8 29  3  9  0.0000000  0  9G21G12G26G29G05G15G25G02G18
  -1021760.37146   -788697.91844  23880872.6254                   23880870.4104
  -7699381.97746  -5987975.32843  24450368.4064                   24450367.0434
 -15491605.45348 -12060851.94946  21347905.3364                   21347903.3754
 -20035483.89548 -15602442.53547  20551425.3364                   20551423.1374
 -16301764.56647 -12690772.55945  22558535.2734                   22558533.2114
 -11599961.70348  -9028300.44546  21563843.0554                   21563841.1134
  -9511389.92247  -7399855.31245  23216108.9534                   23216109.5124
 -19275642.36747 -15007910.34444  23234422.4774                   23234418.8364
    -29040.35247    -12369.79344  23391100.6024                   23391098.6884
 11  8 29  3  9 30.0000000  0  9G21G12G26G29G05G15G25G02G18
  -1105065.61347   -853611.05544  23865020.3984                   23865017.3244
  -7631332.52346  -5934949.76243  24463317.6724                   24463315.8914
 -15540430.00848 -12098897.03546  21338614.0234                   21338612.4804
 -20093634.02048 -15647754.30947  20540359.4774                   20540357.3014
 -16242253.82047 -12644400.56245  22569860.3674                   22569857.8834
 -11692580.15648  -9100470.61346  21546218.7814                   21546216.6564
  -9460203.11747  -7359969.55945  23225849.3754                   23225850.4804
 -19244388.65647 -14983556.81244  23240369.8594                   23240365.9184
   -122103.94547    -84886.84444  23373390.2504                   23373388.9264
 11  8 29  3 10  0.0000000  0  9G21G12G26G29G05G15G25G02G18
  -1188416.47347   -918559.73444  23849159.8524                   23849156.6954
  -7563372.49246  -5881993.91043  24476250.0704                   24476248.4734
 -15588603.39548 -12136434.70346  21329447.0164                   21329445.3014
 -20151311.25048 -15692697.59847  20529383.8444                   20529381.4494
 -16182633.37547 -12597943.07845  22581205.4774                   22581202.8674
 -11784787.09448  -9172320.12546  21528672.0394                   21528669.8324
  -9408839.63747  -7319946.11745  23235623.6334                   23235624.4024
 -19212990.48446 -14959090.73044  23246345.0704                   23246341.2734
   -214915.51247   -157207.49244  23355729.7664                   23355727.5044
 11  8 29  3 10 30.0000000  0  9G21G12G26G29G05G15G25G02G18
  -1271814.37147   -983545.09044  23833289.3914                   23833286.2154
  -7495505.02745  -5829110.15243  24489163.7664                   24489162.4414
 -15636125.09448 -12173464.56646  21320404.0164                   21320401.6914
 -20208514.77748 -15737271.77047  20518498.7344                   20518496.4344
 -16122906.70747 -12551402.83245  22592571.5234                   22592568.9144
 -11876580.88748  -9243847.71946  21511204.7814                   21511202.2034
  -9357303.62947  -7279788.23445  23245430.5634                   23245431.6724
 -19181448.59046 -14934512.65244  23252347.0474                   23252342.6724
   -307475.86747   -229332.43744  23338116.0474                   23338113.2304
 11  8 29  3 11  0.0000000  0  9G21G12G26G29G05G15G25G02G18
  -1355260.81647  -1048568.28144  23817410.4384                   23817406.8364
  -7427735.39146  -5776302.68043  24502060.9534                   24502059.8324
 -15682995.53548 -12209986.96946  21311484.9454                   21311482.4304
 -20265244.94948 -15781477.09447  20507703.1724                   20507700.7344
 -16063077.69547 -12504782.82845  22603955.9144                   22603953.9224
 -11967961.00048  -9315052.96946  21493815.1884                   21493813.0784
  -9305600.43747  -7239500.05945  23255269.5704                   23255270.0744
 -19149764.71547 -14909823.93044  23258376.1644                   23258372.7114
   -399786.47347   -301262.74244  23320549.1254                   23320547.2464
 11  8 29  3 11 30.0000000  0  9G21G12G26G29G05G15G25G02G18
  -1438752.44947  -1113626.68744  23801522.5314                   23801518.9064
  -7360061.98846  -5723570.16843  24514938.1954                   24514937.1884
 -15729209.28148 -12245997.64846  21302690.4144                   21302688.3364
 -20321496.18448 -15825309.21547  20496998.8054                   20496996.2344
 -16003144.75047 -12458081.85245  22615361.0234                   22615358.7464
 -12058920.90248  -9385930.77346  21476506.1884                   21476504.1804
  -9253729.25047  -7199080.97745  23265140.4774                   23265141.1374
 -19117934.39547 -14885021.08244  23264433.2504                   23264429.6804
   -491842.95347   -372995.04344  23303032.0784                   23303029.7624
 11  8 29  3 12  0.0000000  0  9G21G12G26G29G05G15G25G02G18
  -1522291.22347  -1178721.82444  23785624.9304                   23785621.7664
  -7292489.84046  -5670916.53143  24527797.7584                   24527795.8754
 -15774767.14848 -12281497.27046  21294021.2814                   21294019.3324
 -20377269.12948 -15868768.64547  20486385.7034                   20486383.1684
 -15943112.47347 -12411303.46145  22626784.5784                   22626782.2894
 -12149460.41048  -9456481.01246  21459277.3524                   21459274.8914
  -9201695.62947  -7158535.32845  23275041.6484                   23275042.5314
 -19085959.68047 -14860105.74644  23270517.8914                   23270514.3204
   -583647.35947   -444530.91044  23285562.2974                   23285560.0864
 11  8 29  3 12 30.0000000  0  9G21G12G26G29G05G15G25G02G18
  -1605876.42247  -1243853.12544  23769719.5634                   23769716.3554
  -7225020.73446  -5618343.24644  24540636.8284                   24540635.5824
 -15819666.61348 -12316483.84046  21285477.3674                   21285474.9884
 -20432561.02348 -15911853.24247  20475864.0164                   20475861.7894
 -15882981.35947 -12364448.06245  22638227.8914                   22638225.5594
 -12239576.04748  -9526700.96146  21442128.6884                   21442126.2854
  -9149501.66847  -7117864.71545  23284974.3834                   23284974.9774
 -19053838.93447 -14835076.60544  23276629.9144                   23276626.4224
   -675198.38347   -515869.35544  23268140.7034                   23268138.5864
 11  8 29  3 13  0.0000000  0  9G21G12G26G29G05G15G25G02G18
  -1689508.46547  -1309020.91444  23753805.1334                   23753801.9694
  -7157657.85246  -5565852.67244  24553455.5084                   24553454.0864
 -15863906.85948 -12350956.73446  21277058.7584                   21277056.0044
 -20487370.45748 -15954561.89847  20465434.3054                   20465431.8164
 -15822754.30147 -12317517.90645  22649688.8134                   22649685.7664
 -12329265.22748  -9596588.61746  21425061.3444                   21425059.0704
  -9097151.12547  -7077072.08245  23294935.9144                   23294936.9024
 -19021572.42647 -14809933.88344  23282770.4454                   23282766.9184
   -766496.34847   -587010.59844  23250767.1804                   23250764.9734
 11  8 29  3 13 30.0000000  0  9G21G12G26G29G05G15G25G02G18
  -1773185.85946  -1374224.04344  23737880.8204                   23737879.0434
  -7090402.25046  -5513445.71544  24566253.8524                   24566253.0314
 -15907484.59048 -12384913.38746  21268765.7584                   21268763.6334
 -20541694.35948 -15996892.21547  20455096.5944                   20455094.3484
 -15762431.57447 -12270513.19545  22661168.0474                   22661164.7774
 -12418523.88348  -9666140.78146  21408075.9064                   21408073.4534
  -9044645.41847  -7036158.56245  23304927.8444                   23304928.3954
 -18989157.98846 -14784675.91844  23288938.1954                   23288934.8244
   -857538.95747   -657952.84844  23233442.2584                   23233440.0634
 11  8 29  3 14  0.0000000  0  9G21G12G26G29G05G15G25G02G18
  -1856910.71146  -1439464.12544  23721947.8054                   23721945.7974
  -7023258.02746  -5461125.55944  24579030.7274                   24579029.5204
 -15950400.67648 -12418354.47746  21260599.2344                   21260596.5274
 -20595532.71148 -16038844.17647  20444851.3444                   20444849.2234
 -15702017.10247 -12223436.98045  22672664.1644                   22672661.5274
 -12507351.49247  -9735357.07046  21391172.4304                   21391170.1024
  -8991989.64547  -6995128.09845  23314947.3364                   23314948.6524
 -18956597.04346 -14759303.77044  23295134.7894                   23295131.0004
   -948328.26647   -728697.73044  23216165.1804                   23216163.5204
 11  8 29  3 14 30.0000000  0  9G21G12G26G29G05G15G25G02G18
  -1940683.54346  -1504741.62144  23706006.9774                   23706004.8714
  -6956228.94147  -5408895.08644  24591786.5394                   24591784.5314
 -15992654.18448 -12451279.26646  21252558.6094                   21252556.2154
 -20648884.63348 -16080417.10247  20434698.8754                   20434696.5784
 -15641513.63747 -12176291.44545  22684177.3674                   22684175.0634
 -12595746.57847  -9804236.33646  21374351.5004                   21374348.9414
  -8939187.77747  -6953983.79744  23324995.2274                   23324996.1054
 -18923890.09047 -14733817.87944  23301358.7664                   23301354.6564
  -1038864.24646   -799245.22744  23198937.0634                   23198934.8674
 11  8 29  3 15  0.0000000  0  9G21G12G26G29G05G15G25G02G18
  -2024502.70346  -1570055.18744  23690057.1414                   23690054.8164
  -6889315.54346  -5356754.78944  24604519.6724                   24604518.0044
 -16034241.91048 -12483685.27046  21244644.5944                   21244642.2814
 -20701746.71148 -16121608.33247  20424639.6174                   20424637.3014
 -15580921.87547 -12129077.10945  22695707.7034                   22695705.5984
 -12683704.18447  -9872774.69146  21357613.9614                   21357611.3094
  -8886241.18447  -6912726.71145  23335070.9844                   23335071.7974
 -18891034.77746 -14708216.33644  23307609.8594                   23307607.4224
  -1129145.23847   -869593.99644  23181756.8834                   23181755.0204
 11  8 29  3 15 30.0000000  0  9G21G12G26G29G05G15G25G02G18
  -2108369.47746  -1635405.84844  23674097.7504                   23674095.3634
  -6822521.96946  -5304707.85944  24617229.2664                   24617228.2384
 -16075164.04348 -12515572.63346  21236857.6484                   21236855.0354
 -20754118.69148 -16162417.66047  20414673.7664                   20414671.2774
 -15520244.57447 -12081796.10245  22707254.1094                   22707251.5314
 -12771223.48848  -9940971.53546  21340959.3524                   21340956.5474
  -8833154.36747  -6871360.38344  23345172.7194                   23345174.0744
 -18858032.14147 -14682500.03144  23313891.1094                   23313887.7234
  -1219172.07447   -939744.73044  23164625.5784                   23164623.2974
 11  8 29  3 16  0.0000000  0  9G21G12G26G29G05G15G25G02G18
  -2192283.54747  -1700793.37544  23658129.5704                   23658127.2424
  -6755850.34446  -5252755.95744  24629917.2274                   24629915.4184
 -16115419.11748 -12546940.19946  21229197.2734                   21229194.8984
 -20805998.68748 -16202843.62147  20404801.3284                   20404798.5904
 -15459483.84847 -12034450.11745  22718816.6724                   22718814.4964
 -12858301.54348 -10008824.52746  21324388.8204                   21324386.2894
  -8779930.17247  -6829887.00045  23355300.8524                   23355302.0354
 -18824881.50446 -14656668.37545  23320199.7504                   23320195.6054
  -1308944.12547  -1009696.94544  23147542.7734                   23147540.3714
 11  8 29  3 16 30.0000000  0  9G21G12G26G29G05G15G25G02G18
  -2276243.90247  -1766216.96144  23642152.1954                   23642149.4144
  -6689302.14846  -5200900.22743  24642579.8524                   24642578.3594
 -16155004.56248 -12577785.99246  21221664.5474                   21221661.6914
 -20857383.61348 -16242883.81647  20395022.7114                   20395020.1954
 -15398640.42247 -11987039.68045  22730394.9144                   22730392.2544
 -12944934.81648 -10076330.93746  21307902.9144                   21307900.6054
  -8726570.62147  -6788308.12545  23365454.8054                   23365457.1644
 -18791581.14147 -14630720.08244  23326536.4144                   23326532.5274
  -1398460.12947  -1079449.65644  23130508.1174                   23130506.0904
 11  8 29  3 17  0.0000000  0  9G21G12G26G29G05G15G25G02G18
  -2360249.78547  -1831676.01644  23626166.5554                   23626163.8714
  -6622879.43446  -5149142.29343  24655220.1724                   24655218.6094
 -16193918.82448 -12608108.77346  21214259.1334                   21214256.6524
 -20908271.84048 -16282536.96547  20385339.2424                   20385336.5744
 -15337715.55947 -11939565.78545  22741988.8524                   22741985.8714
 -13031120.78148 -10143488.79746  21291502.3594                   21291499.9694
  -8673078.38747  -6746625.88345  23375634.0704                   23375635.9264
 -18758130.50847 -14604654.67644  23332901.6024                   23332897.8834
  -1487719.09447  -1149002.06644  23113522.4844                   23113520.4144
 11  8 29  3 17 30.0000000  0  9G21G12G26G29G05G15G25G02G18
  -2444303.11347  -1897172.05544  23610171.7894                   23610169.2464
  -6556587.02346  -5097485.89143  24667835.0314                   24667833.6414
 -16232162.79748 -12637909.26646  21206981.3674                   21206979.2344
 -20958663.80548 -16321803.41847  20375749.9304                   20375747.4454
 -15276713.53147 -11892031.75445  22753596.5944                   22753594.5474
 -13116858.46547 -10210297.34446  21275187.1884                   21275184.8674
  -8619458.84447  -6704844.46145  23385837.7114                   23385839.5784
 -18724531.22346 -14578473.44144  23339295.3284                   23339291.7584
  -1576723.39847  -1218356.01244  23096586.1884                   23096583.3164
 11  8 29  3 18  0.0000000  0  9G21G12G26G29G05G15G25G02G18
  -2528404.16447  -1962705.26644  23594167.9774                   23594164.9454
  -6490427.17645  -5045932.79343  24680424.9064                   24680423.3054
 -16269735.46148 -12667186.63346  21199831.5394                   21199829.2734
 -21008557.59848 -16360681.69547  20366255.5784                   20366253.3874
 -15215636.38347 -11844439.20745  22765219.1174                   22765216.7664
 -13202145.25848 -10276754.53946  21258957.4384                   21258954.6914
  -8565714.84447  -6662966.02345  23396064.7194                   23396066.2424
 -18690782.26647 -14552175.57844  23345717.9774                   23345713.9884
  -1665472.18747  -1287510.87144  23079697.6094                   23079695.8164
 11  8 29  3 18 30.0000000  0  9G21G12G26G29G05G15G25G02G18
  -2612552.75447  -2028275.52744  23578154.9454                   23578151.2774
  -6424402.43045  -4994484.90643  24692988.8204                   24692987.7504
 -16306635.12548 -12695939.61746  21192810.1724                   21192807.8164
 -21057951.52048 -16399170.44547  20356856.1414                   20356853.7504
 -15154486.25847 -11796789.77045  22776855.6804                   22776852.8284
 -13286979.05147 -10342858.76646  21242814.0784                   21242812.0084
  -8511849.56647  -6620993.11345  23406314.9454                   23406317.2704
 -18656883.66046 -14525761.10544  23352167.7974                   23352164.5984
  -1753965.38347  -1356466.58244  23062857.8914                   23062855.4924
 11  8 29  3 19  0.0000000  0  9G21G12G26G29G05G15G25G02G18
  -2696748.02747  -2093882.16844  23562132.6884                   23562129.6454
  -6358514.65245  -4943143.84843  24705527.3524                   24705525.3244
 -16342860.40248 -12724167.08646  21185916.4694                   21185914.5044
 -21106843.73448 -16437268.25847  20347552.3364                   20347549.8164
 -15093263.68047 -11749083.89145  22788506.1094                   22788504.0354
 -13371356.53948 -10408607.41846  21226757.8834                   21226755.5514
  -8457865.44947  -6578927.57045  23416588.4064                   23416589.4264
 -18622834.52747 -14499229.35244  23358648.0084                   23358644.1724
  -1842201.99647  -1425222.34444  23046066.8364                   23046064.8484
 11  8 29  3 19 30.0000000  0  9G21G12G26G29G05G15G25G02G18
  -2780987.57846  -2159523.32844  23546102.4224                   23546098.9924
  -6292764.09046  -4891909.57443  24718039.6724                   24718036.6254
 -16378407.71948 -12751866.28146  21179152.1484                   21179149.6884
 -21155230.37948 -16474972.11347  20338344.6254                   20338342.2344
 -15031968.26247 -11701321.25845  22800170.3444                   22800167.2814
 -13455273.24648 -10473997.01646  21210788.4774                   21210786.1884
  -8403763.36747  -6536770.14545  23426883.5634                   23426884.6214
 -18588631.89147 -14472577.98444  23365156.3524                   23365152.9804
  -1930179.50447  -1493776.20744  23029325.0394                   23029323.6134
 11  8 29  3 20  0.0000000  0  9G21G12G26G29G05G15G25G02G18
  -2865273.14147  -2225200.32444  23530063.4774                   23530060.3324
  -6227154.69946  -4840785.37143  24730523.3284                   24730522.1724
 -16413277.90648 -12779037.83246  21172516.4774                   21172513.9454
 -21203111.39848 -16512281.99247  20329233.0394                   20329230.6644
 -14970603.95347 -11653504.93445  22811847.4614                   22811845.2114
 -13538728.27748 -10539026.87946  21194907.6094                   21194905.1094
  -8349548.06247  -6494524.48845  23437200.1254                   23437201.7584
 -18554277.07447 -14445808.02044  23371694.3674                   23371690.6644
  -2017899.39147  -1562129.32044  23012632.3754                   23012630.0744
 11  8 29  3 20 30.0000000  0  8G21G26G29G05G15G25G02G18
  -2949605.03946  -2290913.40644  23514015.4534                   23514012.2624
 -16447470.36748 -12805681.29346  21166009.8594                   21166007.3324
 -21250485.83648 -16549197.12147  20320217.9774                   20320215.5554
 -14909173.07447 -11605636.73445  22823537.5784                   22823535.3524
 -13621719.77747 -10603695.55546  21179115.2194                   21179112.2584
  -8295223.12547  -6452193.39845  23447537.8284                   23447539.3954
 -18519770.14546 -14418919.53944  23378260.3594                   23378256.6374
  -2105362.07847  -1630282.01644  22995989.0314                   22995987.1294
 11  8 29  3 21  0.0000000  0  8G21G26G29G05G15G25G02G18
  -3033981.70346  -2356661.39844  23497958.6484                   23497955.8484
 -16480982.68448 -12831794.77346  21159632.6884                   21159630.3134
 -21297350.79348 -16585715.26247  20311299.7814                   20311297.3954
 -14847676.02347 -11557716.97345  22835240.1564                   22835237.2194
 -13704243.61347 -10667999.80546  21163411.1334                   21163408.6644
  -8240790.28147  -6409778.19945  23457896.2504                   23457897.5434
 -18485109.23847 -14391911.05144  23384856.0704                   23384852.6174
  -2192566.04347  -1698233.12144  22979394.6804                   22979392.1954
 11  8 29  3 21 30.0000000  0  8G21G26G29G05G15G25G02G18
  -3118395.62147  -2422438.39844  23481895.5084                   23481892.5864
 -16513806.55148 -12857371.80146  21153386.5784                   21153384.0164
 -21343697.32048 -16621829.42247  20302480.5784                   20302477.6684
 -14786107.01647 -11509741.13745  22846956.0164                   22846953.5274
 -13786290.07448 -10731932.08246  21147798.4694                   21147795.6334
  -8186245.05147  -6367275.41444  23468275.9454                   23468277.2114
 -18450286.62547 -14364776.57844  23391482.8134                   23391478.3054
  -2279503.21947  -1765976.33244  22962850.8914                   22962848.8594
 11  8 29  3 22  0.0000000  0  8G21G26G29G05G15G25G02G18
  -3202843.36746  -2488241.78544  23465825.2034                   23465822.5204
 -16545937.78948 -12882409.10946  21147271.9144                   21147269.6094
 -21389520.78948 -16657536.01647  20293760.5634                   20293758.1564
 -14724465.13747 -11461708.52745  22858686.5084                   22858683.5394
 -13867854.04348 -10795488.39146  21132277.1484                   21132274.8554
  -8131587.43047  -6324685.06645  23478676.9384                   23478678.3794
 -18415298.52747 -14337513.16444  23398140.5554                   23398135.9454
  -2366170.38747  -1833509.15644  22946358.5944                   22946356.4734
 11  8 29  3 22 30.0000000  0  8G21G26G29G05G15G25G02G18
  -3287329.00047  -2554074.67644  23449748.4064                   23449746.1054
 -16577379.87948 -12906909.41846  21141288.9454                   21141286.3164
 -21434823.97348 -16692837.19147  20285139.6024                   20285137.2624
 -14662756.60947 -11413623.95745  22870428.8914                   22870426.2854
 -13948937.38748 -10858670.19946  21116847.5234                   21116845.3874
  -8076824.98447  -6282013.02745  23489097.8674                   23489099.1764
 -18380148.85546 -14310123.85944  23404829.5634                   23404825.4654
  -2452571.73047  -1900834.82444  22929916.5164                   22929914.4574
 11  8 29  3 23  0.0000000  0  8G21G26G29G05G15G25G02G18
  -3371854.00847  -2619938.25844  23433663.8754                   23433660.8284
 -16608133.81248 -12930873.50846  21135436.5004                   21135434.2234
 -21479607.22348 -16727733.21947  20276617.8054                   20276615.1094
 -14600984.63347 -11365489.97345  22882183.7584                   22882181.1484
 -14029539.42648 -10921476.94946  21101509.4924                   21101507.2304
  -8021962.42247  -6239263.00444  23499537.8204                   23499539.0514
 -18344839.15247 -14282609.85544  23411549.0864                   23411545.5594
  -2538708.84847  -1967954.59044  22913525.4774                   22913523.4964
 11  8 29  3 23 30.0000000  0  8G21G26G29G05G15G25G02G18
  -3456420.38347  -2685834.07845  23417572.1334                   23417568.2544
 -16638200.72748 -12954302.25046  21129715.3204                   21129712.5514
 -21523871.29348 -16762224.69547  20268194.7584                   20268192.0984
 -14539152.83247 -11317309.34445  22893950.0474                   22893947.5234
 -14109659.59448 -10983908.21946  21086263.1724                   21086260.3404
  -7967004.74647  -6196438.84444  23509996.2814                   23509997.2934
 -18309371.05946 -14254972.42244  23418298.1804                   23418295.4064
  -2624583.36747  -2034869.74644  22897184.1644                   22897182.4344
 11  8 29  3 24  0.0000000  0  8G21G26G29G05G15G25G02G18
  -3541027.91847  -2751761.98845  23401471.1414                   23401468.1564
 -16667579.35948 -12977194.67646  21124124.4224                   21124122.0944
 -21567614.20348 -16796310.06647  20259870.5474                   20259868.0044
 -14477263.08647 -11269083.57045  22905726.7734                   22905724.0784
 -14189295.60948 -11045962.23846  21071108.7504                   21071106.2114
  -7911954.80147  -6153542.79344  23520471.4844                   23520473.1724
 -18273743.50446 -14227210.74244  23425077.6484                   23425074.4924
  -2710195.24647  -2101580.24244  22880892.8364                   22880890.1724
 11  8 29  3 24 30.0000000  0  8G21G26G29G05G15G25G02G18
  -3625677.18447  -2817722.40245  23385362.6804                   23385360.1564
 -16696270.14548 -12999551.11746  21118664.5554                   21118662.4144
 -21610835.98848 -16829989.37147  20251645.7424                   20251642.8954
 -14415318.28547 -11220814.92645  22917515.0864                   22917512.5084
 -14268446.16848 -11107637.97346  21056046.9144                   21056044.7234
  -7856816.69147  -6110578.03544  23530963.9774                   23530965.6604
 -18237957.36346 -14199325.48444  23431887.3984                   23431884.0124
  -2795544.76647  -2168086.34044  22864651.4694                   22864648.5594
 11  8 29  3 25  0.0000000  0  8G21G26G29G05G15G25G02G18
  -3710370.23447  -2883716.96144  23369246.0784                   23369242.6454
 -16724274.54348 -13021372.70746  21113335.6174                   21113333.3794
 -21653537.32048 -16863263.12947  20243520.0234                   20243517.3404
 -14353322.21547 -11172506.29745  22929312.1954                   22929309.5084
 -14347111.16048 -11168935.34446  21041077.1334                   21041074.9384
  -7801595.66047  -6067548.64844  23541472.7344                   23541473.0594
 -18202014.68746 -14171318.25444  23438727.2504                   23438724.0474
  -2880634.55547  -2234390.03144  22848459.3364                   22848456.7504
 11  8 29  3 25 30.0000000  0  8G21G26G29G05G15G25G02G18
  -3795106.32447  -2949745.03944  23353121.7894                   23353118.6644
 -16751591.27748 -13042658.46146  21108137.5164                   21108134.8444
 -21695716.06648 -16896129.67647  20235493.5704                   20235490.8594
 -14291276.15247 -11124158.73045  22941119.1024                   22941117.0824
 -14425287.61348 -11229852.02746  21026200.6954                   21026198.4144
  -7746294.18747  -6024456.59444  23551995.7344                   23551996.9774
 -18165914.27346 -14143188.09444  23445596.8524                   23445593.3444
  -2965463.70347  -2300490.63744  22832317.2504                   22832314.3524
 11  8 29  3 26  0.0000000  0  8G21G26G29G05G15G25G02G18
  -3879884.37947  -3015805.83644  23336988.8984                   23336985.4534
 -16778219.12948 -13063407.41446  21103070.2194                   21103067.9844
 -21737370.44148 -16928587.62547  20227566.9774                   20227564.4264
 -14229181.49647 -11075773.28145  22952935.6094                   22952932.9384
 -14502972.73448 -11290385.86346  21011417.8134                   21011415.4574
  -7690914.68447  -5981303.73844  23562534.2424                   23562535.2814
 -18129654.73046 -14114933.95744  23452497.3754                   23452493.7854
  -3050031.31247  -2366387.43044  22816223.9304                   22816221.4734
 11  8 29  3 26 30.0000000  0  8G21G26G29G05G15G25G02G18
  -3964707.66046  -3081901.89144  23320847.5634                   23320843.7734
 -16804160.48047 -13083621.43746  21098133.9224                   21098131.4924
 -21778502.06248 -16960638.23847  20219740.2344                   20219737.2934
 -14167042.52347 -11027353.30545  22964760.4844                   22964758.0664
 -14580167.69148 -11350537.76246  20996728.1094                   20996725.7304
  -7635463.41847  -5938094.96544  23573086.4924                   23573087.5234
 -18093239.22346 -14086558.26244  23459426.4924                   23459423.6454
  -3134340.71547  -2432083.01644  22800180.3364                   22800178.0274
 11  8 29  3 27  0.0000000  0  8G21G26G29G05G15G25G02G18
  -4049573.14546  -3148030.80144  23304698.3364                   23304694.9734
 -16829412.60547 -13103298.40246  21093328.1804                   21093326.2274
 -21819107.96948 -16992279.19947  20212012.8984                   20212010.2074
 -14104859.04347 -10978898.67245  22976593.2274                   22976590.9064
 -14656868.04748 -11410304.24646  20982132.4454                   20982130.1024
  -7579941.07047  -5894830.81244  23583651.6094                   23583653.2584
 -18056665.05546 -14058058.97744  23466386.8834                   23466383.4184
  -3218389.55947  -2497575.56244  22784185.9144                   22784184.0824
 11  8 29  3 27 30.0000000  0  8G21G26G29G05G15G25G02G18
  -4134481.44147  -3214193.09444  23288540.5784                   23288536.6454
 -16853975.38347 -13122438.19946  21088654.2974                   21088651.9064
 -21859187.17248 -17023509.74647  20204385.9614                   20204383.4064
 -14042633.20747 -10930411.00845  22988434.7734                   22988432.7034
 -14733071.92648 -11469683.86346  20967631.3674                   20967628.8594
  -7524351.28147  -5851514.10944  23594229.8594                   23594231.1134
 -18019932.30146 -14029436.09044  23473376.2274                   23473373.6914
  -3302177.98447  -2562865.18744  22768242.1804                   22768239.7424
 11  8 29  3 28  0.0000000  0  8G21G26G29G05G15G25G02G18
  -4219433.26247  -3280389.29744  23272374.5944                   23272371.7034
 -16877849.23848 -13141041.19946  21084111.1884                   21084108.9654
 -21898739.10248 -17054329.43747  20196859.3284                   20196857.0274
 -13980367.46547 -10881892.25045  23000283.4534                   23000280.8834
 -14808778.17648 -11528675.71946  20953225.0394                   20953222.7074
  -7468697.87947  -5808147.85944  23604820.0394                   23604822.5004
 -17983041.36346 -14000689.93044  23480396.8754                   23480393.8204
  -3385706.54747  -2627952.30944  22752347.0004                   22752344.4884
 11  8 29  3 28 30.0000000  0  8G21G26G29G05G15G25G02G18
  -4304428.96547  -3346619.69944  23256200.7894                   23256197.6564
 -16901034.97748 -13159107.98446  21079699.0784                   21079697.0164
 -21937763.75048 -17084738.25447  20189433.5234                   20189430.9694
 -13918064.95747 -10833344.84445  23012139.2344                   23012137.4804
 -14883985.66448 -11587278.92646  20938913.1724                   20938910.6994
  -7412985.22347  -5764735.42644  23615422.4304                   23615423.9144
 -17945993.57846 -13971821.55944  23487446.8914                   23487443.7504
  -3468976.92247  -2692838.25844  22736501.0164                   22736498.9884
 11  8 29  3 29  0.0000000  0  8G21G26G29G05G15G25G02G18
  -4389467.22747  -3412883.26245  23240018.7664                   23240015.3714
 -16923530.37547 -13176636.84046  21075418.3134                   21075416.2154
 -21976258.16048 -17114733.90247  20182108.2504                   20182105.8204
 -13855725.91847 -10784768.97745  23024002.0784                   23023999.6094
 -14958690.86348 -11645490.74246  20924697.3594                   20924694.5514
  -7357214.58647  -5721277.81644  23626035.2894                   23626036.6374
 -17908786.60246 -13942829.17244  23494527.4924                   23494522.9264
  -3551987.34447  -2757521.63344  22720704.8594                   22720702.3444
 11  8 29  3 29 30.0000000  0  8G21G26G29G05G15G25G02G18
  -4474547.73847  -3479179.73845  23223828.0554                   23223824.8634
 -16945334.57447 -13193627.11746  21071269.3204                   21071267.1644
 -22014220.96148 -17144315.30547  20174884.0784                   20174881.3444
 -13793351.40247 -10736165.44945  23035871.0164                   23035869.1804
 -15032891.24248 -11703309.19546  20910577.6414                   20910574.9224
  -7301388.61347  -5677777.09844  23636658.8914                   23636660.6134
 -17871419.61746 -13913712.05544  23501638.1484                   23501635.1724
  -3634737.13747  -2822001.93445  22704957.2584                   22704955.3594
 11  8 29  3 30  0.0000000  0  8G21G26G29G05G15G25G02G18
  -4559668.45347  -3545507.54344  23207630.3204                   23207626.8324
 -16966446.24248 -13210077.75446  21067251.7974                   21067249.0634
 -22051649.86348 -17173480.68447  20167761.7974                   20167758.8914
 -13730941.99247 -10687534.73445  23047747.2034                   23047745.3874
 -15106583.48448 -11760731.69146  20896554.3674                   20896552.1454
  -7245509.19947  -5634234.73044  23647291.6724                   23647293.4024
 -17833891.19146 -13884469.16044  23508779.2584                   23508775.8204
  -3717225.12147  -2886278.21145  22689260.9304                   22689258.6724
 11  8 29  3 30 30.0000000  0  8G21G26G29G05G15G25G02G18
  -4644829.48447  -3611866.73444  23191424.7504                   23191421.7974
 -16986865.46948 -13225988.83246  21063366.0864                   21063363.6484
 -22088543.96948 -17202229.34447  20160740.8364                   20160738.3324
 -13668499.86747 -10638878.54345  23059629.6254                   23059627.1644
 -15179766.08248 -11817757.05946  20882628.4694                   20882625.5164
  -7189579.87947  -5590653.48044  23657935.1484                   23657936.9224
 -17796201.41447 -13855100.52044  23515951.3914                   23515948.2234
  -3799452.05547  -2950351.09045  22673613.8444                   22673611.1564
 11  8 29  3 31  0.0000000  0  8G21G26G29G05G15G25G02G18
  -4730032.44947  -3678258.62545  23175210.8054                   23175207.6804
 -17006593.78548 -13241361.52046  21059611.8834                   21059609.3284
 -22124904.48848 -17230562.21547  20153821.6484                   20153818.9454
 -13606028.80947 -10590199.77045  23071517.3204                   23071515.4414
 -15252438.96948 -11874385.24246  20868798.7894                   20868796.2504
  -7133605.62547  -5547037.23444  23668586.7814                   23668588.2234
 -17758352.06646 -13825607.55144  23523154.3834                   23523150.4924
  -3881419.78147  -3014221.99645  22658015.6884                   22658013.1454
 11  8 29  3 31 30.0000000  0  8G21G26G29G05G15G25G02G18
  -4815276.66047  -3744682.64144  23158989.5084                   23158985.7854
 -17025630.48448 -13256195.30546  21055989.3834                   21055986.7974
 -22160729.41848 -17258477.75047  20147004.2114                   20147001.7584
 -13543529.36347 -10541498.90245  23083410.6414                   23083408.4384
 -15324599.68048 -11930614.34446  20855067.0704                   20855064.5514
  -7077588.78547  -5503387.78544  23679246.2734                   23679247.4534
 -17720341.95746 -13795989.32844  23530387.0704                   23530383.7894
  -3963127.51647  -3077890.30545  22642466.8364                   22642464.3324
 11  8 29  3 32  0.0000000  0  8G21G26G29G05G15G25G02G18
  -4900561.53947  -3811138.35245  23142760.3444                   23142757.2704
 -17043975.28148 -13270489.94546  21052498.3834                   21052496.4224
 -22196017.71548 -17285975.12947  20140289.3364                   20140286.8134
 -13481003.37947 -10492777.35245  23095308.5944                   23095306.7734
 -15396245.80548 -11986442.46146  20841433.5314                   20841430.9224
  -7021532.18047  -5459707.34444  23689913.7974                   23689914.6094
 -17682170.65646 -13766245.48844  23537650.7734                   23537647.5474
  -4044574.92247  -3141355.75845  22626968.3674                   22626965.5314
 11  8 29  3 32 30.0000000  0  8G21G26G29G05G15G25G02G18
  -4985887.78147  -3877626.29345  23126523.3674                   23126520.4964
 -17061628.70748 -13284245.85546  21049138.8594                   21049136.9184
 -22230769.09048 -17313054.13347  20133676.4144                   20133673.8484
 -13418453.38747 -10444037.10245  23107212.2504                   23107209.3324
 -15467376.28548 -12041868.76646  20827897.6484                   20827895.0084
  -6965439.70747  -5415998.91044  23700587.9304                   23700588.2624
 -17643838.77347 -13736376.49244  23544945.5004                   23544941.8874
  -4125763.50847  -3204619.52345  22611518.7034                   22611516.2114
 11  8 29  3 33  0.0000000  0  8G21G26G29G05G15G25G02G18
  -5071252.44947  -3944144.15645  23110278.4844                   23110275.6644
 -17078588.22748 -13297461.05146  21045911.6484                   21045909.5594
 -22264980.28148 -17339712.19547  20127166.2344                   20127163.7074
 -13355878.46547 -10395277.41845  23119119.3674                   23119117.5664
 -15537986.93048 -12096890.02046  20814460.9844                   20814458.2114
  -6909312.13747  -5372263.15644  23711267.7194                   23711268.9384
 -17605343.74246 -13706380.37144  23552270.3754                   23552267.5274
  -4206690.58647  -3267679.51645  22596118.4304                   22596115.8244
 11  8 29  3 33 30.0000000  0  8G21G26G29G05G15G25G02G18
  -5156655.91047  -4010692.26245  23094026.7664                   23094024.0784
 -17094854.02748 -13310135.68746  21042816.5084                   21042814.2194
 -22298650.41848 -17365948.67647  20120758.9304                   20120756.4734
 -13293280.82047 -10346500.03545  23131031.5704                   23131029.0824
 -15608076.36748 -12151505.12946  20801123.2974                   20801120.7584
  -6853152.77046  -5328502.61344  23721955.0084                   23721956.6454
 -17566685.64546 -13676257.17644  23559627.3984                   23559623.5354
  -4287356.35247  -3330535.87545  22580768.3594                   22580765.5474
 11  8 29  3 34  0.0000000  0  8G21G26G29G05G15G25G02G18
  -5242096.98847  -4077269.68045  23077768.0784                   23077764.7194
 -17110425.27748 -13322269.12146  21039853.2584                   21039850.9264
 -22331777.43748 -17391761.93747  20114455.0944                   20114452.4224
 -13230661.18447 -10297705.50845  23142947.7034                   23142946.0044
 -15677641.67248 -12205711.82846  20787885.5234                   20787882.8674
  -6796963.68047  -5284718.93044  23732647.2974                   23732649.0394
 -17527863.14547 -13646005.89844  23567014.2274                   23567011.1604
  -4367760.24247  -3393188.18444  22565467.6884                   22565465.5664
